<?xml version="1.0" encoding="UTF-8" standalone="no" ?>
<gpx xmlns="http://www.topografix.com/GPX/1/1" xmlns:xsi="http://www.w3.org/2001/XMLSchema-instance" xsi:schemaLocation="http://www.topografix.com/GPX/1/1 http://www.topografix.com/GPX/1/1/gpx.xsd" version="1.1" creator="VisuGPX - https://www.visugpx.com">
  <metadata>
    <name>VIRAC A SALLE</name>
    <desc><![CDATA[LE TRES BEAUX VILLAGE DE VIRAC vous RESOIE .vous pas se pausse sur le plateau de LIVERS CAZELLES.BEAUT PATRIMOINE BATTIE  sur le parcours .a midi arrive et les tables de salles au bort du cerou vous acceulliue .un petit efort et vous voila sur la plateau avec une vue sur 360 .mais il faut .voir la ruisseau de la zere.le dermier effort la cabane vous dit que vous avec fin tout les effort le temps de recuperre et le clocher de VIRAC revous que a fin arrive bonne balades a touts ]]></desc>
  </metadata>
  <trk>
    <name><![CDATA[11-AVR-14 02:55:05 PM]]></name>
    <trkseg>
      <trkpt lat="44.04618" lon="2.04465">
        <ele>297.18</ele>
        <time>2014-04-11T07:09:58Z</time>
      </trkpt>
      <trkpt lat="44.04618" lon="2.04465">
        <ele>297.18</ele>
        <time>2014-04-11T07:09:59Z</time>
      </trkpt>
      <trkpt lat="44.04619" lon="2.04466">
        <ele>300.55</ele>
        <time>2014-04-11T07:10:04Z</time>
      </trkpt>
      <trkpt lat="44.04619" lon="2.04466">
        <ele>303.91</ele>
        <time>2014-04-11T07:10:09Z</time>
      </trkpt>
      <trkpt lat="44.04619" lon="2.04466">
        <ele>306.8</ele>
        <time>2014-04-11T07:10:15Z</time>
      </trkpt>
      <trkpt lat="44.04618" lon="2.04467">
        <ele>309.68</ele>
        <time>2014-04-11T07:10:22Z</time>
      </trkpt>
      <trkpt lat="44.04619" lon="2.04466">
        <ele>312.57</ele>
        <time>2014-04-11T07:10:32Z</time>
      </trkpt>
      <trkpt lat="44.04619" lon="2.04465">
        <ele>315.93</ele>
        <time>2014-04-11T07:10:49Z</time>
      </trkpt>
      <trkpt lat="44.04619" lon="2.04466">
        <ele>318.33</ele>
        <time>2014-04-11T07:11:23Z</time>
      </trkpt>
      <trkpt lat="44.0462" lon="2.04465">
        <ele>318.33</ele>
        <time>2014-04-11T07:11:54Z</time>
      </trkpt>
      <trkpt lat="44.04621" lon="2.04465">
        <ele>316.41</ele>
        <time>2014-04-11T07:12:14Z</time>
      </trkpt>
      <trkpt lat="44.04623" lon="2.04463">
        <ele>313.53</ele>
        <time>2014-04-11T07:12:16Z</time>
      </trkpt>
      <trkpt lat="44.04623" lon="2.04463">
        <ele>320.26</ele>
        <time>2014-04-11T07:12:17Z</time>
      </trkpt>
      <trkpt lat="44.04622" lon="2.04464">
        <ele>313.53</ele>
        <time>2014-04-11T07:12:20Z</time>
      </trkpt>
      <trkpt lat="44.04622" lon="2.04465">
        <ele>326.02</ele>
        <time>2014-04-11T07:12:21Z</time>
      </trkpt>
      <trkpt lat="44.04622" lon="2.04465">
        <ele>317.85</ele>
        <time>2014-04-11T07:12:22Z</time>
      </trkpt>
      <trkpt lat="44.04622" lon="2.04465">
        <ele>317.85</ele>
        <time>2014-04-11T07:12:38Z</time>
      </trkpt>
      <trkpt lat="44.04621" lon="2.04464">
        <ele>315.93</ele>
        <time>2014-04-11T07:12:43Z</time>
      </trkpt>
      <trkpt lat="44.04621" lon="2.04464">
        <ele>320.74</ele>
        <time>2014-04-11T07:12:44Z</time>
      </trkpt>
      <trkpt lat="44.04622" lon="2.04465">
        <ele>317.37</ele>
        <time>2014-04-11T07:12:49Z</time>
      </trkpt>
      <trkpt lat="44.04622" lon="2.04465">
        <ele>318.33</ele>
        <time>2014-04-11T07:13:09Z</time>
      </trkpt>
      <trkpt lat="44.04621" lon="2.04461">
        <ele>317.85</ele>
        <time>2014-04-11T07:13:24Z</time>
      </trkpt>
      <trkpt lat="44.04621" lon="2.04459">
        <ele>317.85</ele>
        <time>2014-04-11T07:13:26Z</time>
      </trkpt>
      <trkpt lat="44.04621" lon="2.04448">
        <ele>317.37</ele>
        <time>2014-04-11T07:13:42Z</time>
      </trkpt>
      <trkpt lat="44.04621" lon="2.0444">
        <ele>317.37</ele>
        <time>2014-04-11T07:13:55Z</time>
      </trkpt>
      <trkpt lat="44.04618" lon="2.0444">
        <ele>317.37</ele>
        <time>2014-04-11T07:14:02Z</time>
      </trkpt>
      <trkpt lat="44.04601" lon="2.04443">
        <ele>316.41</ele>
        <time>2014-04-11T07:14:17Z</time>
      </trkpt>
      <trkpt lat="44.04598" lon="2.04444">
        <ele>315.93</ele>
        <time>2014-04-11T07:14:24Z</time>
      </trkpt>
      <trkpt lat="44.04591" lon="2.04445">
        <ele>315.45</ele>
        <time>2014-04-11T07:14:31Z</time>
      </trkpt>
      <trkpt lat="44.04584" lon="2.04444">
        <ele>314.49</ele>
        <time>2014-04-11T07:14:40Z</time>
      </trkpt>
      <trkpt lat="44.0458" lon="2.04446">
        <ele>314.49</ele>
        <time>2014-04-11T07:14:51Z</time>
      </trkpt>
      <trkpt lat="44.04577" lon="2.04449">
        <ele>314.49</ele>
        <time>2014-04-11T07:15:10Z</time>
      </trkpt>
      <trkpt lat="44.04575" lon="2.04451">
        <ele>313.53</ele>
        <time>2014-04-11T07:15:25Z</time>
      </trkpt>
      <trkpt lat="44.04572" lon="2.04451">
        <ele>313.05</ele>
        <time>2014-04-11T07:15:29Z</time>
      </trkpt>
      <trkpt lat="44.04568" lon="2.04453">
        <ele>313.05</ele>
        <time>2014-04-11T07:15:35Z</time>
      </trkpt>
      <trkpt lat="44.04561" lon="2.04452">
        <ele>308.72</ele>
        <time>2014-04-11T07:15:42Z</time>
      </trkpt>
      <trkpt lat="44.0456" lon="2.04451">
        <ele>314.01</ele>
        <time>2014-04-11T07:15:43Z</time>
      </trkpt>
      <trkpt lat="44.04559" lon="2.04451">
        <ele>307.76</ele>
        <time>2014-04-11T07:15:44Z</time>
      </trkpt>
      <trkpt lat="44.04557" lon="2.04451">
        <ele>315.93</ele>
        <time>2014-04-11T07:15:45Z</time>
      </trkpt>
      <trkpt lat="44.04556" lon="2.04451">
        <ele>311.6</ele>
        <time>2014-04-11T07:15:46Z</time>
      </trkpt>
      <trkpt lat="44.04548" lon="2.0445">
        <ele>311.12</ele>
        <time>2014-04-11T07:15:54Z</time>
      </trkpt>
      <trkpt lat="44.04542" lon="2.04448">
        <ele>310.64</ele>
        <time>2014-04-11T07:16:01Z</time>
      </trkpt>
      <trkpt lat="44.04523" lon="2.04441">
        <ele>309.68</ele>
        <time>2014-04-11T07:16:17Z</time>
      </trkpt>
      <trkpt lat="44.04507" lon="2.04432">
        <ele>309.68</ele>
        <time>2014-04-11T07:16:31Z</time>
      </trkpt>
      <trkpt lat="44.04494" lon="2.04426">
        <ele>309.68</ele>
        <time>2014-04-11T07:16:42Z</time>
      </trkpt>
      <trkpt lat="44.04483" lon="2.04421">
        <ele>309.68</ele>
        <time>2014-04-11T07:16:51Z</time>
      </trkpt>
      <trkpt lat="44.04468" lon="2.04413">
        <ele>310.16</ele>
        <time>2014-04-11T07:17:05Z</time>
      </trkpt>
      <trkpt lat="44.04458" lon="2.04407">
        <ele>310.64</ele>
        <time>2014-04-11T07:17:15Z</time>
      </trkpt>
      <trkpt lat="44.04449" lon="2.04402">
        <ele>311.12</ele>
        <time>2014-04-11T07:17:30Z</time>
      </trkpt>
      <trkpt lat="44.04449" lon="2.04404">
        <ele>311.12</ele>
        <time>2014-04-11T07:17:47Z</time>
      </trkpt>
      <trkpt lat="44.04449" lon="2.04405">
        <ele>311.12</ele>
        <time>2014-04-11T07:18:09Z</time>
      </trkpt>
      <trkpt lat="44.04451" lon="2.04403">
        <ele>311.12</ele>
        <time>2014-04-11T07:18:20Z</time>
      </trkpt>
      <trkpt lat="44.04452" lon="2.04406">
        <ele>310.64</ele>
        <time>2014-04-11T07:18:31Z</time>
      </trkpt>
      <trkpt lat="44.04453" lon="2.04406">
        <ele>310.64</ele>
        <time>2014-04-11T07:18:36Z</time>
      </trkpt>
      <trkpt lat="44.04455" lon="2.04407">
        <ele>310.64</ele>
        <time>2014-04-11T07:18:38Z</time>
      </trkpt>
      <trkpt lat="44.04457" lon="2.04408">
        <ele>305.84</ele>
        <time>2014-04-11T07:18:40Z</time>
      </trkpt>
      <trkpt lat="44.04458" lon="2.04409">
        <ele>313.53</ele>
        <time>2014-04-11T07:18:41Z</time>
      </trkpt>
      <trkpt lat="44.04459" lon="2.04409">
        <ele>310.64</ele>
        <time>2014-04-11T07:18:42Z</time>
      </trkpt>
      <trkpt lat="44.04475" lon="2.04418">
        <ele>310.16</ele>
        <time>2014-04-11T07:18:57Z</time>
      </trkpt>
      <trkpt lat="44.0448" lon="2.04421">
        <ele>310.16</ele>
        <time>2014-04-11T07:19:10Z</time>
      </trkpt>
      <trkpt lat="44.0448" lon="2.0442">
        <ele>309.68</ele>
        <time>2014-04-11T07:19:30Z</time>
      </trkpt>
      <trkpt lat="44.0448" lon="2.0442">
        <ele>310.16</ele>
        <time>2014-04-11T07:19:49Z</time>
      </trkpt>
      <trkpt lat="44.0448" lon="2.0442">
        <ele>310.16</ele>
        <time>2014-04-11T07:20:11Z</time>
      </trkpt>
      <trkpt lat="44.04475" lon="2.04418">
        <ele>310.16</ele>
        <time>2014-04-11T07:20:19Z</time>
      </trkpt>
      <trkpt lat="44.04459" lon="2.04409">
        <ele>310.64</ele>
        <time>2014-04-11T07:20:35Z</time>
      </trkpt>
      <trkpt lat="44.04441" lon="2.04403">
        <ele>311.6</ele>
        <time>2014-04-11T07:20:51Z</time>
      </trkpt>
      <trkpt lat="44.04421" lon="2.0441">
        <ele>314.01</ele>
        <time>2014-04-11T07:21:08Z</time>
      </trkpt>
      <trkpt lat="44.04401" lon="2.0442">
        <ele>315.45</ele>
        <time>2014-04-11T07:21:25Z</time>
      </trkpt>
      <trkpt lat="44.044" lon="2.0442">
        <ele>315.45</ele>
        <time>2014-04-11T07:21:26Z</time>
      </trkpt>
      <trkpt lat="44.04394" lon="2.04423">
        <ele>316.41</ele>
        <time>2014-04-11T07:21:32Z</time>
      </trkpt>
      <trkpt lat="44.04384" lon="2.04419">
        <ele>316.41</ele>
        <time>2014-04-11T07:21:46Z</time>
      </trkpt>
      <trkpt lat="44.04376" lon="2.04405">
        <ele>315.93</ele>
        <time>2014-04-11T07:22:00Z</time>
      </trkpt>
      <trkpt lat="44.04368" lon="2.04392">
        <ele>315.45</ele>
        <time>2014-04-11T07:22:12Z</time>
      </trkpt>
      <trkpt lat="44.0435" lon="2.0437">
        <ele>314.49</ele>
        <time>2014-04-11T07:22:31Z</time>
      </trkpt>
      <trkpt lat="44.04339" lon="2.04354">
        <ele>314.01</ele>
        <time>2014-04-11T07:22:45Z</time>
      </trkpt>
      <trkpt lat="44.04321" lon="2.04339">
        <ele>313.53</ele>
        <time>2014-04-11T07:23:02Z</time>
      </trkpt>
      <trkpt lat="44.04304" lon="2.04324">
        <ele>314.01</ele>
        <time>2014-04-11T07:23:19Z</time>
      </trkpt>
      <trkpt lat="44.0429" lon="2.04309">
        <ele>314.01</ele>
        <time>2014-04-11T07:23:34Z</time>
      </trkpt>
      <trkpt lat="44.04276" lon="2.04295">
        <ele>314.01</ele>
        <time>2014-04-11T07:23:50Z</time>
      </trkpt>
      <trkpt lat="44.04274" lon="2.04294">
        <ele>313.53</ele>
        <time>2014-04-11T07:23:52Z</time>
      </trkpt>
      <trkpt lat="44.04272" lon="2.04287">
        <ele>313.53</ele>
        <time>2014-04-11T07:23:57Z</time>
      </trkpt>
      <trkpt lat="44.04274" lon="2.04268">
        <ele>313.05</ele>
        <time>2014-04-11T07:24:11Z</time>
      </trkpt>
      <trkpt lat="44.04283" lon="2.04243">
        <ele>311.12</ele>
        <time>2014-04-11T07:24:27Z</time>
      </trkpt>
      <trkpt lat="44.04293" lon="2.04222">
        <ele>310.16</ele>
        <time>2014-04-11T07:24:42Z</time>
      </trkpt>
      <trkpt lat="44.04307" lon="2.04199">
        <ele>307.76</ele>
        <time>2014-04-11T07:24:59Z</time>
      </trkpt>
      <trkpt lat="44.04313" lon="2.0419">
        <ele>306.8</ele>
        <time>2014-04-11T07:25:06Z</time>
      </trkpt>
      <trkpt lat="44.0432" lon="2.04177">
        <ele>305.84</ele>
        <time>2014-04-11T07:25:15Z</time>
      </trkpt>
      <trkpt lat="44.04332" lon="2.04154">
        <ele>304.39</ele>
        <time>2014-04-11T07:25:31Z</time>
      </trkpt>
      <trkpt lat="44.04344" lon="2.04127">
        <ele>303.43</ele>
        <time>2014-04-11T07:25:50Z</time>
      </trkpt>
      <trkpt lat="44.04347" lon="2.04122">
        <ele>302.95</ele>
        <time>2014-04-11T07:25:54Z</time>
      </trkpt>
      <trkpt lat="44.0435" lon="2.04112">
        <ele>302.47</ele>
        <time>2014-04-11T07:26:08Z</time>
      </trkpt>
      <trkpt lat="44.04352" lon="2.04106">
        <ele>301.99</ele>
        <time>2014-04-11T07:26:12Z</time>
      </trkpt>
      <trkpt lat="44.04356" lon="2.04096">
        <ele>301.99</ele>
        <time>2014-04-11T07:26:20Z</time>
      </trkpt>
      <trkpt lat="44.0436" lon="2.04081">
        <ele>301.99</ele>
        <time>2014-04-11T07:26:29Z</time>
      </trkpt>
      <trkpt lat="44.04358" lon="2.04074">
        <ele>301.99</ele>
        <time>2014-04-11T07:26:34Z</time>
      </trkpt>
      <trkpt lat="44.04337" lon="2.04067">
        <ele>301.03</ele>
        <time>2014-04-11T07:26:51Z</time>
      </trkpt>
      <trkpt lat="44.04319" lon="2.04065">
        <ele>300.07</ele>
        <time>2014-04-11T07:27:06Z</time>
      </trkpt>
      <trkpt lat="44.04302" lon="2.04064">
        <ele>299.59</ele>
        <time>2014-04-11T07:27:20Z</time>
      </trkpt>
      <trkpt lat="44.0428" lon="2.04065">
        <ele>299.11</ele>
        <time>2014-04-11T07:27:36Z</time>
      </trkpt>
      <trkpt lat="44.0426" lon="2.04065">
        <ele>299.11</ele>
        <time>2014-04-11T07:27:53Z</time>
      </trkpt>
      <trkpt lat="44.04241" lon="2.04068">
        <ele>298.63</ele>
        <time>2014-04-11T07:28:10Z</time>
      </trkpt>
      <trkpt lat="44.0422" lon="2.04073">
        <ele>298.63</ele>
        <time>2014-04-11T07:28:27Z</time>
      </trkpt>
      <trkpt lat="44.04194" lon="2.04078">
        <ele>298.15</ele>
        <time>2014-04-11T07:28:48Z</time>
      </trkpt>
      <trkpt lat="44.04189" lon="2.04078">
        <ele>298.15</ele>
        <time>2014-04-11T07:28:56Z</time>
      </trkpt>
      <trkpt lat="44.04187" lon="2.04077">
        <ele>298.15</ele>
        <time>2014-04-11T07:28:58Z</time>
      </trkpt>
      <trkpt lat="44.04181" lon="2.04073">
        <ele>298.15</ele>
        <time>2014-04-11T07:29:03Z</time>
      </trkpt>
      <trkpt lat="44.04166" lon="2.04064">
        <ele>297.67</ele>
        <time>2014-04-11T07:29:17Z</time>
      </trkpt>
      <trkpt lat="44.04145" lon="2.04049">
        <ele>297.67</ele>
        <time>2014-04-11T07:29:37Z</time>
      </trkpt>
      <trkpt lat="44.04128" lon="2.04039">
        <ele>297.67</ele>
        <time>2014-04-11T07:29:52Z</time>
      </trkpt>
      <trkpt lat="44.04105" lon="2.04025">
        <ele>298.15</ele>
        <time>2014-04-11T07:30:13Z</time>
      </trkpt>
      <trkpt lat="44.04085" lon="2.04016">
        <ele>298.15</ele>
        <time>2014-04-11T07:30:30Z</time>
      </trkpt>
      <trkpt lat="44.04066" lon="2.03996">
        <ele>298.63</ele>
        <time>2014-04-11T07:30:49Z</time>
      </trkpt>
      <trkpt lat="44.04052" lon="2.03979">
        <ele>298.63</ele>
        <time>2014-04-11T07:31:05Z</time>
      </trkpt>
      <trkpt lat="44.04037" lon="2.0396">
        <ele>298.15</ele>
        <time>2014-04-11T07:31:24Z</time>
      </trkpt>
      <trkpt lat="44.04028" lon="2.03948">
        <ele>300.07</ele>
        <time>2014-04-11T07:31:36Z</time>
      </trkpt>
      <trkpt lat="44.04015" lon="2.03922">
        <ele>299.11</ele>
        <time>2014-04-11T07:31:54Z</time>
      </trkpt>
      <trkpt lat="44.03995" lon="2.03903">
        <ele>298.63</ele>
        <time>2014-04-11T07:32:14Z</time>
      </trkpt>
      <trkpt lat="44.03974" lon="2.03894">
        <ele>298.63</ele>
        <time>2014-04-11T07:32:30Z</time>
      </trkpt>
      <trkpt lat="44.03951" lon="2.03886">
        <ele>298.15</ele>
        <time>2014-04-11T07:32:49Z</time>
      </trkpt>
      <trkpt lat="44.03929" lon="2.03881">
        <ele>297.18</ele>
        <time>2014-04-11T07:33:07Z</time>
      </trkpt>
      <trkpt lat="44.03906" lon="2.03878">
        <ele>297.67</ele>
        <time>2014-04-11T07:33:25Z</time>
      </trkpt>
      <trkpt lat="44.03893" lon="2.03878">
        <ele>296.22</ele>
        <time>2014-04-11T07:33:35Z</time>
      </trkpt>
      <trkpt lat="44.03882" lon="2.03869">
        <ele>294.78</ele>
        <time>2014-04-11T07:33:50Z</time>
      </trkpt>
      <trkpt lat="44.03882" lon="2.03869">
        <ele>297.67</ele>
        <time>2014-04-11T07:33:51Z</time>
      </trkpt>
      <trkpt lat="44.03882" lon="2.03869">
        <ele>296.22</ele>
        <time>2014-04-11T07:33:52Z</time>
      </trkpt>
      <trkpt lat="44.03888" lon="2.03856">
        <ele>296.7</ele>
        <time>2014-04-11T07:34:06Z</time>
      </trkpt>
      <trkpt lat="44.03889" lon="2.03853">
        <ele>296.22</ele>
        <time>2014-04-11T07:34:08Z</time>
      </trkpt>
      <trkpt lat="44.03894" lon="2.03819">
        <ele>296.22</ele>
        <time>2014-04-11T07:34:29Z</time>
      </trkpt>
      <trkpt lat="44.03893" lon="2.03782">
        <ele>295.74</ele>
        <time>2014-04-11T07:34:51Z</time>
      </trkpt>
      <trkpt lat="44.03891" lon="2.03776">
        <ele>293.82</ele>
        <time>2014-04-11T07:34:55Z</time>
      </trkpt>
      <trkpt lat="44.0389" lon="2.03772">
        <ele>298.15</ele>
        <time>2014-04-11T07:34:57Z</time>
      </trkpt>
      <trkpt lat="44.03889" lon="2.03771">
        <ele>297.18</ele>
        <time>2014-04-11T07:34:58Z</time>
      </trkpt>
      <trkpt lat="44.03888" lon="2.03769">
        <ele>295.26</ele>
        <time>2014-04-11T07:35:00Z</time>
      </trkpt>
      <trkpt lat="44.03875" lon="2.03742">
        <ele>296.7</ele>
        <time>2014-04-11T07:35:19Z</time>
      </trkpt>
      <trkpt lat="44.03863" lon="2.03704">
        <ele>295.74</ele>
        <time>2014-04-11T07:35:43Z</time>
      </trkpt>
      <trkpt lat="44.03862" lon="2.03695">
        <ele>295.74</ele>
        <time>2014-04-11T07:35:49Z</time>
      </trkpt>
      <trkpt lat="44.03861" lon="2.03691">
        <ele>296.7</ele>
        <time>2014-04-11T07:35:52Z</time>
      </trkpt>
      <trkpt lat="44.03858" lon="2.03671">
        <ele>293.34</ele>
        <time>2014-04-11T07:36:04Z</time>
      </trkpt>
      <trkpt lat="44.03858" lon="2.0367">
        <ele>296.7</ele>
        <time>2014-04-11T07:36:05Z</time>
      </trkpt>
      <trkpt lat="44.03857" lon="2.03645">
        <ele>295.26</ele>
        <time>2014-04-11T07:36:19Z</time>
      </trkpt>
      <trkpt lat="44.03857" lon="2.03637">
        <ele>295.26</ele>
        <time>2014-04-11T07:36:25Z</time>
      </trkpt>
      <trkpt lat="44.03858" lon="2.03608">
        <ele>294.78</ele>
        <time>2014-04-11T07:36:41Z</time>
      </trkpt>
      <trkpt lat="44.0386" lon="2.03585">
        <ele>294.3</ele>
        <time>2014-04-11T07:36:55Z</time>
      </trkpt>
      <trkpt lat="44.03863" lon="2.03565">
        <ele>293.34</ele>
        <time>2014-04-11T07:37:08Z</time>
      </trkpt>
      <trkpt lat="44.03862" lon="2.0355">
        <ele>292.86</ele>
        <time>2014-04-11T07:37:17Z</time>
      </trkpt>
      <trkpt lat="44.03855" lon="2.03539">
        <ele>292.38</ele>
        <time>2014-04-11T07:37:25Z</time>
      </trkpt>
      <trkpt lat="44.03832" lon="2.03535">
        <ele>293.34</ele>
        <time>2014-04-11T07:37:45Z</time>
      </trkpt>
      <trkpt lat="44.03809" lon="2.03528">
        <ele>295.26</ele>
        <time>2014-04-11T07:38:06Z</time>
      </trkpt>
      <trkpt lat="44.03801" lon="2.0352">
        <ele>295.26</ele>
        <time>2014-04-11T07:38:15Z</time>
      </trkpt>
      <trkpt lat="44.03779" lon="2.03503">
        <ele>296.7</ele>
        <time>2014-04-11T07:38:34Z</time>
      </trkpt>
      <trkpt lat="44.0376" lon="2.03495">
        <ele>297.18</ele>
        <time>2014-04-11T07:38:50Z</time>
      </trkpt>
      <trkpt lat="44.03759" lon="2.0349">
        <ele>297.67</ele>
        <time>2014-04-11T07:38:54Z</time>
      </trkpt>
      <trkpt lat="44.03764" lon="2.03479">
        <ele>298.15</ele>
        <time>2014-04-11T07:39:02Z</time>
      </trkpt>
      <trkpt lat="44.03773" lon="2.03466">
        <ele>298.63</ele>
        <time>2014-04-11T07:39:14Z</time>
      </trkpt>
      <trkpt lat="44.03779" lon="2.03457">
        <ele>298.63</ele>
        <time>2014-04-11T07:39:21Z</time>
      </trkpt>
      <trkpt lat="44.0379" lon="2.03441">
        <ele>298.63</ele>
        <time>2014-04-11T07:39:34Z</time>
      </trkpt>
      <trkpt lat="44.03798" lon="2.03427">
        <ele>299.11</ele>
        <time>2014-04-11T07:39:44Z</time>
      </trkpt>
      <trkpt lat="44.03811" lon="2.03411">
        <ele>298.63</ele>
        <time>2014-04-11T07:39:58Z</time>
      </trkpt>
      <trkpt lat="44.03812" lon="2.03409">
        <ele>298.63</ele>
        <time>2014-04-11T07:40:00Z</time>
      </trkpt>
      <trkpt lat="44.03817" lon="2.034">
        <ele>298.63</ele>
        <time>2014-04-11T07:40:07Z</time>
      </trkpt>
      <trkpt lat="44.0383" lon="2.03381">
        <ele>298.63</ele>
        <time>2014-04-11T07:40:22Z</time>
      </trkpt>
      <trkpt lat="44.0383" lon="2.0338">
        <ele>298.63</ele>
        <time>2014-04-11T07:40:23Z</time>
      </trkpt>
      <trkpt lat="44.0384" lon="2.0337">
        <ele>298.63</ele>
        <time>2014-04-11T07:40:34Z</time>
      </trkpt>
      <trkpt lat="44.03851" lon="2.03359">
        <ele>298.63</ele>
        <time>2014-04-11T07:40:46Z</time>
      </trkpt>
      <trkpt lat="44.03854" lon="2.03355">
        <ele>299.11</ele>
        <time>2014-04-11T07:40:49Z</time>
      </trkpt>
      <trkpt lat="44.03868" lon="2.03336">
        <ele>299.59</ele>
        <time>2014-04-11T07:41:05Z</time>
      </trkpt>
      <trkpt lat="44.0387" lon="2.03331">
        <ele>299.59</ele>
        <time>2014-04-11T07:41:08Z</time>
      </trkpt>
      <trkpt lat="44.03877" lon="2.03326">
        <ele>299.59</ele>
        <time>2014-04-11T07:41:14Z</time>
      </trkpt>
      <trkpt lat="44.0389" lon="2.03312">
        <ele>300.07</ele>
        <time>2014-04-11T07:41:28Z</time>
      </trkpt>
      <trkpt lat="44.039" lon="2.033">
        <ele>300.07</ele>
        <time>2014-04-11T07:41:40Z</time>
      </trkpt>
      <trkpt lat="44.03913" lon="2.03285">
        <ele>300.07</ele>
        <time>2014-04-11T07:41:53Z</time>
      </trkpt>
      <trkpt lat="44.03926" lon="2.03266">
        <ele>300.07</ele>
        <time>2014-04-11T07:42:09Z</time>
      </trkpt>
      <trkpt lat="44.03931" lon="2.0326">
        <ele>300.07</ele>
        <time>2014-04-11T07:42:15Z</time>
      </trkpt>
      <trkpt lat="44.03933" lon="2.03259">
        <ele>300.07</ele>
        <time>2014-04-11T07:42:17Z</time>
      </trkpt>
      <trkpt lat="44.03946" lon="2.03246">
        <ele>300.07</ele>
        <time>2014-04-11T07:42:32Z</time>
      </trkpt>
      <trkpt lat="44.03964" lon="2.03222">
        <ele>300.55</ele>
        <time>2014-04-11T07:42:52Z</time>
      </trkpt>
      <trkpt lat="44.0398" lon="2.03202">
        <ele>301.51</ele>
        <time>2014-04-11T07:43:13Z</time>
      </trkpt>
      <trkpt lat="44.03996" lon="2.03181">
        <ele>302.47</ele>
        <time>2014-04-11T07:43:32Z</time>
      </trkpt>
      <trkpt lat="44.04015" lon="2.03155">
        <ele>302.95</ele>
        <time>2014-04-11T07:43:53Z</time>
      </trkpt>
      <trkpt lat="44.04027" lon="2.03133">
        <ele>304.39</ele>
        <time>2014-04-11T07:44:10Z</time>
      </trkpt>
      <trkpt lat="44.04037" lon="2.03115">
        <ele>305.36</ele>
        <time>2014-04-11T07:44:25Z</time>
      </trkpt>
      <trkpt lat="44.0405" lon="2.031">
        <ele>306.8</ele>
        <time>2014-04-11T07:44:39Z</time>
      </trkpt>
      <trkpt lat="44.04057" lon="2.0309">
        <ele>307.28</ele>
        <time>2014-04-11T07:44:46Z</time>
      </trkpt>
      <trkpt lat="44.04069" lon="2.03075">
        <ele>308.72</ele>
        <time>2014-04-11T07:45:00Z</time>
      </trkpt>
      <trkpt lat="44.04078" lon="2.03065">
        <ele>309.68</ele>
        <time>2014-04-11T07:45:11Z</time>
      </trkpt>
      <trkpt lat="44.04088" lon="2.03054">
        <ele>311.12</ele>
        <time>2014-04-11T07:45:22Z</time>
      </trkpt>
      <trkpt lat="44.04089" lon="2.03053">
        <ele>311.12</ele>
        <time>2014-04-11T07:45:23Z</time>
      </trkpt>
      <trkpt lat="44.04096" lon="2.03048">
        <ele>312.09</ele>
        <time>2014-04-11T07:45:31Z</time>
      </trkpt>
      <trkpt lat="44.04105" lon="2.0304">
        <ele>311.6</ele>
        <time>2014-04-11T07:45:40Z</time>
      </trkpt>
      <trkpt lat="44.04116" lon="2.0303">
        <ele>312.57</ele>
        <time>2014-04-11T07:45:51Z</time>
      </trkpt>
      <trkpt lat="44.04126" lon="2.03019">
        <ele>312.09</ele>
        <time>2014-04-11T07:46:02Z</time>
      </trkpt>
      <trkpt lat="44.0414" lon="2.03002">
        <ele>313.05</ele>
        <time>2014-04-11T07:46:18Z</time>
      </trkpt>
      <trkpt lat="44.0415" lon="2.02987">
        <ele>313.53</ele>
        <time>2014-04-11T07:46:31Z</time>
      </trkpt>
      <trkpt lat="44.04151" lon="2.02965">
        <ele>314.97</ele>
        <time>2014-04-11T07:46:45Z</time>
      </trkpt>
      <trkpt lat="44.04149" lon="2.02952">
        <ele>315.93</ele>
        <time>2014-04-11T07:46:54Z</time>
      </trkpt>
      <trkpt lat="44.04153" lon="2.02945">
        <ele>315.93</ele>
        <time>2014-04-11T07:47:05Z</time>
      </trkpt>
      <trkpt lat="44.04154" lon="2.02944">
        <ele>315.45</ele>
        <time>2014-04-11T07:47:10Z</time>
      </trkpt>
      <trkpt lat="44.04175" lon="2.02939">
        <ele>315.93</ele>
        <time>2014-04-11T07:47:29Z</time>
      </trkpt>
      <trkpt lat="44.04192" lon="2.02937">
        <ele>316.41</ele>
        <time>2014-04-11T07:47:43Z</time>
      </trkpt>
      <trkpt lat="44.04211" lon="2.02934">
        <ele>316.41</ele>
        <time>2014-04-11T07:47:59Z</time>
      </trkpt>
      <trkpt lat="44.04232" lon="2.02929">
        <ele>316.89</ele>
        <time>2014-04-11T07:48:17Z</time>
      </trkpt>
      <trkpt lat="44.04244" lon="2.02926">
        <ele>317.37</ele>
        <time>2014-04-11T07:48:28Z</time>
      </trkpt>
      <trkpt lat="44.04254" lon="2.02923">
        <ele>316.89</ele>
        <time>2014-04-11T07:48:40Z</time>
      </trkpt>
      <trkpt lat="44.04258" lon="2.02922">
        <ele>317.37</ele>
        <time>2014-04-11T07:48:44Z</time>
      </trkpt>
      <trkpt lat="44.04272" lon="2.02918">
        <ele>317.37</ele>
        <time>2014-04-11T07:48:57Z</time>
      </trkpt>
      <trkpt lat="44.04288" lon="2.0291">
        <ele>317.37</ele>
        <time>2014-04-11T07:49:11Z</time>
      </trkpt>
      <trkpt lat="44.04305" lon="2.02901">
        <ele>317.37</ele>
        <time>2014-04-11T07:49:26Z</time>
      </trkpt>
      <trkpt lat="44.04325" lon="2.02892">
        <ele>317.37</ele>
        <time>2014-04-11T07:49:43Z</time>
      </trkpt>
      <trkpt lat="44.04341" lon="2.02882">
        <ele>317.37</ele>
        <time>2014-04-11T07:49:57Z</time>
      </trkpt>
      <trkpt lat="44.04363" lon="2.02869">
        <ele>317.37</ele>
        <time>2014-04-11T07:50:16Z</time>
      </trkpt>
      <trkpt lat="44.04364" lon="2.02868">
        <ele>317.37</ele>
        <time>2014-04-11T07:50:17Z</time>
      </trkpt>
      <trkpt lat="44.04379" lon="2.02859">
        <ele>317.37</ele>
        <time>2014-04-11T07:50:31Z</time>
      </trkpt>
      <trkpt lat="44.04403" lon="2.02859">
        <ele>316.89</ele>
        <time>2014-04-11T07:50:51Z</time>
      </trkpt>
      <trkpt lat="44.04427" lon="2.02863">
        <ele>316.89</ele>
        <time>2014-04-11T07:51:11Z</time>
      </trkpt>
      <trkpt lat="44.0445" lon="2.02877">
        <ele>317.37</ele>
        <time>2014-04-11T07:51:33Z</time>
      </trkpt>
      <trkpt lat="44.04471" lon="2.02886">
        <ele>317.37</ele>
        <time>2014-04-11T07:51:53Z</time>
      </trkpt>
      <trkpt lat="44.04492" lon="2.02896">
        <ele>317.37</ele>
        <time>2014-04-11T07:52:11Z</time>
      </trkpt>
      <trkpt lat="44.04516" lon="2.029">
        <ele>317.85</ele>
        <time>2014-04-11T07:52:31Z</time>
      </trkpt>
      <trkpt lat="44.04543" lon="2.02898">
        <ele>317.85</ele>
        <time>2014-04-11T07:52:53Z</time>
      </trkpt>
      <trkpt lat="44.04569" lon="2.02896">
        <ele>318.33</ele>
        <time>2014-04-11T07:53:15Z</time>
      </trkpt>
      <trkpt lat="44.04595" lon="2.02896">
        <ele>319.3</ele>
        <time>2014-04-11T07:53:36Z</time>
      </trkpt>
      <trkpt lat="44.04619" lon="2.02895">
        <ele>319.78</ele>
        <time>2014-04-11T07:53:57Z</time>
      </trkpt>
      <trkpt lat="44.04642" lon="2.02895">
        <ele>320.74</ele>
        <time>2014-04-11T07:54:16Z</time>
      </trkpt>
      <trkpt lat="44.04664" lon="2.02895">
        <ele>321.7</ele>
        <time>2014-04-11T07:54:33Z</time>
      </trkpt>
      <trkpt lat="44.04685" lon="2.02896">
        <ele>322.66</ele>
        <time>2014-04-11T07:54:51Z</time>
      </trkpt>
      <trkpt lat="44.04708" lon="2.02898">
        <ele>323.14</ele>
        <time>2014-04-11T07:55:13Z</time>
      </trkpt>
      <trkpt lat="44.04727" lon="2.02905">
        <ele>321.7</ele>
        <time>2014-04-11T07:55:28Z</time>
      </trkpt>
      <trkpt lat="44.0473" lon="2.02905">
        <ele>321.7</ele>
        <time>2014-04-11T07:55:32Z</time>
      </trkpt>
      <trkpt lat="44.04732" lon="2.02906">
        <ele>321.22</ele>
        <time>2014-04-11T07:55:34Z</time>
      </trkpt>
      <trkpt lat="44.04742" lon="2.02912">
        <ele>320.74</ele>
        <time>2014-04-11T07:55:43Z</time>
      </trkpt>
      <trkpt lat="44.04745" lon="2.02914">
        <ele>320.74</ele>
        <time>2014-04-11T07:55:46Z</time>
      </trkpt>
      <trkpt lat="44.04761" lon="2.0292">
        <ele>315.45</ele>
        <time>2014-04-11T07:55:58Z</time>
      </trkpt>
      <trkpt lat="44.04762" lon="2.0292">
        <ele>322.66</ele>
        <time>2014-04-11T07:55:59Z</time>
      </trkpt>
      <trkpt lat="44.04763" lon="2.02921">
        <ele>322.18</ele>
        <time>2014-04-11T07:56:00Z</time>
      </trkpt>
      <trkpt lat="44.04766" lon="2.02922">
        <ele>320.26</ele>
        <time>2014-04-11T07:56:02Z</time>
      </trkpt>
      <trkpt lat="44.04785" lon="2.02929">
        <ele>319.3</ele>
        <time>2014-04-11T07:56:17Z</time>
      </trkpt>
      <trkpt lat="44.04792" lon="2.02932">
        <ele>319.3</ele>
        <time>2014-04-11T07:56:23Z</time>
      </trkpt>
      <trkpt lat="44.04797" lon="2.02931">
        <ele>319.3</ele>
        <time>2014-04-11T07:56:28Z</time>
      </trkpt>
      <trkpt lat="44.04808" lon="2.02915">
        <ele>317.85</ele>
        <time>2014-04-11T07:56:41Z</time>
      </trkpt>
      <trkpt lat="44.04822" lon="2.02894">
        <ele>316.89</ele>
        <time>2014-04-11T07:56:58Z</time>
      </trkpt>
      <trkpt lat="44.04845" lon="2.02878">
        <ele>316.41</ele>
        <time>2014-04-11T07:57:22Z</time>
      </trkpt>
      <trkpt lat="44.04862" lon="2.02865">
        <ele>316.41</ele>
        <time>2014-04-11T07:57:40Z</time>
      </trkpt>
      <trkpt lat="44.04885" lon="2.02849">
        <ele>315.93</ele>
        <time>2014-04-11T07:58:04Z</time>
      </trkpt>
      <trkpt lat="44.04894" lon="2.02794">
        <ele>315.45</ele>
        <time>2014-04-11T07:58:24Z</time>
      </trkpt>
      <trkpt lat="44.04894" lon="2.02787">
        <ele>315.45</ele>
        <time>2014-04-11T07:58:26Z</time>
      </trkpt>
      <trkpt lat="44.04905" lon="2.02764">
        <ele>315.93</ele>
        <time>2014-04-11T07:58:43Z</time>
      </trkpt>
      <trkpt lat="44.04915" lon="2.02743">
        <ele>314.01</ele>
        <time>2014-04-11T07:58:59Z</time>
      </trkpt>
      <trkpt lat="44.04914" lon="2.02736">
        <ele>314.49</ele>
        <time>2014-04-11T07:59:10Z</time>
      </trkpt>
      <trkpt lat="44.04915" lon="2.02732">
        <ele>314.01</ele>
        <time>2014-04-11T07:59:13Z</time>
      </trkpt>
      <trkpt lat="44.04917" lon="2.02727">
        <ele>314.01</ele>
        <time>2014-04-11T07:59:17Z</time>
      </trkpt>
      <trkpt lat="44.04927" lon="2.02707">
        <ele>313.05</ele>
        <time>2014-04-11T07:59:32Z</time>
      </trkpt>
      <trkpt lat="44.04939" lon="2.0269">
        <ele>313.05</ele>
        <time>2014-04-11T07:59:47Z</time>
      </trkpt>
      <trkpt lat="44.04946" lon="2.02681">
        <ele>313.05</ele>
        <time>2014-04-11T07:59:55Z</time>
      </trkpt>
      <trkpt lat="44.04952" lon="2.02676">
        <ele>313.05</ele>
        <time>2014-04-11T08:00:03Z</time>
      </trkpt>
      <trkpt lat="44.04966" lon="2.02665">
        <ele>313.05</ele>
        <time>2014-04-11T08:00:15Z</time>
      </trkpt>
      <trkpt lat="44.04977" lon="2.02655">
        <ele>313.53</ele>
        <time>2014-04-11T08:00:26Z</time>
      </trkpt>
      <trkpt lat="44.0498" lon="2.02649">
        <ele>313.53</ele>
        <time>2014-04-11T08:00:29Z</time>
      </trkpt>
      <trkpt lat="44.04983" lon="2.02645">
        <ele>313.05</ele>
        <time>2014-04-11T08:00:32Z</time>
      </trkpt>
      <trkpt lat="44.04992" lon="2.02629">
        <ele>313.53</ele>
        <time>2014-04-11T08:00:44Z</time>
      </trkpt>
      <trkpt lat="44.04997" lon="2.02614">
        <ele>313.53</ele>
        <time>2014-04-11T08:00:54Z</time>
      </trkpt>
      <trkpt lat="44.05002" lon="2.0259">
        <ele>313.53</ele>
        <time>2014-04-11T08:01:06Z</time>
      </trkpt>
      <trkpt lat="44.05004" lon="2.02581">
        <ele>313.53</ele>
        <time>2014-04-11T08:01:13Z</time>
      </trkpt>
      <trkpt lat="44.05009" lon="2.02569">
        <ele>313.05</ele>
        <time>2014-04-11T08:01:21Z</time>
      </trkpt>
      <trkpt lat="44.05014" lon="2.02561">
        <ele>313.53</ele>
        <time>2014-04-11T08:01:28Z</time>
      </trkpt>
      <trkpt lat="44.05015" lon="2.02555">
        <ele>313.05</ele>
        <time>2014-04-11T08:01:32Z</time>
      </trkpt>
      <trkpt lat="44.05018" lon="2.02552">
        <ele>313.53</ele>
        <time>2014-04-11T08:01:36Z</time>
      </trkpt>
      <trkpt lat="44.05024" lon="2.02545">
        <ele>313.05</ele>
        <time>2014-04-11T08:01:42Z</time>
      </trkpt>
      <trkpt lat="44.05029" lon="2.02542">
        <ele>313.05</ele>
        <time>2014-04-11T08:01:46Z</time>
      </trkpt>
      <trkpt lat="44.05031" lon="2.02538">
        <ele>313.05</ele>
        <time>2014-04-11T08:01:49Z</time>
      </trkpt>
      <trkpt lat="44.05031" lon="2.02525">
        <ele>313.05</ele>
        <time>2014-04-11T08:01:54Z</time>
      </trkpt>
      <trkpt lat="44.05031" lon="2.02517">
        <ele>312.57</ele>
        <time>2014-04-11T08:01:57Z</time>
      </trkpt>
      <trkpt lat="44.05039" lon="2.02496">
        <ele>312.57</ele>
        <time>2014-04-11T08:02:09Z</time>
      </trkpt>
      <trkpt lat="44.05039" lon="2.02494">
        <ele>312.57</ele>
        <time>2014-04-11T08:02:10Z</time>
      </trkpt>
      <trkpt lat="44.05046" lon="2.02473">
        <ele>311.6</ele>
        <time>2014-04-11T08:02:23Z</time>
      </trkpt>
      <trkpt lat="44.05056" lon="2.0246">
        <ele>311.6</ele>
        <time>2014-04-11T08:02:36Z</time>
      </trkpt>
      <trkpt lat="44.05054" lon="2.02457">
        <ele>311.6</ele>
        <time>2014-04-11T08:02:49Z</time>
      </trkpt>
      <trkpt lat="44.05046" lon="2.02446">
        <ele>311.6</ele>
        <time>2014-04-11T08:03:01Z</time>
      </trkpt>
      <trkpt lat="44.05045" lon="2.02446">
        <ele>311.6</ele>
        <time>2014-04-11T08:03:19Z</time>
      </trkpt>
      <trkpt lat="44.05045" lon="2.02441">
        <ele>311.12</ele>
        <time>2014-04-11T08:03:27Z</time>
      </trkpt>
      <trkpt lat="44.05046" lon="2.02421">
        <ele>310.64</ele>
        <time>2014-04-11T08:03:38Z</time>
      </trkpt>
      <trkpt lat="44.05051" lon="2.02407">
        <ele>310.16</ele>
        <time>2014-04-11T08:03:47Z</time>
      </trkpt>
      <trkpt lat="44.05052" lon="2.02401">
        <ele>310.16</ele>
        <time>2014-04-11T08:03:51Z</time>
      </trkpt>
      <trkpt lat="44.05061" lon="2.02377">
        <ele>309.2</ele>
        <time>2014-04-11T08:04:06Z</time>
      </trkpt>
      <trkpt lat="44.05067" lon="2.02353">
        <ele>308.24</ele>
        <time>2014-04-11T08:04:20Z</time>
      </trkpt>
      <trkpt lat="44.05075" lon="2.02331">
        <ele>307.28</ele>
        <time>2014-04-11T08:04:36Z</time>
      </trkpt>
      <trkpt lat="44.05081" lon="2.02311">
        <ele>306.8</ele>
        <time>2014-04-11T08:04:48Z</time>
      </trkpt>
      <trkpt lat="44.0509" lon="2.02289">
        <ele>306.32</ele>
        <time>2014-04-11T08:05:04Z</time>
      </trkpt>
      <trkpt lat="44.05094" lon="2.02267">
        <ele>306.32</ele>
        <time>2014-04-11T08:05:16Z</time>
      </trkpt>
      <trkpt lat="44.051" lon="2.02247">
        <ele>305.84</ele>
        <time>2014-04-11T08:05:29Z</time>
      </trkpt>
      <trkpt lat="44.05104" lon="2.02224">
        <ele>305.84</ele>
        <time>2014-04-11T08:05:43Z</time>
      </trkpt>
      <trkpt lat="44.05107" lon="2.02218">
        <ele>305.84</ele>
        <time>2014-04-11T08:05:47Z</time>
      </trkpt>
      <trkpt lat="44.0511" lon="2.02206">
        <ele>305.84</ele>
        <time>2014-04-11T08:05:57Z</time>
      </trkpt>
      <trkpt lat="44.05111" lon="2.02203">
        <ele>306.32</ele>
        <time>2014-04-11T08:06:05Z</time>
      </trkpt>
      <trkpt lat="44.05112" lon="2.02208">
        <ele>305.84</ele>
        <time>2014-04-11T08:06:16Z</time>
      </trkpt>
      <trkpt lat="44.05111" lon="2.02209">
        <ele>305.84</ele>
        <time>2014-04-11T08:06:22Z</time>
      </trkpt>
      <trkpt lat="44.05112" lon="2.02206">
        <ele>305.84</ele>
        <time>2014-04-11T08:06:24Z</time>
      </trkpt>
      <trkpt lat="44.05117" lon="2.02191">
        <ele>305.84</ele>
        <time>2014-04-11T08:06:34Z</time>
      </trkpt>
      <trkpt lat="44.05118" lon="2.02186">
        <ele>305.84</ele>
        <time>2014-04-11T08:06:38Z</time>
      </trkpt>
      <trkpt lat="44.0512" lon="2.02169">
        <ele>305.84</ele>
        <time>2014-04-11T08:06:48Z</time>
      </trkpt>
      <trkpt lat="44.05123" lon="2.02152">
        <ele>305.84</ele>
        <time>2014-04-11T08:06:59Z</time>
      </trkpt>
      <trkpt lat="44.05129" lon="2.02135">
        <ele>305.84</ele>
        <time>2014-04-11T08:07:10Z</time>
      </trkpt>
      <trkpt lat="44.05135" lon="2.02124">
        <ele>305.84</ele>
        <time>2014-04-11T08:07:18Z</time>
      </trkpt>
      <trkpt lat="44.05139" lon="2.02119">
        <ele>305.84</ele>
        <time>2014-04-11T08:07:30Z</time>
      </trkpt>
      <trkpt lat="44.05137" lon="2.02116">
        <ele>305.36</ele>
        <time>2014-04-11T08:07:51Z</time>
      </trkpt>
      <trkpt lat="44.0514" lon="2.02111">
        <ele>305.84</ele>
        <time>2014-04-11T08:08:09Z</time>
      </trkpt>
      <trkpt lat="44.05149" lon="2.0209">
        <ele>305.84</ele>
        <time>2014-04-11T08:08:26Z</time>
      </trkpt>
      <trkpt lat="44.05158" lon="2.02074">
        <ele>306.32</ele>
        <time>2014-04-11T08:08:36Z</time>
      </trkpt>
      <trkpt lat="44.05158" lon="2.02073">
        <ele>306.32</ele>
        <time>2014-04-11T08:08:37Z</time>
      </trkpt>
      <trkpt lat="44.05166" lon="2.02057">
        <ele>306.8</ele>
        <time>2014-04-11T08:08:49Z</time>
      </trkpt>
      <trkpt lat="44.0517" lon="2.0205">
        <ele>306.8</ele>
        <time>2014-04-11T08:08:56Z</time>
      </trkpt>
      <trkpt lat="44.05171" lon="2.02044">
        <ele>306.8</ele>
        <time>2014-04-11T08:09:00Z</time>
      </trkpt>
      <trkpt lat="44.05176" lon="2.02035">
        <ele>306.8</ele>
        <time>2014-04-11T08:09:07Z</time>
      </trkpt>
      <trkpt lat="44.05183" lon="2.02017">
        <ele>306.8</ele>
        <time>2014-04-11T08:09:20Z</time>
      </trkpt>
      <trkpt lat="44.0519" lon="2.02">
        <ele>306.8</ele>
        <time>2014-04-11T08:09:32Z</time>
      </trkpt>
      <trkpt lat="44.05191" lon="2.01998">
        <ele>306.8</ele>
        <time>2014-04-11T08:09:34Z</time>
      </trkpt>
      <trkpt lat="44.05202" lon="2.01972">
        <ele>307.28</ele>
        <time>2014-04-11T08:09:52Z</time>
      </trkpt>
      <trkpt lat="44.05202" lon="2.0197">
        <ele>307.28</ele>
        <time>2014-04-11T08:09:53Z</time>
      </trkpt>
      <trkpt lat="44.05211" lon="2.01945">
        <ele>308.72</ele>
        <time>2014-04-11T08:10:10Z</time>
      </trkpt>
      <trkpt lat="44.05218" lon="2.01922">
        <ele>308.24</ele>
        <time>2014-04-11T08:10:26Z</time>
      </trkpt>
      <trkpt lat="44.05229" lon="2.01892">
        <ele>310.64</ele>
        <time>2014-04-11T08:10:47Z</time>
      </trkpt>
      <trkpt lat="44.0524" lon="2.01864">
        <ele>312.09</ele>
        <time>2014-04-11T08:11:07Z</time>
      </trkpt>
      <trkpt lat="44.05253" lon="2.01835">
        <ele>312.57</ele>
        <time>2014-04-11T08:11:28Z</time>
      </trkpt>
      <trkpt lat="44.05262" lon="2.01806">
        <ele>314.49</ele>
        <time>2014-04-11T08:11:48Z</time>
      </trkpt>
      <trkpt lat="44.05274" lon="2.01773">
        <ele>314.97</ele>
        <time>2014-04-11T08:12:12Z</time>
      </trkpt>
      <trkpt lat="44.05284" lon="2.0174">
        <ele>314.97</ele>
        <time>2014-04-11T08:12:35Z</time>
      </trkpt>
      <trkpt lat="44.05279" lon="2.01732">
        <ele>315.93</ele>
        <time>2014-04-11T08:12:43Z</time>
      </trkpt>
      <trkpt lat="44.05263" lon="2.01714">
        <ele>316.89</ele>
        <time>2014-04-11T08:13:01Z</time>
      </trkpt>
      <trkpt lat="44.05259" lon="2.0171">
        <ele>317.37</ele>
        <time>2014-04-11T08:13:05Z</time>
      </trkpt>
      <trkpt lat="44.05248" lon="2.01696">
        <ele>317.37</ele>
        <time>2014-04-11T08:13:18Z</time>
      </trkpt>
      <trkpt lat="44.05241" lon="2.01692">
        <ele>317.37</ele>
        <time>2014-04-11T08:13:25Z</time>
      </trkpt>
      <trkpt lat="44.05239" lon="2.0169">
        <ele>317.37</ele>
        <time>2014-04-11T08:13:28Z</time>
      </trkpt>
      <trkpt lat="44.05237" lon="2.01688">
        <ele>317.37</ele>
        <time>2014-04-11T08:13:30Z</time>
      </trkpt>
      <trkpt lat="44.05234" lon="2.01686">
        <ele>316.89</ele>
        <time>2014-04-11T08:13:33Z</time>
      </trkpt>
      <trkpt lat="44.05232" lon="2.01683">
        <ele>316.89</ele>
        <time>2014-04-11T08:13:36Z</time>
      </trkpt>
      <trkpt lat="44.05223" lon="2.01669">
        <ele>316.89</ele>
        <time>2014-04-11T08:13:47Z</time>
      </trkpt>
      <trkpt lat="44.05222" lon="2.01667">
        <ele>316.89</ele>
        <time>2014-04-11T08:13:49Z</time>
      </trkpt>
      <trkpt lat="44.05212" lon="2.01656">
        <ele>316.41</ele>
        <time>2014-04-11T08:14:00Z</time>
      </trkpt>
      <trkpt lat="44.052" lon="2.01641">
        <ele>315.93</ele>
        <time>2014-04-11T08:14:13Z</time>
      </trkpt>
      <trkpt lat="44.05192" lon="2.01634">
        <ele>315.93</ele>
        <time>2014-04-11T08:14:21Z</time>
      </trkpt>
      <trkpt lat="44.05191" lon="2.0163">
        <ele>315.93</ele>
        <time>2014-04-11T08:14:24Z</time>
      </trkpt>
      <trkpt lat="44.05185" lon="2.01624">
        <ele>315.93</ele>
        <time>2014-04-11T08:14:30Z</time>
      </trkpt>
      <trkpt lat="44.05172" lon="2.0161">
        <ele>315.93</ele>
        <time>2014-04-11T08:14:44Z</time>
      </trkpt>
      <trkpt lat="44.05157" lon="2.01596">
        <ele>315.93</ele>
        <time>2014-04-11T08:15:00Z</time>
      </trkpt>
      <trkpt lat="44.05147" lon="2.01581">
        <ele>315.45</ele>
        <time>2014-04-11T08:15:14Z</time>
      </trkpt>
      <trkpt lat="44.05145" lon="2.0158">
        <ele>315.45</ele>
        <time>2014-04-11T08:15:19Z</time>
      </trkpt>
      <trkpt lat="44.05142" lon="2.01578">
        <ele>315.93</ele>
        <time>2014-04-11T08:15:23Z</time>
      </trkpt>
      <trkpt lat="44.05138" lon="2.01577">
        <ele>315.93</ele>
        <time>2014-04-11T08:15:27Z</time>
      </trkpt>
      <trkpt lat="44.05135" lon="2.01577">
        <ele>315.93</ele>
        <time>2014-04-11T08:15:30Z</time>
      </trkpt>
      <trkpt lat="44.05126" lon="2.01569">
        <ele>315.45</ele>
        <time>2014-04-11T08:15:42Z</time>
      </trkpt>
      <trkpt lat="44.05125" lon="2.01566">
        <ele>315.93</ele>
        <time>2014-04-11T08:15:44Z</time>
      </trkpt>
      <trkpt lat="44.05121" lon="2.01558">
        <ele>315.93</ele>
        <time>2014-04-11T08:15:50Z</time>
      </trkpt>
      <trkpt lat="44.05118" lon="2.01552">
        <ele>315.93</ele>
        <time>2014-04-11T08:15:54Z</time>
      </trkpt>
      <trkpt lat="44.05108" lon="2.01542">
        <ele>315.93</ele>
        <time>2014-04-11T08:16:06Z</time>
      </trkpt>
      <trkpt lat="44.05105" lon="2.01535">
        <ele>315.93</ele>
        <time>2014-04-11T08:16:11Z</time>
      </trkpt>
      <trkpt lat="44.05103" lon="2.01531">
        <ele>315.93</ele>
        <time>2014-04-11T08:16:19Z</time>
      </trkpt>
      <trkpt lat="44.05095" lon="2.01523">
        <ele>315.93</ele>
        <time>2014-04-11T08:16:30Z</time>
      </trkpt>
      <trkpt lat="44.05093" lon="2.0152">
        <ele>315.93</ele>
        <time>2014-04-11T08:16:33Z</time>
      </trkpt>
      <trkpt lat="44.05088" lon="2.01515">
        <ele>315.93</ele>
        <time>2014-04-11T08:16:38Z</time>
      </trkpt>
      <trkpt lat="44.05087" lon="2.01513">
        <ele>315.93</ele>
        <time>2014-04-11T08:16:40Z</time>
      </trkpt>
      <trkpt lat="44.05077" lon="2.01495">
        <ele>315.45</ele>
        <time>2014-04-11T08:16:54Z</time>
      </trkpt>
      <trkpt lat="44.05076" lon="2.01494">
        <ele>315.45</ele>
        <time>2014-04-11T08:16:55Z</time>
      </trkpt>
      <trkpt lat="44.05071" lon="2.01487">
        <ele>314.97</ele>
        <time>2014-04-11T08:17:08Z</time>
      </trkpt>
      <trkpt lat="44.05071" lon="2.01488">
        <ele>314.01</ele>
        <time>2014-04-11T08:17:22Z</time>
      </trkpt>
      <trkpt lat="44.05071" lon="2.01489">
        <ele>314.49</ele>
        <time>2014-04-11T08:17:55Z</time>
      </trkpt>
      <trkpt lat="44.05071" lon="2.01489">
        <ele>314.49</ele>
        <time>2014-04-11T08:18:27Z</time>
      </trkpt>
      <trkpt lat="44.05071" lon="2.01489">
        <ele>314.49</ele>
        <time>2014-04-11T08:18:57Z</time>
      </trkpt>
      <trkpt lat="44.05071" lon="2.01488">
        <ele>314.49</ele>
        <time>2014-04-11T08:19:29Z</time>
      </trkpt>
      <trkpt lat="44.05071" lon="2.01489">
        <ele>314.49</ele>
        <time>2014-04-11T08:20:01Z</time>
      </trkpt>
      <trkpt lat="44.05071" lon="2.01488">
        <ele>314.49</ele>
        <time>2014-04-11T08:20:33Z</time>
      </trkpt>
      <trkpt lat="44.0507" lon="2.01488">
        <ele>314.97</ele>
        <time>2014-04-11T08:21:04Z</time>
      </trkpt>
      <trkpt lat="44.05071" lon="2.01488">
        <ele>314.97</ele>
        <time>2014-04-11T08:21:34Z</time>
      </trkpt>
      <trkpt lat="44.05071" lon="2.01488">
        <ele>315.45</ele>
        <time>2014-04-11T08:22:00Z</time>
      </trkpt>
      <trkpt lat="44.0507" lon="2.01488">
        <ele>314.97</ele>
        <time>2014-04-11T08:22:09Z</time>
      </trkpt>
      <trkpt lat="44.05069" lon="2.01489">
        <ele>315.93</ele>
        <time>2014-04-11T08:22:19Z</time>
      </trkpt>
      <trkpt lat="44.05068" lon="2.01487">
        <ele>315.93</ele>
        <time>2014-04-11T08:22:36Z</time>
      </trkpt>
      <trkpt lat="44.05068" lon="2.01487">
        <ele>316.41</ele>
        <time>2014-04-11T08:22:39Z</time>
      </trkpt>
      <trkpt lat="44.05069" lon="2.01483">
        <ele>315.93</ele>
        <time>2014-04-11T08:22:52Z</time>
      </trkpt>
      <trkpt lat="44.05069" lon="2.01483">
        <ele>315.93</ele>
        <time>2014-04-11T08:23:18Z</time>
      </trkpt>
      <trkpt lat="44.05068" lon="2.01478">
        <ele>315.93</ele>
        <time>2014-04-11T08:23:36Z</time>
      </trkpt>
      <trkpt lat="44.05068" lon="2.01477">
        <ele>315.45</ele>
        <time>2014-04-11T08:23:37Z</time>
      </trkpt>
      <trkpt lat="44.05065" lon="2.01473">
        <ele>315.45</ele>
        <time>2014-04-11T08:23:40Z</time>
      </trkpt>
      <trkpt lat="44.05059" lon="2.01462">
        <ele>315.45</ele>
        <time>2014-04-11T08:23:50Z</time>
      </trkpt>
      <trkpt lat="44.05057" lon="2.01458">
        <ele>314.97</ele>
        <time>2014-04-11T08:23:53Z</time>
      </trkpt>
      <trkpt lat="44.05055" lon="2.01454">
        <ele>314.97</ele>
        <time>2014-04-11T08:23:56Z</time>
      </trkpt>
      <trkpt lat="44.05045" lon="2.01431">
        <ele>317.85</ele>
        <time>2014-04-11T08:24:14Z</time>
      </trkpt>
      <trkpt lat="44.05044" lon="2.0143">
        <ele>314.49</ele>
        <time>2014-04-11T08:24:15Z</time>
      </trkpt>
      <trkpt lat="44.05038" lon="2.01412">
        <ele>314.01</ele>
        <time>2014-04-11T08:24:27Z</time>
      </trkpt>
      <trkpt lat="44.05034" lon="2.01405">
        <ele>314.01</ele>
        <time>2014-04-11T08:24:32Z</time>
      </trkpt>
      <trkpt lat="44.05024" lon="2.01384">
        <ele>313.05</ele>
        <time>2014-04-11T08:24:47Z</time>
      </trkpt>
      <trkpt lat="44.05016" lon="2.01362">
        <ele>312.57</ele>
        <time>2014-04-11T08:25:02Z</time>
      </trkpt>
      <trkpt lat="44.05011" lon="2.01352">
        <ele>312.09</ele>
        <time>2014-04-11T08:25:09Z</time>
      </trkpt>
      <trkpt lat="44.05007" lon="2.01346">
        <ele>311.6</ele>
        <time>2014-04-11T08:25:15Z</time>
      </trkpt>
      <trkpt lat="44.05006" lon="2.01341">
        <ele>311.6</ele>
        <time>2014-04-11T08:25:18Z</time>
      </trkpt>
      <trkpt lat="44.05002" lon="2.01334">
        <ele>311.12</ele>
        <time>2014-04-11T08:25:23Z</time>
      </trkpt>
      <trkpt lat="44.05" lon="2.01328">
        <ele>311.12</ele>
        <time>2014-04-11T08:25:27Z</time>
      </trkpt>
      <trkpt lat="44.04992" lon="2.01309">
        <ele>310.64</ele>
        <time>2014-04-11T08:25:41Z</time>
      </trkpt>
      <trkpt lat="44.04984" lon="2.01297">
        <ele>310.16</ele>
        <time>2014-04-11T08:25:52Z</time>
      </trkpt>
      <trkpt lat="44.04978" lon="2.01297">
        <ele>310.16</ele>
        <time>2014-04-11T08:25:57Z</time>
      </trkpt>
      <trkpt lat="44.04975" lon="2.013">
        <ele>310.16</ele>
        <time>2014-04-11T08:26:00Z</time>
      </trkpt>
      <trkpt lat="44.04963" lon="2.01309">
        <ele>309.68</ele>
        <time>2014-04-11T08:26:12Z</time>
      </trkpt>
      <trkpt lat="44.0496" lon="2.01312">
        <ele>309.68</ele>
        <time>2014-04-11T08:26:16Z</time>
      </trkpt>
      <trkpt lat="44.04955" lon="2.01312">
        <ele>309.68</ele>
        <time>2014-04-11T08:26:29Z</time>
      </trkpt>
      <trkpt lat="44.04955" lon="2.01309">
        <ele>309.68</ele>
        <time>2014-04-11T08:26:47Z</time>
      </trkpt>
      <trkpt lat="44.04955" lon="2.01308">
        <ele>309.68</ele>
        <time>2014-04-11T08:26:57Z</time>
      </trkpt>
      <trkpt lat="44.04963" lon="2.01304">
        <ele>310.16</ele>
        <time>2014-04-11T08:27:08Z</time>
      </trkpt>
      <trkpt lat="44.04975" lon="2.01293">
        <ele>310.16</ele>
        <time>2014-04-11T08:27:20Z</time>
      </trkpt>
      <trkpt lat="44.04983" lon="2.01286">
        <ele>310.16</ele>
        <time>2014-04-11T08:27:32Z</time>
      </trkpt>
      <trkpt lat="44.04983" lon="2.01283">
        <ele>310.16</ele>
        <time>2014-04-11T08:27:35Z</time>
      </trkpt>
      <trkpt lat="44.04979" lon="2.01271">
        <ele>309.68</ele>
        <time>2014-04-11T08:27:43Z</time>
      </trkpt>
      <trkpt lat="44.04971" lon="2.01248">
        <ele>309.2</ele>
        <time>2014-04-11T08:28:01Z</time>
      </trkpt>
      <trkpt lat="44.04962" lon="2.01245">
        <ele>309.2</ele>
        <time>2014-04-11T08:28:16Z</time>
      </trkpt>
      <trkpt lat="44.04963" lon="2.01241">
        <ele>309.2</ele>
        <time>2014-04-11T08:28:29Z</time>
      </trkpt>
      <trkpt lat="44.04965" lon="2.01239">
        <ele>309.2</ele>
        <time>2014-04-11T08:28:44Z</time>
      </trkpt>
      <trkpt lat="44.04966" lon="2.01234">
        <ele>308.24</ele>
        <time>2014-04-11T08:28:57Z</time>
      </trkpt>
      <trkpt lat="44.04962" lon="2.01222">
        <ele>307.76</ele>
        <time>2014-04-11T08:29:08Z</time>
      </trkpt>
      <trkpt lat="44.0496" lon="2.01207">
        <ele>306.32</ele>
        <time>2014-04-11T08:29:18Z</time>
      </trkpt>
      <trkpt lat="44.04959" lon="2.01204">
        <ele>306.32</ele>
        <time>2014-04-11T08:29:20Z</time>
      </trkpt>
      <trkpt lat="44.04955" lon="2.01189">
        <ele>304.39</ele>
        <time>2014-04-11T08:29:31Z</time>
      </trkpt>
      <trkpt lat="44.04953" lon="2.01178">
        <ele>303.43</ele>
        <time>2014-04-11T08:29:42Z</time>
      </trkpt>
      <trkpt lat="44.04957" lon="2.01171">
        <ele>302.95</ele>
        <time>2014-04-11T08:29:49Z</time>
      </trkpt>
      <trkpt lat="44.04965" lon="2.01165">
        <ele>302.95</ele>
        <time>2014-04-11T08:30:04Z</time>
      </trkpt>
      <trkpt lat="44.04964" lon="2.01166">
        <ele>302.95</ele>
        <time>2014-04-11T08:30:11Z</time>
      </trkpt>
      <trkpt lat="44.04967" lon="2.01165">
        <ele>302.95</ele>
        <time>2014-04-11T08:30:25Z</time>
      </trkpt>
      <trkpt lat="44.04976" lon="2.01151">
        <ele>302.47</ele>
        <time>2014-04-11T08:30:41Z</time>
      </trkpt>
      <trkpt lat="44.04985" lon="2.01139">
        <ele>301.99</ele>
        <time>2014-04-11T08:30:50Z</time>
      </trkpt>
      <trkpt lat="44.04997" lon="2.01125">
        <ele>302.47</ele>
        <time>2014-04-11T08:31:06Z</time>
      </trkpt>
      <trkpt lat="44.05009" lon="2.01117">
        <ele>302.95</ele>
        <time>2014-04-11T08:31:18Z</time>
      </trkpt>
      <trkpt lat="44.05023" lon="2.01108">
        <ele>303.43</ele>
        <time>2014-04-11T08:31:33Z</time>
      </trkpt>
      <trkpt lat="44.05034" lon="2.01098">
        <ele>303.91</ele>
        <time>2014-04-11T08:31:44Z</time>
      </trkpt>
      <trkpt lat="44.05041" lon="2.01096">
        <ele>303.91</ele>
        <time>2014-04-11T08:31:50Z</time>
      </trkpt>
      <trkpt lat="44.05045" lon="2.01095">
        <ele>304.39</ele>
        <time>2014-04-11T08:31:54Z</time>
      </trkpt>
      <trkpt lat="44.05061" lon="2.01089">
        <ele>305.84</ele>
        <time>2014-04-11T08:32:10Z</time>
      </trkpt>
      <trkpt lat="44.0508" lon="2.01085">
        <ele>305.36</ele>
        <time>2014-04-11T08:32:25Z</time>
      </trkpt>
      <trkpt lat="44.0509" lon="2.01086">
        <ele>305.36</ele>
        <time>2014-04-11T08:32:35Z</time>
      </trkpt>
      <trkpt lat="44.05105" lon="2.01098">
        <ele>305.36</ele>
        <time>2014-04-11T08:32:51Z</time>
      </trkpt>
      <trkpt lat="44.05112" lon="2.01097">
        <ele>304.39</ele>
        <time>2014-04-11T08:32:57Z</time>
      </trkpt>
      <trkpt lat="44.05129" lon="2.01086">
        <ele>303.91</ele>
        <time>2014-04-11T08:33:14Z</time>
      </trkpt>
      <trkpt lat="44.05143" lon="2.01078">
        <ele>304.39</ele>
        <time>2014-04-11T08:33:27Z</time>
      </trkpt>
      <trkpt lat="44.05155" lon="2.01061">
        <ele>306.8</ele>
        <time>2014-04-11T08:33:44Z</time>
      </trkpt>
      <trkpt lat="44.05156" lon="2.0106">
        <ele>307.28</ele>
        <time>2014-04-11T08:33:45Z</time>
      </trkpt>
      <trkpt lat="44.05164" lon="2.01048">
        <ele>308.72</ele>
        <time>2014-04-11T08:33:59Z</time>
      </trkpt>
      <trkpt lat="44.05169" lon="2.01042">
        <ele>309.68</ele>
        <time>2014-04-11T08:34:05Z</time>
      </trkpt>
      <trkpt lat="44.05174" lon="2.0104">
        <ele>310.16</ele>
        <time>2014-04-11T08:34:11Z</time>
      </trkpt>
      <trkpt lat="44.0518" lon="2.01043">
        <ele>310.64</ele>
        <time>2014-04-11T08:34:17Z</time>
      </trkpt>
      <trkpt lat="44.05183" lon="2.01046">
        <ele>311.12</ele>
        <time>2014-04-11T08:34:20Z</time>
      </trkpt>
      <trkpt lat="44.05189" lon="2.01057">
        <ele>311.6</ele>
        <time>2014-04-11T08:34:28Z</time>
      </trkpt>
      <trkpt lat="44.05196" lon="2.0106">
        <ele>312.09</ele>
        <time>2014-04-11T08:34:35Z</time>
      </trkpt>
      <trkpt lat="44.05203" lon="2.01064">
        <ele>312.57</ele>
        <time>2014-04-11T08:34:44Z</time>
      </trkpt>
      <trkpt lat="44.05207" lon="2.01069">
        <ele>312.57</ele>
        <time>2014-04-11T08:34:58Z</time>
      </trkpt>
      <trkpt lat="44.05208" lon="2.01072">
        <ele>313.05</ele>
        <time>2014-04-11T08:35:05Z</time>
      </trkpt>
      <trkpt lat="44.0521" lon="2.01076">
        <ele>312.57</ele>
        <time>2014-04-11T08:35:08Z</time>
      </trkpt>
      <trkpt lat="44.05211" lon="2.0108">
        <ele>313.05</ele>
        <time>2014-04-11T08:35:11Z</time>
      </trkpt>
      <trkpt lat="44.05219" lon="2.01094">
        <ele>313.05</ele>
        <time>2014-04-11T08:35:23Z</time>
      </trkpt>
      <trkpt lat="44.0522" lon="2.01095">
        <ele>313.05</ele>
        <time>2014-04-11T08:35:24Z</time>
      </trkpt>
      <trkpt lat="44.05222" lon="2.01098">
        <ele>313.05</ele>
        <time>2014-04-11T08:35:27Z</time>
      </trkpt>
      <trkpt lat="44.05228" lon="2.01115">
        <ele>313.05</ele>
        <time>2014-04-11T08:35:39Z</time>
      </trkpt>
      <trkpt lat="44.05231" lon="2.01126">
        <ele>313.53</ele>
        <time>2014-04-11T08:35:48Z</time>
      </trkpt>
      <trkpt lat="44.05235" lon="2.01137">
        <ele>313.53</ele>
        <time>2014-04-11T08:35:55Z</time>
      </trkpt>
      <trkpt lat="44.05238" lon="2.01149">
        <ele>313.53</ele>
        <time>2014-04-11T08:36:03Z</time>
      </trkpt>
      <trkpt lat="44.0524" lon="2.01155">
        <ele>313.53</ele>
        <time>2014-04-11T08:36:07Z</time>
      </trkpt>
      <trkpt lat="44.05244" lon="2.0116">
        <ele>313.53</ele>
        <time>2014-04-11T08:36:12Z</time>
      </trkpt>
      <trkpt lat="44.05247" lon="2.01171">
        <ele>314.01</ele>
        <time>2014-04-11T08:36:19Z</time>
      </trkpt>
      <trkpt lat="44.05253" lon="2.01181">
        <ele>314.01</ele>
        <time>2014-04-11T08:36:26Z</time>
      </trkpt>
      <trkpt lat="44.05254" lon="2.01186">
        <ele>314.01</ele>
        <time>2014-04-11T08:36:30Z</time>
      </trkpt>
      <trkpt lat="44.05259" lon="2.01195">
        <ele>314.49</ele>
        <time>2014-04-11T08:36:36Z</time>
      </trkpt>
      <trkpt lat="44.05273" lon="2.0121">
        <ele>314.97</ele>
        <time>2014-04-11T08:36:50Z</time>
      </trkpt>
      <trkpt lat="44.05276" lon="2.01214">
        <ele>315.45</ele>
        <time>2014-04-11T08:36:54Z</time>
      </trkpt>
      <trkpt lat="44.0528" lon="2.01219">
        <ele>315.45</ele>
        <time>2014-04-11T08:36:58Z</time>
      </trkpt>
      <trkpt lat="44.05294" lon="2.01231">
        <ele>316.41</ele>
        <time>2014-04-11T08:37:13Z</time>
      </trkpt>
      <trkpt lat="44.05307" lon="2.01246">
        <ele>317.85</ele>
        <time>2014-04-11T08:37:27Z</time>
      </trkpt>
      <trkpt lat="44.05319" lon="2.01258">
        <ele>318.81</ele>
        <time>2014-04-11T08:37:41Z</time>
      </trkpt>
      <trkpt lat="44.0533" lon="2.01271">
        <ele>319.78</ele>
        <time>2014-04-11T08:37:55Z</time>
      </trkpt>
      <trkpt lat="44.05339" lon="2.01277">
        <ele>320.26</ele>
        <time>2014-04-11T08:38:05Z</time>
      </trkpt>
      <trkpt lat="44.05351" lon="2.01288">
        <ele>320.26</ele>
        <time>2014-04-11T08:38:17Z</time>
      </trkpt>
      <trkpt lat="44.05357" lon="2.01295">
        <ele>320.26</ele>
        <time>2014-04-11T08:38:24Z</time>
      </trkpt>
      <trkpt lat="44.05365" lon="2.013">
        <ele>320.26</ele>
        <time>2014-04-11T08:38:32Z</time>
      </trkpt>
      <trkpt lat="44.05383" lon="2.01314">
        <ele>320.26</ele>
        <time>2014-04-11T08:38:46Z</time>
      </trkpt>
      <trkpt lat="44.05395" lon="2.01326">
        <ele>320.26</ele>
        <time>2014-04-11T08:39:02Z</time>
      </trkpt>
      <trkpt lat="44.05397" lon="2.01329">
        <ele>320.26</ele>
        <time>2014-04-11T08:39:04Z</time>
      </trkpt>
      <trkpt lat="44.05407" lon="2.01335">
        <ele>320.74</ele>
        <time>2014-04-11T08:39:12Z</time>
      </trkpt>
      <trkpt lat="44.05427" lon="2.01353">
        <ele>319.78</ele>
        <time>2014-04-11T08:39:32Z</time>
      </trkpt>
      <trkpt lat="44.05438" lon="2.01361">
        <ele>318.33</ele>
        <time>2014-04-11T08:39:44Z</time>
      </trkpt>
      <trkpt lat="44.05446" lon="2.01361">
        <ele>317.85</ele>
        <time>2014-04-11T08:39:49Z</time>
      </trkpt>
      <trkpt lat="44.05451" lon="2.01352">
        <ele>317.85</ele>
        <time>2014-04-11T08:39:56Z</time>
      </trkpt>
      <trkpt lat="44.05455" lon="2.01331">
        <ele>317.85</ele>
        <time>2014-04-11T08:40:09Z</time>
      </trkpt>
      <trkpt lat="44.05458" lon="2.01327">
        <ele>317.37</ele>
        <time>2014-04-11T08:40:13Z</time>
      </trkpt>
      <trkpt lat="44.05462" lon="2.01328">
        <ele>316.89</ele>
        <time>2014-04-11T08:40:17Z</time>
      </trkpt>
      <trkpt lat="44.05483" lon="2.01345">
        <ele>315.93</ele>
        <time>2014-04-11T08:40:37Z</time>
      </trkpt>
      <trkpt lat="44.05496" lon="2.0136">
        <ele>315.45</ele>
        <time>2014-04-11T08:40:53Z</time>
      </trkpt>
      <trkpt lat="44.05508" lon="2.01375">
        <ele>314.97</ele>
        <time>2014-04-11T08:41:09Z</time>
      </trkpt>
      <trkpt lat="44.05524" lon="2.01391">
        <ele>314.01</ele>
        <time>2014-04-11T08:41:25Z</time>
      </trkpt>
      <trkpt lat="44.05547" lon="2.014">
        <ele>314.01</ele>
        <time>2014-04-11T08:41:43Z</time>
      </trkpt>
      <trkpt lat="44.05565" lon="2.01404">
        <ele>314.01</ele>
        <time>2014-04-11T08:41:58Z</time>
      </trkpt>
      <trkpt lat="44.05566" lon="2.01404">
        <ele>313.53</ele>
        <time>2014-04-11T08:41:59Z</time>
      </trkpt>
      <trkpt lat="44.05585" lon="2.01408">
        <ele>313.53</ele>
        <time>2014-04-11T08:42:15Z</time>
      </trkpt>
      <trkpt lat="44.05599" lon="2.01408">
        <ele>313.05</ele>
        <time>2014-04-11T08:42:27Z</time>
      </trkpt>
      <trkpt lat="44.05622" lon="2.01405">
        <ele>312.57</ele>
        <time>2014-04-11T08:42:46Z</time>
      </trkpt>
      <trkpt lat="44.05643" lon="2.01399">
        <ele>312.09</ele>
        <time>2014-04-11T08:43:03Z</time>
      </trkpt>
      <trkpt lat="44.05661" lon="2.01392">
        <ele>311.6</ele>
        <time>2014-04-11T08:43:19Z</time>
      </trkpt>
      <trkpt lat="44.05681" lon="2.01382">
        <ele>311.12</ele>
        <time>2014-04-11T08:43:36Z</time>
      </trkpt>
      <trkpt lat="44.05699" lon="2.01371">
        <ele>310.16</ele>
        <time>2014-04-11T08:43:54Z</time>
      </trkpt>
      <trkpt lat="44.05719" lon="2.01362">
        <ele>308.72</ele>
        <time>2014-04-11T08:44:12Z</time>
      </trkpt>
      <trkpt lat="44.05736" lon="2.01358">
        <ele>308.24</ele>
        <time>2014-04-11T08:44:26Z</time>
      </trkpt>
      <trkpt lat="44.05753" lon="2.01354">
        <ele>307.76</ele>
        <time>2014-04-11T08:44:41Z</time>
      </trkpt>
      <trkpt lat="44.05773" lon="2.01349">
        <ele>307.76</ele>
        <time>2014-04-11T08:44:58Z</time>
      </trkpt>
      <trkpt lat="44.05789" lon="2.01347">
        <ele>307.28</ele>
        <time>2014-04-11T08:45:12Z</time>
      </trkpt>
      <trkpt lat="44.05808" lon="2.01342">
        <ele>306.8</ele>
        <time>2014-04-11T08:45:29Z</time>
      </trkpt>
      <trkpt lat="44.05823" lon="2.0134">
        <ele>305.84</ele>
        <time>2014-04-11T08:45:42Z</time>
      </trkpt>
      <trkpt lat="44.05839" lon="2.01335">
        <ele>304.39</ele>
        <time>2014-04-11T08:45:57Z</time>
      </trkpt>
      <trkpt lat="44.05856" lon="2.0133">
        <ele>303.43</ele>
        <time>2014-04-11T08:46:12Z</time>
      </trkpt>
      <trkpt lat="44.05858" lon="2.0133">
        <ele>302.95</ele>
        <time>2014-04-11T08:46:14Z</time>
      </trkpt>
      <trkpt lat="44.05875" lon="2.01326">
        <ele>301.99</ele>
        <time>2014-04-11T08:46:27Z</time>
      </trkpt>
      <trkpt lat="44.05879" lon="2.01324">
        <ele>301.99</ele>
        <time>2014-04-11T08:46:32Z</time>
      </trkpt>
      <trkpt lat="44.05882" lon="2.01322">
        <ele>301.51</ele>
        <time>2014-04-11T08:46:35Z</time>
      </trkpt>
      <trkpt lat="44.05897" lon="2.01316">
        <ele>301.03</ele>
        <time>2014-04-11T08:46:47Z</time>
      </trkpt>
      <trkpt lat="44.05909" lon="2.01312">
        <ele>300.55</ele>
        <time>2014-04-11T08:46:57Z</time>
      </trkpt>
      <trkpt lat="44.05916" lon="2.0131">
        <ele>300.55</ele>
        <time>2014-04-11T08:47:02Z</time>
      </trkpt>
      <trkpt lat="44.05921" lon="2.01307">
        <ele>300.55</ele>
        <time>2014-04-11T08:47:06Z</time>
      </trkpt>
      <trkpt lat="44.05925" lon="2.01305">
        <ele>300.55</ele>
        <time>2014-04-11T08:47:10Z</time>
      </trkpt>
      <trkpt lat="44.05932" lon="2.01304">
        <ele>300.55</ele>
        <time>2014-04-11T08:47:16Z</time>
      </trkpt>
      <trkpt lat="44.05937" lon="2.01302">
        <ele>300.55</ele>
        <time>2014-04-11T08:47:21Z</time>
      </trkpt>
      <trkpt lat="44.05945" lon="2.013">
        <ele>300.55</ele>
        <time>2014-04-11T08:47:26Z</time>
      </trkpt>
      <trkpt lat="44.05959" lon="2.01295">
        <ele>300.55</ele>
        <time>2014-04-11T08:47:38Z</time>
      </trkpt>
      <trkpt lat="44.05974" lon="2.01285">
        <ele>301.03</ele>
        <time>2014-04-11T08:47:50Z</time>
      </trkpt>
      <trkpt lat="44.0598" lon="2.0128">
        <ele>300.55</ele>
        <time>2014-04-11T08:47:56Z</time>
      </trkpt>
      <trkpt lat="44.05985" lon="2.01277">
        <ele>300.55</ele>
        <time>2014-04-11T08:48:00Z</time>
      </trkpt>
      <trkpt lat="44.05999" lon="2.01266">
        <ele>300.07</ele>
        <time>2014-04-11T08:48:13Z</time>
      </trkpt>
      <trkpt lat="44.06006" lon="2.01261">
        <ele>299.59</ele>
        <time>2014-04-11T08:48:19Z</time>
      </trkpt>
      <trkpt lat="44.06016" lon="2.01253">
        <ele>299.59</ele>
        <time>2014-04-11T08:48:29Z</time>
      </trkpt>
      <trkpt lat="44.0602" lon="2.01247">
        <ele>299.59</ele>
        <time>2014-04-11T08:48:33Z</time>
      </trkpt>
      <trkpt lat="44.06024" lon="2.01247">
        <ele>299.59</ele>
        <time>2014-04-11T08:48:36Z</time>
      </trkpt>
      <trkpt lat="44.06038" lon="2.0124">
        <ele>299.11</ele>
        <time>2014-04-11T08:48:48Z</time>
      </trkpt>
      <trkpt lat="44.06039" lon="2.01239">
        <ele>299.11</ele>
        <time>2014-04-11T08:48:49Z</time>
      </trkpt>
      <trkpt lat="44.06046" lon="2.01236">
        <ele>299.11</ele>
        <time>2014-04-11T08:48:55Z</time>
      </trkpt>
      <trkpt lat="44.06059" lon="2.01228">
        <ele>298.63</ele>
        <time>2014-04-11T08:49:07Z</time>
      </trkpt>
      <trkpt lat="44.06061" lon="2.01225">
        <ele>298.63</ele>
        <time>2014-04-11T08:49:10Z</time>
      </trkpt>
      <trkpt lat="44.06063" lon="2.01223">
        <ele>298.63</ele>
        <time>2014-04-11T08:49:12Z</time>
      </trkpt>
      <trkpt lat="44.06073" lon="2.01214">
        <ele>298.63</ele>
        <time>2014-04-11T08:49:21Z</time>
      </trkpt>
      <trkpt lat="44.06077" lon="2.01212">
        <ele>298.15</ele>
        <time>2014-04-11T08:49:25Z</time>
      </trkpt>
      <trkpt lat="44.06082" lon="2.01209">
        <ele>298.15</ele>
        <time>2014-04-11T08:49:30Z</time>
      </trkpt>
      <trkpt lat="44.06097" lon="2.01199">
        <ele>297.67</ele>
        <time>2014-04-11T08:49:43Z</time>
      </trkpt>
      <trkpt lat="44.06107" lon="2.01193">
        <ele>296.7</ele>
        <time>2014-04-11T08:49:52Z</time>
      </trkpt>
      <trkpt lat="44.06119" lon="2.01182">
        <ele>295.74</ele>
        <time>2014-04-11T08:50:04Z</time>
      </trkpt>
      <trkpt lat="44.06123" lon="2.01178">
        <ele>295.26</ele>
        <time>2014-04-11T08:50:09Z</time>
      </trkpt>
      <trkpt lat="44.06127" lon="2.01173">
        <ele>294.78</ele>
        <time>2014-04-11T08:50:13Z</time>
      </trkpt>
      <trkpt lat="44.06137" lon="2.0117">
        <ele>293.82</ele>
        <time>2014-04-11T08:50:22Z</time>
      </trkpt>
      <trkpt lat="44.06145" lon="2.01165">
        <ele>292.86</ele>
        <time>2014-04-11T08:50:29Z</time>
      </trkpt>
      <trkpt lat="44.06148" lon="2.01161">
        <ele>292.38</ele>
        <time>2014-04-11T08:50:33Z</time>
      </trkpt>
      <trkpt lat="44.06154" lon="2.01156">
        <ele>291.9</ele>
        <time>2014-04-11T08:50:39Z</time>
      </trkpt>
      <trkpt lat="44.06169" lon="2.01147">
        <ele>289.97</ele>
        <time>2014-04-11T08:50:54Z</time>
      </trkpt>
      <trkpt lat="44.0617" lon="2.01147">
        <ele>289.49</ele>
        <time>2014-04-11T08:50:55Z</time>
      </trkpt>
      <trkpt lat="44.06182" lon="2.0114">
        <ele>287.57</ele>
        <time>2014-04-11T08:51:08Z</time>
      </trkpt>
      <trkpt lat="44.06194" lon="2.01129">
        <ele>284.69</ele>
        <time>2014-04-11T08:51:22Z</time>
      </trkpt>
      <trkpt lat="44.06198" lon="2.01126">
        <ele>283.73</ele>
        <time>2014-04-11T08:51:27Z</time>
      </trkpt>
      <trkpt lat="44.062" lon="2.01125">
        <ele>283.25</ele>
        <time>2014-04-11T08:51:29Z</time>
      </trkpt>
      <trkpt lat="44.0621" lon="2.01115">
        <ele>280.84</ele>
        <time>2014-04-11T08:51:42Z</time>
      </trkpt>
      <trkpt lat="44.06223" lon="2.01105">
        <ele>277.96</ele>
        <time>2014-04-11T08:51:56Z</time>
      </trkpt>
      <trkpt lat="44.06237" lon="2.01098">
        <ele>275.07</ele>
        <time>2014-04-11T08:52:10Z</time>
      </trkpt>
      <trkpt lat="44.06241" lon="2.01095">
        <ele>274.11</ele>
        <time>2014-04-11T08:52:15Z</time>
      </trkpt>
      <trkpt lat="44.06256" lon="2.01086">
        <ele>271.23</ele>
        <time>2014-04-11T08:52:31Z</time>
      </trkpt>
      <trkpt lat="44.0626" lon="2.01083">
        <ele>270.27</ele>
        <time>2014-04-11T08:52:37Z</time>
      </trkpt>
      <trkpt lat="44.06262" lon="2.01082">
        <ele>269.79</ele>
        <time>2014-04-11T08:52:39Z</time>
      </trkpt>
      <trkpt lat="44.06276" lon="2.01071">
        <ele>266.42</ele>
        <time>2014-04-11T08:52:56Z</time>
      </trkpt>
      <trkpt lat="44.06278" lon="2.01071">
        <ele>266.42</ele>
        <time>2014-04-11T08:53:02Z</time>
      </trkpt>
      <trkpt lat="44.06287" lon="2.01066">
        <ele>264.02</ele>
        <time>2014-04-11T08:53:15Z</time>
      </trkpt>
      <trkpt lat="44.06301" lon="2.01058">
        <ele>261.62</ele>
        <time>2014-04-11T08:53:30Z</time>
      </trkpt>
      <trkpt lat="44.06313" lon="2.01047">
        <ele>259.21</ele>
        <time>2014-04-11T08:53:42Z</time>
      </trkpt>
      <trkpt lat="44.06319" lon="2.01043">
        <ele>258.25</ele>
        <time>2014-04-11T08:53:49Z</time>
      </trkpt>
      <trkpt lat="44.06324" lon="2.01038">
        <ele>257.29</ele>
        <time>2014-04-11T08:53:55Z</time>
      </trkpt>
      <trkpt lat="44.06329" lon="2.01034">
        <ele>257.29</ele>
        <time>2014-04-11T08:54:00Z</time>
      </trkpt>
      <trkpt lat="44.06338" lon="2.01026">
        <ele>255.37</ele>
        <time>2014-04-11T08:54:08Z</time>
      </trkpt>
      <trkpt lat="44.06341" lon="2.01022">
        <ele>254.89</ele>
        <time>2014-04-11T08:54:11Z</time>
      </trkpt>
      <trkpt lat="44.06348" lon="2.0102">
        <ele>253.93</ele>
        <time>2014-04-11T08:54:17Z</time>
      </trkpt>
      <trkpt lat="44.06352" lon="2.01028">
        <ele>253.93</ele>
        <time>2014-04-11T08:54:24Z</time>
      </trkpt>
      <trkpt lat="44.06352" lon="2.01041">
        <ele>253.93</ele>
        <time>2014-04-11T08:54:30Z</time>
      </trkpt>
      <trkpt lat="44.06349" lon="2.0105">
        <ele>253.93</ele>
        <time>2014-04-11T08:54:37Z</time>
      </trkpt>
      <trkpt lat="44.06343" lon="2.01072">
        <ele>253.44</ele>
        <time>2014-04-11T08:54:52Z</time>
      </trkpt>
      <trkpt lat="44.06344" lon="2.01083">
        <ele>252.48</ele>
        <time>2014-04-11T08:55:08Z</time>
      </trkpt>
      <trkpt lat="44.06345" lon="2.01085">
        <ele>252</ele>
        <time>2014-04-11T08:55:10Z</time>
      </trkpt>
      <trkpt lat="44.06349" lon="2.01098">
        <ele>250.56</ele>
        <time>2014-04-11T08:55:20Z</time>
      </trkpt>
      <trkpt lat="44.06345" lon="2.01096">
        <ele>251.04</ele>
        <time>2014-04-11T08:55:26Z</time>
      </trkpt>
      <trkpt lat="44.06345" lon="2.01092">
        <ele>251.52</ele>
        <time>2014-04-11T08:55:29Z</time>
      </trkpt>
      <trkpt lat="44.06344" lon="2.0109">
        <ele>251.52</ele>
        <time>2014-04-11T08:55:41Z</time>
      </trkpt>
      <trkpt lat="44.06344" lon="2.0109">
        <ele>251.52</ele>
        <time>2014-04-11T08:55:52Z</time>
      </trkpt>
      <trkpt lat="44.06347" lon="2.011">
        <ele>251.04</ele>
        <time>2014-04-11T08:56:00Z</time>
      </trkpt>
      <trkpt lat="44.0635" lon="2.01116">
        <ele>248.64</ele>
        <time>2014-04-11T08:56:13Z</time>
      </trkpt>
      <trkpt lat="44.06351" lon="2.01118">
        <ele>248.16</ele>
        <time>2014-04-11T08:56:15Z</time>
      </trkpt>
      <trkpt lat="44.06349" lon="2.01146">
        <ele>246.23</ele>
        <time>2014-04-11T08:56:31Z</time>
      </trkpt>
      <trkpt lat="44.06347" lon="2.0115">
        <ele>246.23</ele>
        <time>2014-04-11T08:56:34Z</time>
      </trkpt>
      <trkpt lat="44.06344" lon="2.01158">
        <ele>246.23</ele>
        <time>2014-04-11T08:56:38Z</time>
      </trkpt>
      <trkpt lat="44.06341" lon="2.01184">
        <ele>244.79</ele>
        <time>2014-04-11T08:56:54Z</time>
      </trkpt>
      <trkpt lat="44.0634" lon="2.01186">
        <ele>245.27</ele>
        <time>2014-04-11T08:56:56Z</time>
      </trkpt>
      <trkpt lat="44.06332" lon="2.01198">
        <ele>245.75</ele>
        <time>2014-04-11T08:57:10Z</time>
      </trkpt>
      <trkpt lat="44.06331" lon="2.01198">
        <ele>245.75</ele>
        <time>2014-04-11T08:57:20Z</time>
      </trkpt>
      <trkpt lat="44.0632" lon="2.01218">
        <ele>247.2</ele>
        <time>2014-04-11T08:57:34Z</time>
      </trkpt>
      <trkpt lat="44.06309" lon="2.01244">
        <ele>247.68</ele>
        <time>2014-04-11T08:57:51Z</time>
      </trkpt>
      <trkpt lat="44.06304" lon="2.01266">
        <ele>248.16</ele>
        <time>2014-04-11T08:58:05Z</time>
      </trkpt>
      <trkpt lat="44.06301" lon="2.01288">
        <ele>248.64</ele>
        <time>2014-04-11T08:58:18Z</time>
      </trkpt>
      <trkpt lat="44.06299" lon="2.01315">
        <ele>249.6</ele>
        <time>2014-04-11T08:58:35Z</time>
      </trkpt>
      <trkpt lat="44.06298" lon="2.01318">
        <ele>249.6</ele>
        <time>2014-04-11T08:58:37Z</time>
      </trkpt>
      <trkpt lat="44.06298" lon="2.01327">
        <ele>250.08</ele>
        <time>2014-04-11T08:58:42Z</time>
      </trkpt>
      <trkpt lat="44.06297" lon="2.01356">
        <ele>250.56</ele>
        <time>2014-04-11T08:58:59Z</time>
      </trkpt>
      <trkpt lat="44.06289" lon="2.01385">
        <ele>251.52</ele>
        <time>2014-04-11T08:59:16Z</time>
      </trkpt>
      <trkpt lat="44.06288" lon="2.01388">
        <ele>251.52</ele>
        <time>2014-04-11T08:59:19Z</time>
      </trkpt>
      <trkpt lat="44.06283" lon="2.01401">
        <ele>252</ele>
        <time>2014-04-11T08:59:26Z</time>
      </trkpt>
      <trkpt lat="44.06275" lon="2.01422">
        <ele>252.96</ele>
        <time>2014-04-11T08:59:40Z</time>
      </trkpt>
      <trkpt lat="44.06261" lon="2.01455">
        <ele>253.93</ele>
        <time>2014-04-11T09:00:02Z</time>
      </trkpt>
      <trkpt lat="44.06252" lon="2.01479">
        <ele>254.41</ele>
        <time>2014-04-11T09:00:18Z</time>
      </trkpt>
      <trkpt lat="44.0624" lon="2.01506">
        <ele>253.93</ele>
        <time>2014-04-11T09:00:37Z</time>
      </trkpt>
      <trkpt lat="44.06224" lon="2.01538">
        <ele>253.44</ele>
        <time>2014-04-11T09:00:58Z</time>
      </trkpt>
      <trkpt lat="44.06211" lon="2.01554">
        <ele>253.44</ele>
        <time>2014-04-11T09:01:13Z</time>
      </trkpt>
      <trkpt lat="44.062" lon="2.0158">
        <ele>253.44</ele>
        <time>2014-04-11T09:01:30Z</time>
      </trkpt>
      <trkpt lat="44.06203" lon="2.01608">
        <ele>253.44</ele>
        <time>2014-04-11T09:01:47Z</time>
      </trkpt>
      <trkpt lat="44.06206" lon="2.01633">
        <ele>253.93</ele>
        <time>2014-04-11T09:02:02Z</time>
      </trkpt>
      <trkpt lat="44.06207" lon="2.01664">
        <ele>254.41</ele>
        <time>2014-04-11T09:02:21Z</time>
      </trkpt>
      <trkpt lat="44.06203" lon="2.01703">
        <ele>255.37</ele>
        <time>2014-04-11T09:02:42Z</time>
      </trkpt>
      <trkpt lat="44.062" lon="2.01733">
        <ele>256.33</ele>
        <time>2014-04-11T09:03:00Z</time>
      </trkpt>
      <trkpt lat="44.06197" lon="2.01762">
        <ele>257.29</ele>
        <time>2014-04-11T09:03:17Z</time>
      </trkpt>
      <trkpt lat="44.06193" lon="2.01788">
        <ele>258.25</ele>
        <time>2014-04-11T09:03:32Z</time>
      </trkpt>
      <trkpt lat="44.06189" lon="2.01808">
        <ele>258.73</ele>
        <time>2014-04-11T09:03:45Z</time>
      </trkpt>
      <trkpt lat="44.06182" lon="2.01835">
        <ele>260.17</ele>
        <time>2014-04-11T09:04:01Z</time>
      </trkpt>
      <trkpt lat="44.06182" lon="2.01837">
        <ele>259.69</ele>
        <time>2014-04-11T09:04:02Z</time>
      </trkpt>
      <trkpt lat="44.06177" lon="2.01868">
        <ele>260.17</ele>
        <time>2014-04-11T09:04:20Z</time>
      </trkpt>
      <trkpt lat="44.06174" lon="2.01888">
        <ele>259.69</ele>
        <time>2014-04-11T09:04:33Z</time>
      </trkpt>
      <trkpt lat="44.06174" lon="2.01893">
        <ele>259.21</ele>
        <time>2014-04-11T09:04:36Z</time>
      </trkpt>
      <trkpt lat="44.06175" lon="2.01918">
        <ele>257.77</ele>
        <time>2014-04-11T09:04:51Z</time>
      </trkpt>
      <trkpt lat="44.06177" lon="2.01941">
        <ele>256.81</ele>
        <time>2014-04-11T09:05:06Z</time>
      </trkpt>
      <trkpt lat="44.06178" lon="2.01944">
        <ele>256.33</ele>
        <time>2014-04-11T09:05:08Z</time>
      </trkpt>
      <trkpt lat="44.06186" lon="2.01957">
        <ele>254.89</ele>
        <time>2014-04-11T09:05:20Z</time>
      </trkpt>
      <trkpt lat="44.06194" lon="2.0197">
        <ele>254.41</ele>
        <time>2014-04-11T09:05:31Z</time>
      </trkpt>
      <trkpt lat="44.06207" lon="2.01989">
        <ele>254.89</ele>
        <time>2014-04-11T09:05:47Z</time>
      </trkpt>
      <trkpt lat="44.06208" lon="2.01991">
        <ele>254.89</ele>
        <time>2014-04-11T09:05:49Z</time>
      </trkpt>
      <trkpt lat="44.0621" lon="2.01994">
        <ele>254.89</ele>
        <time>2014-04-11T09:05:52Z</time>
      </trkpt>
      <trkpt lat="44.06216" lon="2.02006">
        <ele>255.85</ele>
        <time>2014-04-11T09:06:01Z</time>
      </trkpt>
      <trkpt lat="44.06224" lon="2.02026">
        <ele>256.81</ele>
        <time>2014-04-11T09:06:17Z</time>
      </trkpt>
      <trkpt lat="44.06233" lon="2.02042">
        <ele>258.25</ele>
        <time>2014-04-11T09:06:33Z</time>
      </trkpt>
      <trkpt lat="44.06244" lon="2.02051">
        <ele>260.65</ele>
        <time>2014-04-11T09:06:47Z</time>
      </trkpt>
      <trkpt lat="44.06254" lon="2.02054">
        <ele>262.58</ele>
        <time>2014-04-11T09:07:01Z</time>
      </trkpt>
      <trkpt lat="44.06262" lon="2.02055">
        <ele>264.98</ele>
        <time>2014-04-11T09:07:15Z</time>
      </trkpt>
      <trkpt lat="44.06274" lon="2.02058">
        <ele>266.42</ele>
        <time>2014-04-11T09:07:26Z</time>
      </trkpt>
      <trkpt lat="44.06282" lon="2.02058">
        <ele>267.86</ele>
        <time>2014-04-11T09:07:36Z</time>
      </trkpt>
      <trkpt lat="44.06285" lon="2.02058">
        <ele>269.79</ele>
        <time>2014-04-11T09:07:40Z</time>
      </trkpt>
      <trkpt lat="44.06292" lon="2.02058">
        <ele>270.27</ele>
        <time>2014-04-11T09:07:50Z</time>
      </trkpt>
      <trkpt lat="44.06293" lon="2.02058">
        <ele>270.75</ele>
        <time>2014-04-11T09:07:53Z</time>
      </trkpt>
      <trkpt lat="44.06301" lon="2.02057">
        <ele>272.19</ele>
        <time>2014-04-11T09:08:03Z</time>
      </trkpt>
      <trkpt lat="44.06312" lon="2.02057">
        <ele>274.59</ele>
        <time>2014-04-11T09:08:16Z</time>
      </trkpt>
      <trkpt lat="44.06322" lon="2.02058">
        <ele>276.52</ele>
        <time>2014-04-11T09:08:28Z</time>
      </trkpt>
      <trkpt lat="44.06328" lon="2.02072">
        <ele>278.92</ele>
        <time>2014-04-11T09:08:42Z</time>
      </trkpt>
      <trkpt lat="44.06326" lon="2.02085">
        <ele>280.84</ele>
        <time>2014-04-11T09:08:54Z</time>
      </trkpt>
      <trkpt lat="44.06322" lon="2.02103">
        <ele>283.73</ele>
        <time>2014-04-11T09:09:11Z</time>
      </trkpt>
      <trkpt lat="44.06326" lon="2.02116">
        <ele>285.65</ele>
        <time>2014-04-11T09:09:24Z</time>
      </trkpt>
      <trkpt lat="44.06328" lon="2.02126">
        <ele>288.05</ele>
        <time>2014-04-11T09:09:36Z</time>
      </trkpt>
      <trkpt lat="44.0633" lon="2.02145">
        <ele>290.46</ele>
        <time>2014-04-11T09:09:52Z</time>
      </trkpt>
      <trkpt lat="44.06333" lon="2.02159">
        <ele>291.9</ele>
        <time>2014-04-11T09:10:02Z</time>
      </trkpt>
      <trkpt lat="44.06334" lon="2.02172">
        <ele>293.34</ele>
        <time>2014-04-11T09:10:14Z</time>
      </trkpt>
      <trkpt lat="44.06335" lon="2.02175">
        <ele>293.82</ele>
        <time>2014-04-11T09:10:16Z</time>
      </trkpt>
      <trkpt lat="44.06336" lon="2.02178">
        <ele>294.3</ele>
        <time>2014-04-11T09:10:19Z</time>
      </trkpt>
      <trkpt lat="44.06337" lon="2.02181">
        <ele>294.78</ele>
        <time>2014-04-11T09:10:21Z</time>
      </trkpt>
      <trkpt lat="44.06338" lon="2.02185">
        <ele>295.26</ele>
        <time>2014-04-11T09:10:25Z</time>
      </trkpt>
      <trkpt lat="44.0634" lon="2.02187">
        <ele>295.74</ele>
        <time>2014-04-11T09:10:27Z</time>
      </trkpt>
      <trkpt lat="44.06349" lon="2.022">
        <ele>298.15</ele>
        <time>2014-04-11T09:10:42Z</time>
      </trkpt>
      <trkpt lat="44.06358" lon="2.02212">
        <ele>300.07</ele>
        <time>2014-04-11T09:10:56Z</time>
      </trkpt>
      <trkpt lat="44.06362" lon="2.02225">
        <ele>301.99</ele>
        <time>2014-04-11T09:11:09Z</time>
      </trkpt>
      <trkpt lat="44.06365" lon="2.02231">
        <ele>302.95</ele>
        <time>2014-04-11T09:11:15Z</time>
      </trkpt>
      <trkpt lat="44.0637" lon="2.02243">
        <ele>304.88</ele>
        <time>2014-04-11T09:11:26Z</time>
      </trkpt>
      <trkpt lat="44.06379" lon="2.02259">
        <ele>307.28</ele>
        <time>2014-04-11T09:11:41Z</time>
      </trkpt>
      <trkpt lat="44.06387" lon="2.02269">
        <ele>308.72</ele>
        <time>2014-04-11T09:11:56Z</time>
      </trkpt>
      <trkpt lat="44.06389" lon="2.02272">
        <ele>309.2</ele>
        <time>2014-04-11T09:11:59Z</time>
      </trkpt>
      <trkpt lat="44.06397" lon="2.02281">
        <ele>310.16</ele>
        <time>2014-04-11T09:12:09Z</time>
      </trkpt>
      <trkpt lat="44.06407" lon="2.02293">
        <ele>312.09</ele>
        <time>2014-04-11T09:12:21Z</time>
      </trkpt>
      <trkpt lat="44.06411" lon="2.02303">
        <ele>313.05</ele>
        <time>2014-04-11T09:12:35Z</time>
      </trkpt>
      <trkpt lat="44.06415" lon="2.02311">
        <ele>313.53</ele>
        <time>2014-04-11T09:12:41Z</time>
      </trkpt>
      <trkpt lat="44.06423" lon="2.0233">
        <ele>314.49</ele>
        <time>2014-04-11T09:12:58Z</time>
      </trkpt>
      <trkpt lat="44.06433" lon="2.02338">
        <ele>315.45</ele>
        <time>2014-04-11T09:13:08Z</time>
      </trkpt>
      <trkpt lat="44.06439" lon="2.02343">
        <ele>315.45</ele>
        <time>2014-04-11T09:13:13Z</time>
      </trkpt>
      <trkpt lat="44.06451" lon="2.02354">
        <ele>315.93</ele>
        <time>2014-04-11T09:13:27Z</time>
      </trkpt>
      <trkpt lat="44.06451" lon="2.02355">
        <ele>315.93</ele>
        <time>2014-04-11T09:13:28Z</time>
      </trkpt>
      <trkpt lat="44.06462" lon="2.02365">
        <ele>316.89</ele>
        <time>2014-04-11T09:13:42Z</time>
      </trkpt>
      <trkpt lat="44.06467" lon="2.02364">
        <ele>316.89</ele>
        <time>2014-04-11T09:13:57Z</time>
      </trkpt>
      <trkpt lat="44.06467" lon="2.02365">
        <ele>315.93</ele>
        <time>2014-04-11T09:14:11Z</time>
      </trkpt>
      <trkpt lat="44.06468" lon="2.02364">
        <ele>315.93</ele>
        <time>2014-04-11T09:14:41Z</time>
      </trkpt>
      <trkpt lat="44.06468" lon="2.02364">
        <ele>316.89</ele>
        <time>2014-04-11T09:14:58Z</time>
      </trkpt>
      <trkpt lat="44.06467" lon="2.02366">
        <ele>316.41</ele>
        <time>2014-04-11T09:15:07Z</time>
      </trkpt>
      <trkpt lat="44.06466" lon="2.02366">
        <ele>316.41</ele>
        <time>2014-04-11T09:15:19Z</time>
      </trkpt>
      <trkpt lat="44.06465" lon="2.02366">
        <ele>316.41</ele>
        <time>2014-04-11T09:15:28Z</time>
      </trkpt>
      <trkpt lat="44.06466" lon="2.02365">
        <ele>316.41</ele>
        <time>2014-04-11T09:15:39Z</time>
      </trkpt>
      <trkpt lat="44.06465" lon="2.02365">
        <ele>316.41</ele>
        <time>2014-04-11T09:15:55Z</time>
      </trkpt>
      <trkpt lat="44.06465" lon="2.02365">
        <ele>316.41</ele>
        <time>2014-04-11T09:15:58Z</time>
      </trkpt>
      <trkpt lat="44.06466" lon="2.02364">
        <ele>316.41</ele>
        <time>2014-04-11T09:16:08Z</time>
      </trkpt>
      <trkpt lat="44.06465" lon="2.02365">
        <ele>316.41</ele>
        <time>2014-04-11T09:16:14Z</time>
      </trkpt>
      <trkpt lat="44.06467" lon="2.02364">
        <ele>316.89</ele>
        <time>2014-04-11T09:16:25Z</time>
      </trkpt>
      <trkpt lat="44.06469" lon="2.02362">
        <ele>316.89</ele>
        <time>2014-04-11T09:16:31Z</time>
      </trkpt>
      <trkpt lat="44.06472" lon="2.02361">
        <ele>316.89</ele>
        <time>2014-04-11T09:16:41Z</time>
      </trkpt>
      <trkpt lat="44.06473" lon="2.02366">
        <ele>317.37</ele>
        <time>2014-04-11T09:17:08Z</time>
      </trkpt>
      <trkpt lat="44.06473" lon="2.02365">
        <ele>316.89</ele>
        <time>2014-04-11T09:17:23Z</time>
      </trkpt>
      <trkpt lat="44.06473" lon="2.02365">
        <ele>317.37</ele>
        <time>2014-04-11T09:17:44Z</time>
      </trkpt>
      <trkpt lat="44.06474" lon="2.02365">
        <ele>317.37</ele>
        <time>2014-04-11T09:17:53Z</time>
      </trkpt>
      <trkpt lat="44.06474" lon="2.02371">
        <ele>317.37</ele>
        <time>2014-04-11T09:17:58Z</time>
      </trkpt>
      <trkpt lat="44.06477" lon="2.02376">
        <ele>317.37</ele>
        <time>2014-04-11T09:18:02Z</time>
      </trkpt>
      <trkpt lat="44.0648" lon="2.02382">
        <ele>317.37</ele>
        <time>2014-04-11T09:18:07Z</time>
      </trkpt>
      <trkpt lat="44.06487" lon="2.02394">
        <ele>317.37</ele>
        <time>2014-04-11T09:18:17Z</time>
      </trkpt>
      <trkpt lat="44.06498" lon="2.02406">
        <ele>317.85</ele>
        <time>2014-04-11T09:18:30Z</time>
      </trkpt>
      <trkpt lat="44.06503" lon="2.0241">
        <ele>317.85</ele>
        <time>2014-04-11T09:18:36Z</time>
      </trkpt>
      <trkpt lat="44.0651" lon="2.02408">
        <ele>317.85</ele>
        <time>2014-04-11T09:18:42Z</time>
      </trkpt>
      <trkpt lat="44.06522" lon="2.02394">
        <ele>317.37</ele>
        <time>2014-04-11T09:18:55Z</time>
      </trkpt>
      <trkpt lat="44.0653" lon="2.02386">
        <ele>317.37</ele>
        <time>2014-04-11T09:19:05Z</time>
      </trkpt>
      <trkpt lat="44.06546" lon="2.02374">
        <ele>317.37</ele>
        <time>2014-04-11T09:19:20Z</time>
      </trkpt>
      <trkpt lat="44.06563" lon="2.02375">
        <ele>316.89</ele>
        <time>2014-04-11T09:19:34Z</time>
      </trkpt>
      <trkpt lat="44.06577" lon="2.0238">
        <ele>317.37</ele>
        <time>2014-04-11T09:19:46Z</time>
      </trkpt>
      <trkpt lat="44.06591" lon="2.02388">
        <ele>317.37</ele>
        <time>2014-04-11T09:19:59Z</time>
      </trkpt>
      <trkpt lat="44.06605" lon="2.02395">
        <ele>317.37</ele>
        <time>2014-04-11T09:20:11Z</time>
      </trkpt>
      <trkpt lat="44.06618" lon="2.02401">
        <ele>317.85</ele>
        <time>2014-04-11T09:20:23Z</time>
      </trkpt>
      <trkpt lat="44.06631" lon="2.02408">
        <ele>317.85</ele>
        <time>2014-04-11T09:20:35Z</time>
      </trkpt>
      <trkpt lat="44.06648" lon="2.02414">
        <ele>317.85</ele>
        <time>2014-04-11T09:20:48Z</time>
      </trkpt>
      <trkpt lat="44.06664" lon="2.0242">
        <ele>317.85</ele>
        <time>2014-04-11T09:21:02Z</time>
      </trkpt>
      <trkpt lat="44.06671" lon="2.02425">
        <ele>318.33</ele>
        <time>2014-04-11T09:21:13Z</time>
      </trkpt>
      <trkpt lat="44.06676" lon="2.02425">
        <ele>318.33</ele>
        <time>2014-04-11T09:21:21Z</time>
      </trkpt>
      <trkpt lat="44.06693" lon="2.02434">
        <ele>318.33</ele>
        <time>2014-04-11T09:21:36Z</time>
      </trkpt>
      <trkpt lat="44.06712" lon="2.0244">
        <ele>318.33</ele>
        <time>2014-04-11T09:21:51Z</time>
      </trkpt>
      <trkpt lat="44.06729" lon="2.02445">
        <ele>318.33</ele>
        <time>2014-04-11T09:22:06Z</time>
      </trkpt>
      <trkpt lat="44.06746" lon="2.02447">
        <ele>317.85</ele>
        <time>2014-04-11T09:22:20Z</time>
      </trkpt>
      <trkpt lat="44.06752" lon="2.02449">
        <ele>317.37</ele>
        <time>2014-04-11T09:22:24Z</time>
      </trkpt>
      <trkpt lat="44.0677" lon="2.02444">
        <ele>317.37</ele>
        <time>2014-04-11T09:22:39Z</time>
      </trkpt>
      <trkpt lat="44.06785" lon="2.02442">
        <ele>316.41</ele>
        <time>2014-04-11T09:22:53Z</time>
      </trkpt>
      <trkpt lat="44.06801" lon="2.02437">
        <ele>314.97</ele>
        <time>2014-04-11T09:23:07Z</time>
      </trkpt>
      <trkpt lat="44.06813" lon="2.02434">
        <ele>314.01</ele>
        <time>2014-04-11T09:23:20Z</time>
      </trkpt>
      <trkpt lat="44.06831" lon="2.02433">
        <ele>312.57</ele>
        <time>2014-04-11T09:23:36Z</time>
      </trkpt>
      <trkpt lat="44.06854" lon="2.02439">
        <ele>309.68</ele>
        <time>2014-04-11T09:23:54Z</time>
      </trkpt>
      <trkpt lat="44.06874" lon="2.02445">
        <ele>306.8</ele>
        <time>2014-04-11T09:24:13Z</time>
      </trkpt>
      <trkpt lat="44.06891" lon="2.02453">
        <ele>305.36</ele>
        <time>2014-04-11T09:24:26Z</time>
      </trkpt>
      <trkpt lat="44.0691" lon="2.02456">
        <ele>302.95</ele>
        <time>2014-04-11T09:24:42Z</time>
      </trkpt>
      <trkpt lat="44.06926" lon="2.02462">
        <ele>301.51</ele>
        <time>2014-04-11T09:24:56Z</time>
      </trkpt>
      <trkpt lat="44.06945" lon="2.02467">
        <ele>300.07</ele>
        <time>2014-04-11T09:25:11Z</time>
      </trkpt>
      <trkpt lat="44.06963" lon="2.02468">
        <ele>298.15</ele>
        <time>2014-04-11T09:25:28Z</time>
      </trkpt>
      <trkpt lat="44.06978" lon="2.02462">
        <ele>296.22</ele>
        <time>2014-04-11T09:25:44Z</time>
      </trkpt>
      <trkpt lat="44.0698" lon="2.02461">
        <ele>295.74</ele>
        <time>2014-04-11T09:25:46Z</time>
      </trkpt>
      <trkpt lat="44.06985" lon="2.02454">
        <ele>295.74</ele>
        <time>2014-04-11T09:25:52Z</time>
      </trkpt>
      <trkpt lat="44.06986" lon="2.02434">
        <ele>295.26</ele>
        <time>2014-04-11T09:26:07Z</time>
      </trkpt>
      <trkpt lat="44.06988" lon="2.02423">
        <ele>295.26</ele>
        <time>2014-04-11T09:26:21Z</time>
      </trkpt>
      <trkpt lat="44.06988" lon="2.02406">
        <ele>295.26</ele>
        <time>2014-04-11T09:26:34Z</time>
      </trkpt>
      <trkpt lat="44.06986" lon="2.024">
        <ele>295.26</ele>
        <time>2014-04-11T09:26:38Z</time>
      </trkpt>
      <trkpt lat="44.06986" lon="2.02381">
        <ele>295.74</ele>
        <time>2014-04-11T09:26:49Z</time>
      </trkpt>
      <trkpt lat="44.06987" lon="2.02373">
        <ele>295.74</ele>
        <time>2014-04-11T09:26:54Z</time>
      </trkpt>
      <trkpt lat="44.06989" lon="2.02361">
        <ele>295.26</ele>
        <time>2014-04-11T09:27:02Z</time>
      </trkpt>
      <trkpt lat="44.06991" lon="2.02354">
        <ele>295.26</ele>
        <time>2014-04-11T09:27:06Z</time>
      </trkpt>
      <trkpt lat="44.06994" lon="2.02341">
        <ele>295.26</ele>
        <time>2014-04-11T09:27:14Z</time>
      </trkpt>
      <trkpt lat="44.06999" lon="2.02327">
        <ele>295.26</ele>
        <time>2014-04-11T09:27:24Z</time>
      </trkpt>
      <trkpt lat="44.07006" lon="2.02303">
        <ele>296.22</ele>
        <time>2014-04-11T09:27:39Z</time>
      </trkpt>
      <trkpt lat="44.07006" lon="2.02293">
        <ele>297.18</ele>
        <time>2014-04-11T09:27:48Z</time>
      </trkpt>
      <trkpt lat="44.07006" lon="2.02287">
        <ele>297.67</ele>
        <time>2014-04-11T09:27:52Z</time>
      </trkpt>
      <trkpt lat="44.07007" lon="2.02281">
        <ele>298.15</ele>
        <time>2014-04-11T09:27:55Z</time>
      </trkpt>
      <trkpt lat="44.07009" lon="2.02268">
        <ele>298.63</ele>
        <time>2014-04-11T09:28:02Z</time>
      </trkpt>
      <trkpt lat="44.07009" lon="2.02261">
        <ele>298.15</ele>
        <time>2014-04-11T09:28:06Z</time>
      </trkpt>
      <trkpt lat="44.0701" lon="2.02255">
        <ele>298.63</ele>
        <time>2014-04-11T09:28:10Z</time>
      </trkpt>
      <trkpt lat="44.07012" lon="2.02248">
        <ele>298.63</ele>
        <time>2014-04-11T09:28:14Z</time>
      </trkpt>
      <trkpt lat="44.07015" lon="2.02229">
        <ele>298.63</ele>
        <time>2014-04-11T09:28:27Z</time>
      </trkpt>
      <trkpt lat="44.07016" lon="2.02219">
        <ele>298.63</ele>
        <time>2014-04-11T09:28:32Z</time>
      </trkpt>
      <trkpt lat="44.07015" lon="2.02198">
        <ele>298.15</ele>
        <time>2014-04-11T09:28:46Z</time>
      </trkpt>
      <trkpt lat="44.07015" lon="2.02193">
        <ele>298.15</ele>
        <time>2014-04-11T09:28:49Z</time>
      </trkpt>
      <trkpt lat="44.07014" lon="2.02178">
        <ele>298.15</ele>
        <time>2014-04-11T09:28:58Z</time>
      </trkpt>
      <trkpt lat="44.07013" lon="2.02172">
        <ele>298.63</ele>
        <time>2014-04-11T09:29:02Z</time>
      </trkpt>
      <trkpt lat="44.0701" lon="2.02161">
        <ele>298.63</ele>
        <time>2014-04-11T09:29:08Z</time>
      </trkpt>
      <trkpt lat="44.07008" lon="2.02152">
        <ele>298.63</ele>
        <time>2014-04-11T09:29:14Z</time>
      </trkpt>
      <trkpt lat="44.07008" lon="2.02148">
        <ele>299.11</ele>
        <time>2014-04-11T09:29:17Z</time>
      </trkpt>
      <trkpt lat="44.07007" lon="2.02142">
        <ele>299.11</ele>
        <time>2014-04-11T09:29:30Z</time>
      </trkpt>
      <trkpt lat="44.07007" lon="2.02139">
        <ele>299.11</ele>
        <time>2014-04-11T09:29:36Z</time>
      </trkpt>
      <trkpt lat="44.07006" lon="2.02135">
        <ele>299.11</ele>
        <time>2014-04-11T09:29:40Z</time>
      </trkpt>
      <trkpt lat="44.07006" lon="2.02116">
        <ele>299.11</ele>
        <time>2014-04-11T09:29:51Z</time>
      </trkpt>
      <trkpt lat="44.07005" lon="2.02105">
        <ele>299.11</ele>
        <time>2014-04-11T09:29:58Z</time>
      </trkpt>
      <trkpt lat="44.07004" lon="2.02097">
        <ele>299.59</ele>
        <time>2014-04-11T09:30:03Z</time>
      </trkpt>
      <trkpt lat="44.07007" lon="2.02074">
        <ele>299.59</ele>
        <time>2014-04-11T09:30:16Z</time>
      </trkpt>
      <trkpt lat="44.07007" lon="2.02062">
        <ele>299.59</ele>
        <time>2014-04-11T09:30:23Z</time>
      </trkpt>
      <trkpt lat="44.07008" lon="2.02052">
        <ele>300.07</ele>
        <time>2014-04-11T09:30:28Z</time>
      </trkpt>
      <trkpt lat="44.07008" lon="2.02034">
        <ele>301.03</ele>
        <time>2014-04-11T09:30:38Z</time>
      </trkpt>
      <trkpt lat="44.07011" lon="2.02014">
        <ele>301.51</ele>
        <time>2014-04-11T09:30:51Z</time>
      </trkpt>
      <trkpt lat="44.07015" lon="2.01994">
        <ele>301.99</ele>
        <time>2014-04-11T09:31:03Z</time>
      </trkpt>
      <trkpt lat="44.07019" lon="2.0197">
        <ele>302.95</ele>
        <time>2014-04-11T09:31:17Z</time>
      </trkpt>
      <trkpt lat="44.0702" lon="2.01965">
        <ele>302.95</ele>
        <time>2014-04-11T09:31:21Z</time>
      </trkpt>
      <trkpt lat="44.07022" lon="2.01958">
        <ele>302.95</ele>
        <time>2014-04-11T09:31:26Z</time>
      </trkpt>
      <trkpt lat="44.07023" lon="2.01956">
        <ele>302.95</ele>
        <time>2014-04-11T09:31:28Z</time>
      </trkpt>
      <trkpt lat="44.07029" lon="2.01956">
        <ele>303.43</ele>
        <time>2014-04-11T09:31:34Z</time>
      </trkpt>
      <trkpt lat="44.0704" lon="2.01958">
        <ele>301.99</ele>
        <time>2014-04-11T09:31:44Z</time>
      </trkpt>
      <trkpt lat="44.07046" lon="2.01956">
        <ele>301.51</ele>
        <time>2014-04-11T09:31:50Z</time>
      </trkpt>
      <trkpt lat="44.07059" lon="2.01945">
        <ele>300.07</ele>
        <time>2014-04-11T09:32:04Z</time>
      </trkpt>
      <trkpt lat="44.07063" lon="2.01941">
        <ele>299.59</ele>
        <time>2014-04-11T09:32:09Z</time>
      </trkpt>
      <trkpt lat="44.07079" lon="2.01929">
        <ele>297.67</ele>
        <time>2014-04-11T09:32:27Z</time>
      </trkpt>
      <trkpt lat="44.07093" lon="2.01922">
        <ele>295.74</ele>
        <time>2014-04-11T09:32:43Z</time>
      </trkpt>
      <trkpt lat="44.07099" lon="2.01919">
        <ele>295.26</ele>
        <time>2014-04-11T09:32:48Z</time>
      </trkpt>
      <trkpt lat="44.07113" lon="2.0191">
        <ele>294.3</ele>
        <time>2014-04-11T09:33:01Z</time>
      </trkpt>
      <trkpt lat="44.0712" lon="2.01905">
        <ele>294.3</ele>
        <time>2014-04-11T09:33:07Z</time>
      </trkpt>
      <trkpt lat="44.07131" lon="2.01898">
        <ele>293.82</ele>
        <time>2014-04-11T09:33:16Z</time>
      </trkpt>
      <trkpt lat="44.07148" lon="2.01888">
        <ele>293.34</ele>
        <time>2014-04-11T09:33:31Z</time>
      </trkpt>
      <trkpt lat="44.07154" lon="2.01885">
        <ele>292.86</ele>
        <time>2014-04-11T09:33:48Z</time>
      </trkpt>
      <trkpt lat="44.07155" lon="2.01886">
        <ele>292.38</ele>
        <time>2014-04-11T09:34:10Z</time>
      </trkpt>
      <trkpt lat="44.07156" lon="2.01885">
        <ele>292.38</ele>
        <time>2014-04-11T09:34:27Z</time>
      </trkpt>
      <trkpt lat="44.07173" lon="2.01867">
        <ele>291.42</ele>
        <time>2014-04-11T09:34:48Z</time>
      </trkpt>
      <trkpt lat="44.07171" lon="2.01861">
        <ele>291.42</ele>
        <time>2014-04-11T09:35:03Z</time>
      </trkpt>
      <trkpt lat="44.07174" lon="2.0186">
        <ele>291.42</ele>
        <time>2014-04-11T09:35:16Z</time>
      </trkpt>
      <trkpt lat="44.07176" lon="2.01849">
        <ele>290.94</ele>
        <time>2014-04-11T09:35:26Z</time>
      </trkpt>
      <trkpt lat="44.07179" lon="2.01827">
        <ele>290.46</ele>
        <time>2014-04-11T09:35:42Z</time>
      </trkpt>
      <trkpt lat="44.07181" lon="2.01824">
        <ele>290.46</ele>
        <time>2014-04-11T09:35:53Z</time>
      </trkpt>
      <trkpt lat="44.07181" lon="2.01821">
        <ele>290.46</ele>
        <time>2014-04-11T09:35:55Z</time>
      </trkpt>
      <trkpt lat="44.07182" lon="2.01815">
        <ele>290.46</ele>
        <time>2014-04-11T09:36:00Z</time>
      </trkpt>
      <trkpt lat="44.07183" lon="2.0181">
        <ele>290.46</ele>
        <time>2014-04-11T09:36:04Z</time>
      </trkpt>
      <trkpt lat="44.07185" lon="2.01805">
        <ele>289.97</ele>
        <time>2014-04-11T09:36:08Z</time>
      </trkpt>
      <trkpt lat="44.07186" lon="2.01802">
        <ele>289.97</ele>
        <time>2014-04-11T09:36:13Z</time>
      </trkpt>
      <trkpt lat="44.07188" lon="2.01794">
        <ele>289.49</ele>
        <time>2014-04-11T09:36:24Z</time>
      </trkpt>
      <trkpt lat="44.07189" lon="2.01794">
        <ele>289.49</ele>
        <time>2014-04-11T09:36:29Z</time>
      </trkpt>
      <trkpt lat="44.07188" lon="2.0179">
        <ele>289.49</ele>
        <time>2014-04-11T09:36:31Z</time>
      </trkpt>
      <trkpt lat="44.07192" lon="2.01778">
        <ele>289.01</ele>
        <time>2014-04-11T09:36:43Z</time>
      </trkpt>
      <trkpt lat="44.07194" lon="2.01769">
        <ele>288.53</ele>
        <time>2014-04-11T09:36:53Z</time>
      </trkpt>
      <trkpt lat="44.07194" lon="2.01768">
        <ele>289.01</ele>
        <time>2014-04-11T09:36:54Z</time>
      </trkpt>
      <trkpt lat="44.07195" lon="2.01759">
        <ele>288.53</ele>
        <time>2014-04-11T09:37:04Z</time>
      </trkpt>
      <trkpt lat="44.07195" lon="2.01754">
        <ele>288.05</ele>
        <time>2014-04-11T09:37:07Z</time>
      </trkpt>
      <trkpt lat="44.07196" lon="2.01749">
        <ele>288.05</ele>
        <time>2014-04-11T09:37:11Z</time>
      </trkpt>
      <trkpt lat="44.07199" lon="2.01736">
        <ele>287.57</ele>
        <time>2014-04-11T09:37:24Z</time>
      </trkpt>
      <trkpt lat="44.072" lon="2.01734">
        <ele>287.57</ele>
        <time>2014-04-11T09:37:25Z</time>
      </trkpt>
      <trkpt lat="44.07205" lon="2.01718">
        <ele>287.09</ele>
        <time>2014-04-11T09:37:38Z</time>
      </trkpt>
      <trkpt lat="44.07207" lon="2.01711">
        <ele>286.61</ele>
        <time>2014-04-11T09:37:51Z</time>
      </trkpt>
      <trkpt lat="44.07209" lon="2.01709">
        <ele>286.13</ele>
        <time>2014-04-11T09:37:56Z</time>
      </trkpt>
      <trkpt lat="44.07211" lon="2.01705">
        <ele>286.13</ele>
        <time>2014-04-11T09:38:01Z</time>
      </trkpt>
      <trkpt lat="44.07212" lon="2.01706">
        <ele>286.13</ele>
        <time>2014-04-11T09:38:08Z</time>
      </trkpt>
      <trkpt lat="44.07214" lon="2.01702">
        <ele>286.13</ele>
        <time>2014-04-11T09:38:11Z</time>
      </trkpt>
      <trkpt lat="44.07217" lon="2.01692">
        <ele>285.65</ele>
        <time>2014-04-11T09:38:17Z</time>
      </trkpt>
      <trkpt lat="44.07228" lon="2.0169">
        <ele>284.21</ele>
        <time>2014-04-11T09:38:27Z</time>
      </trkpt>
      <trkpt lat="44.07236" lon="2.01695">
        <ele>283.73</ele>
        <time>2014-04-11T09:38:34Z</time>
      </trkpt>
      <trkpt lat="44.07239" lon="2.01697">
        <ele>284.21</ele>
        <time>2014-04-11T09:38:37Z</time>
      </trkpt>
      <trkpt lat="44.0725" lon="2.017">
        <ele>284.69</ele>
        <time>2014-04-11T09:38:47Z</time>
      </trkpt>
      <trkpt lat="44.07263" lon="2.01706">
        <ele>285.65</ele>
        <time>2014-04-11T09:39:00Z</time>
      </trkpt>
      <trkpt lat="44.07263" lon="2.01706">
        <ele>285.65</ele>
        <time>2014-04-11T09:39:04Z</time>
      </trkpt>
      <trkpt lat="44.07268" lon="2.01708">
        <ele>286.13</ele>
        <time>2014-04-11T09:39:08Z</time>
      </trkpt>
      <trkpt lat="44.07271" lon="2.01709">
        <ele>286.13</ele>
        <time>2014-04-11T09:39:11Z</time>
      </trkpt>
      <trkpt lat="44.07275" lon="2.01711">
        <ele>286.13</ele>
        <time>2014-04-11T09:39:16Z</time>
      </trkpt>
      <trkpt lat="44.07279" lon="2.01712">
        <ele>286.13</ele>
        <time>2014-04-11T09:39:19Z</time>
      </trkpt>
      <trkpt lat="44.07292" lon="2.01719">
        <ele>286.13</ele>
        <time>2014-04-11T09:39:35Z</time>
      </trkpt>
      <trkpt lat="44.07295" lon="2.01718">
        <ele>286.13</ele>
        <time>2014-04-11T09:39:52Z</time>
      </trkpt>
      <trkpt lat="44.07298" lon="2.0172">
        <ele>285.65</ele>
        <time>2014-04-11T09:40:10Z</time>
      </trkpt>
      <trkpt lat="44.07299" lon="2.01722">
        <ele>285.65</ele>
        <time>2014-04-11T09:40:25Z</time>
      </trkpt>
      <trkpt lat="44.07307" lon="2.01725">
        <ele>285.65</ele>
        <time>2014-04-11T09:40:43Z</time>
      </trkpt>
      <trkpt lat="44.07317" lon="2.01729">
        <ele>284.21</ele>
        <time>2014-04-11T09:40:55Z</time>
      </trkpt>
      <trkpt lat="44.0733" lon="2.01734">
        <ele>282.77</ele>
        <time>2014-04-11T09:41:09Z</time>
      </trkpt>
      <trkpt lat="44.0734" lon="2.01739">
        <ele>280.36</ele>
        <time>2014-04-11T09:41:22Z</time>
      </trkpt>
      <trkpt lat="44.07355" lon="2.01744">
        <ele>277.96</ele>
        <time>2014-04-11T09:41:35Z</time>
      </trkpt>
      <trkpt lat="44.07369" lon="2.01745">
        <ele>276.04</ele>
        <time>2014-04-11T09:41:46Z</time>
      </trkpt>
      <trkpt lat="44.07379" lon="2.01743">
        <ele>275.07</ele>
        <time>2014-04-11T09:41:55Z</time>
      </trkpt>
      <trkpt lat="44.07386" lon="2.01733">
        <ele>274.11</ele>
        <time>2014-04-11T09:42:06Z</time>
      </trkpt>
      <trkpt lat="44.07398" lon="2.01724">
        <ele>273.15</ele>
        <time>2014-04-11T09:42:17Z</time>
      </trkpt>
      <trkpt lat="44.07412" lon="2.01714">
        <ele>271.23</ele>
        <time>2014-04-11T09:42:31Z</time>
      </trkpt>
      <trkpt lat="44.07419" lon="2.01708">
        <ele>270.75</ele>
        <time>2014-04-11T09:42:36Z</time>
      </trkpt>
      <trkpt lat="44.07426" lon="2.01696">
        <ele>270.27</ele>
        <time>2014-04-11T09:42:45Z</time>
      </trkpt>
      <trkpt lat="44.07437" lon="2.0169">
        <ele>269.31</ele>
        <time>2014-04-11T09:42:56Z</time>
      </trkpt>
      <trkpt lat="44.07447" lon="2.01685">
        <ele>268.35</ele>
        <time>2014-04-11T09:43:10Z</time>
      </trkpt>
      <trkpt lat="44.0745" lon="2.01686">
        <ele>267.86</ele>
        <time>2014-04-11T09:43:27Z</time>
      </trkpt>
      <trkpt lat="44.07451" lon="2.01687">
        <ele>266.9</ele>
        <time>2014-04-11T09:43:41Z</time>
      </trkpt>
      <trkpt lat="44.07456" lon="2.01687">
        <ele>265.46</ele>
        <time>2014-04-11T09:43:52Z</time>
      </trkpt>
      <trkpt lat="44.0746" lon="2.01691">
        <ele>264.5</ele>
        <time>2014-04-11T09:44:03Z</time>
      </trkpt>
      <trkpt lat="44.07461" lon="2.01707">
        <ele>262.58</ele>
        <time>2014-04-11T09:44:18Z</time>
      </trkpt>
      <trkpt lat="44.07462" lon="2.01724">
        <ele>259.21</ele>
        <time>2014-04-11T09:44:34Z</time>
      </trkpt>
      <trkpt lat="44.07461" lon="2.01742">
        <ele>256.33</ele>
        <time>2014-04-11T09:44:50Z</time>
      </trkpt>
      <trkpt lat="44.07459" lon="2.01761">
        <ele>253.44</ele>
        <time>2014-04-11T09:45:04Z</time>
      </trkpt>
      <trkpt lat="44.07458" lon="2.01778">
        <ele>252.48</ele>
        <time>2014-04-11T09:45:18Z</time>
      </trkpt>
      <trkpt lat="44.07455" lon="2.01788">
        <ele>252</ele>
        <time>2014-04-11T09:45:27Z</time>
      </trkpt>
      <trkpt lat="44.0745" lon="2.01806">
        <ele>249.12</ele>
        <time>2014-04-11T09:45:45Z</time>
      </trkpt>
      <trkpt lat="44.07449" lon="2.01819">
        <ele>247.2</ele>
        <time>2014-04-11T09:45:55Z</time>
      </trkpt>
      <trkpt lat="44.0745" lon="2.01831">
        <ele>246.23</ele>
        <time>2014-04-11T09:46:02Z</time>
      </trkpt>
      <trkpt lat="44.07445" lon="2.01852">
        <ele>243.83</ele>
        <time>2014-04-11T09:46:18Z</time>
      </trkpt>
      <trkpt lat="44.07437" lon="2.0187">
        <ele>240.95</ele>
        <time>2014-04-11T09:46:35Z</time>
      </trkpt>
      <trkpt lat="44.07433" lon="2.0189">
        <ele>239.02</ele>
        <time>2014-04-11T09:46:53Z</time>
      </trkpt>
      <trkpt lat="44.07427" lon="2.01905">
        <ele>237.58</ele>
        <time>2014-04-11T09:47:06Z</time>
      </trkpt>
      <trkpt lat="44.07422" lon="2.01919">
        <ele>236.62</ele>
        <time>2014-04-11T09:47:21Z</time>
      </trkpt>
      <trkpt lat="44.07421" lon="2.01933">
        <ele>235.18</ele>
        <time>2014-04-11T09:47:31Z</time>
      </trkpt>
      <trkpt lat="44.07418" lon="2.01959">
        <ele>233.74</ele>
        <time>2014-04-11T09:47:48Z</time>
      </trkpt>
      <trkpt lat="44.07409" lon="2.01974">
        <ele>232.78</ele>
        <time>2014-04-11T09:48:01Z</time>
      </trkpt>
      <trkpt lat="44.07408" lon="2.01988">
        <ele>231.81</ele>
        <time>2014-04-11T09:48:12Z</time>
      </trkpt>
      <trkpt lat="44.07405" lon="2.02001">
        <ele>230.37</ele>
        <time>2014-04-11T09:48:21Z</time>
      </trkpt>
      <trkpt lat="44.07403" lon="2.02013">
        <ele>228.45</ele>
        <time>2014-04-11T09:48:33Z</time>
      </trkpt>
      <trkpt lat="44.07397" lon="2.02032">
        <ele>227.01</ele>
        <time>2014-04-11T09:48:46Z</time>
      </trkpt>
      <trkpt lat="44.07394" lon="2.02044">
        <ele>226.05</ele>
        <time>2014-04-11T09:48:57Z</time>
      </trkpt>
      <trkpt lat="44.07391" lon="2.0206">
        <ele>225.57</ele>
        <time>2014-04-11T09:49:10Z</time>
      </trkpt>
      <trkpt lat="44.07391" lon="2.02062">
        <ele>226.05</ele>
        <time>2014-04-11T09:49:19Z</time>
      </trkpt>
      <trkpt lat="44.07391" lon="2.02064">
        <ele>226.05</ele>
        <time>2014-04-11T09:49:22Z</time>
      </trkpt>
      <trkpt lat="44.07397" lon="2.02072">
        <ele>226.53</ele>
        <time>2014-04-11T09:49:34Z</time>
      </trkpt>
      <trkpt lat="44.07408" lon="2.02084">
        <ele>224.61</ele>
        <time>2014-04-11T09:49:50Z</time>
      </trkpt>
      <trkpt lat="44.0741" lon="2.02087">
        <ele>224.12</ele>
        <time>2014-04-11T09:49:53Z</time>
      </trkpt>
      <trkpt lat="44.07414" lon="2.02094">
        <ele>223.64</ele>
        <time>2014-04-11T09:49:59Z</time>
      </trkpt>
      <trkpt lat="44.07424" lon="2.02102">
        <ele>221.72</ele>
        <time>2014-04-11T09:50:15Z</time>
      </trkpt>
      <trkpt lat="44.07431" lon="2.02113">
        <ele>220.76</ele>
        <time>2014-04-11T09:50:32Z</time>
      </trkpt>
      <trkpt lat="44.07439" lon="2.0213">
        <ele>219.8</ele>
        <time>2014-04-11T09:50:46Z</time>
      </trkpt>
      <trkpt lat="44.0745" lon="2.02144">
        <ele>218.36</ele>
        <time>2014-04-11T09:50:59Z</time>
      </trkpt>
      <trkpt lat="44.07456" lon="2.02151">
        <ele>217.4</ele>
        <time>2014-04-11T09:51:10Z</time>
      </trkpt>
      <trkpt lat="44.07464" lon="2.02165">
        <ele>216.43</ele>
        <time>2014-04-11T09:51:21Z</time>
      </trkpt>
      <trkpt lat="44.0747" lon="2.02175">
        <ele>214.99</ele>
        <time>2014-04-11T09:51:30Z</time>
      </trkpt>
      <trkpt lat="44.0748" lon="2.02186">
        <ele>213.55</ele>
        <time>2014-04-11T09:51:45Z</time>
      </trkpt>
      <trkpt lat="44.07492" lon="2.022">
        <ele>212.59</ele>
        <time>2014-04-11T09:51:59Z</time>
      </trkpt>
      <trkpt lat="44.075" lon="2.0221">
        <ele>211.15</ele>
        <time>2014-04-11T09:52:09Z</time>
      </trkpt>
      <trkpt lat="44.07503" lon="2.02219">
        <ele>210.67</ele>
        <time>2014-04-11T09:52:16Z</time>
      </trkpt>
      <trkpt lat="44.07512" lon="2.02231">
        <ele>210.67</ele>
        <time>2014-04-11T09:52:28Z</time>
      </trkpt>
      <trkpt lat="44.07521" lon="2.02245">
        <ele>211.15</ele>
        <time>2014-04-11T09:52:40Z</time>
      </trkpt>
      <trkpt lat="44.07526" lon="2.02256">
        <ele>210.67</ele>
        <time>2014-04-11T09:52:46Z</time>
      </trkpt>
      <trkpt lat="44.07528" lon="2.02259">
        <ele>211.15</ele>
        <time>2014-04-11T09:52:49Z</time>
      </trkpt>
      <trkpt lat="44.07533" lon="2.02269">
        <ele>211.15</ele>
        <time>2014-04-11T09:52:55Z</time>
      </trkpt>
      <trkpt lat="44.07533" lon="2.02291">
        <ele>212.11</ele>
        <time>2014-04-11T09:53:10Z</time>
      </trkpt>
      <trkpt lat="44.07531" lon="2.02313">
        <ele>213.07</ele>
        <time>2014-04-11T09:53:25Z</time>
      </trkpt>
      <trkpt lat="44.07532" lon="2.02332">
        <ele>214.03</ele>
        <time>2014-04-11T09:53:37Z</time>
      </trkpt>
      <trkpt lat="44.0754" lon="2.02345">
        <ele>212.59</ele>
        <time>2014-04-11T09:53:53Z</time>
      </trkpt>
      <trkpt lat="44.07544" lon="2.0235">
        <ele>212.59</ele>
        <time>2014-04-11T09:54:01Z</time>
      </trkpt>
      <trkpt lat="44.07548" lon="2.02358">
        <ele>211.63</ele>
        <time>2014-04-11T09:54:08Z</time>
      </trkpt>
      <trkpt lat="44.07557" lon="2.02375">
        <ele>210.19</ele>
        <time>2014-04-11T09:54:20Z</time>
      </trkpt>
      <trkpt lat="44.07559" lon="2.0238">
        <ele>209.7</ele>
        <time>2014-04-11T09:54:25Z</time>
      </trkpt>
      <trkpt lat="44.07562" lon="2.02386">
        <ele>209.22</ele>
        <time>2014-04-11T09:54:29Z</time>
      </trkpt>
      <trkpt lat="44.07573" lon="2.02404">
        <ele>207.3</ele>
        <time>2014-04-11T09:54:46Z</time>
      </trkpt>
      <trkpt lat="44.07577" lon="2.02408">
        <ele>206.34</ele>
        <time>2014-04-11T09:55:00Z</time>
      </trkpt>
      <trkpt lat="44.07577" lon="2.02408">
        <ele>206.34</ele>
        <time>2014-04-11T09:55:24Z</time>
      </trkpt>
      <trkpt lat="44.07577" lon="2.02409">
        <ele>206.34</ele>
        <time>2014-04-11T09:55:26Z</time>
      </trkpt>
      <trkpt lat="44.0758" lon="2.02415">
        <ele>205.86</ele>
        <time>2014-04-11T09:55:31Z</time>
      </trkpt>
      <trkpt lat="44.07583" lon="2.02417">
        <ele>205.38</ele>
        <time>2014-04-11T09:55:34Z</time>
      </trkpt>
      <trkpt lat="44.07586" lon="2.02419">
        <ele>204.9</ele>
        <time>2014-04-11T09:55:37Z</time>
      </trkpt>
      <trkpt lat="44.07589" lon="2.02422">
        <ele>204.42</ele>
        <time>2014-04-11T09:55:41Z</time>
      </trkpt>
      <trkpt lat="44.07595" lon="2.02438">
        <ele>202.98</ele>
        <time>2014-04-11T09:55:53Z</time>
      </trkpt>
      <trkpt lat="44.07597" lon="2.02441">
        <ele>202.49</ele>
        <time>2014-04-11T09:55:55Z</time>
      </trkpt>
      <trkpt lat="44.076" lon="2.02448">
        <ele>201.53</ele>
        <time>2014-04-11T09:56:01Z</time>
      </trkpt>
      <trkpt lat="44.07605" lon="2.02454">
        <ele>200.57</ele>
        <time>2014-04-11T09:56:06Z</time>
      </trkpt>
      <trkpt lat="44.07608" lon="2.02458">
        <ele>200.09</ele>
        <time>2014-04-11T09:56:10Z</time>
      </trkpt>
      <trkpt lat="44.07618" lon="2.0247">
        <ele>199.13</ele>
        <time>2014-04-11T09:56:22Z</time>
      </trkpt>
      <trkpt lat="44.07622" lon="2.02473">
        <ele>198.17</ele>
        <time>2014-04-11T09:56:27Z</time>
      </trkpt>
      <trkpt lat="44.07635" lon="2.02489">
        <ele>197.21</ele>
        <time>2014-04-11T09:56:42Z</time>
      </trkpt>
      <trkpt lat="44.07647" lon="2.02506">
        <ele>196.25</ele>
        <time>2014-04-11T09:56:58Z</time>
      </trkpt>
      <trkpt lat="44.07652" lon="2.02514">
        <ele>195.77</ele>
        <time>2014-04-11T09:57:14Z</time>
      </trkpt>
      <trkpt lat="44.07653" lon="2.02519">
        <ele>196.25</ele>
        <time>2014-04-11T09:57:31Z</time>
      </trkpt>
      <trkpt lat="44.07653" lon="2.02521">
        <ele>196.25</ele>
        <time>2014-04-11T09:57:35Z</time>
      </trkpt>
      <trkpt lat="44.07651" lon="2.02537">
        <ele>196.73</ele>
        <time>2014-04-11T09:57:46Z</time>
      </trkpt>
      <trkpt lat="44.07654" lon="2.02551">
        <ele>197.69</ele>
        <time>2014-04-11T09:57:56Z</time>
      </trkpt>
      <trkpt lat="44.07654" lon="2.02561">
        <ele>197.69</ele>
        <time>2014-04-11T09:58:02Z</time>
      </trkpt>
      <trkpt lat="44.07653" lon="2.02581">
        <ele>196.73</ele>
        <time>2014-04-11T09:58:15Z</time>
      </trkpt>
      <trkpt lat="44.07654" lon="2.0259">
        <ele>195.77</ele>
        <time>2014-04-11T09:58:21Z</time>
      </trkpt>
      <trkpt lat="44.07654" lon="2.02602">
        <ele>195.28</ele>
        <time>2014-04-11T09:58:29Z</time>
      </trkpt>
      <trkpt lat="44.07654" lon="2.02615">
        <ele>194.32</ele>
        <time>2014-04-11T09:58:37Z</time>
      </trkpt>
      <trkpt lat="44.07656" lon="2.02643">
        <ele>192.4</ele>
        <time>2014-04-11T09:58:53Z</time>
      </trkpt>
      <trkpt lat="44.07658" lon="2.02663">
        <ele>191.92</ele>
        <time>2014-04-11T09:59:07Z</time>
      </trkpt>
      <trkpt lat="44.07656" lon="2.02671">
        <ele>190.48</ele>
        <time>2014-04-11T09:59:14Z</time>
      </trkpt>
      <trkpt lat="44.07651" lon="2.02688">
        <ele>188.56</ele>
        <time>2014-04-11T09:59:29Z</time>
      </trkpt>
      <trkpt lat="44.07645" lon="2.02702">
        <ele>188.08</ele>
        <time>2014-04-11T09:59:45Z</time>
      </trkpt>
      <trkpt lat="44.07643" lon="2.02701">
        <ele>187.11</ele>
        <time>2014-04-11T09:59:47Z</time>
      </trkpt>
      <trkpt lat="44.07621" lon="2.02711">
        <ele>187.59</ele>
        <time>2014-04-11T10:00:03Z</time>
      </trkpt>
      <trkpt lat="44.07619" lon="2.02711">
        <ele>187.11</ele>
        <time>2014-04-11T10:00:04Z</time>
      </trkpt>
      <trkpt lat="44.07606" lon="2.02714">
        <ele>187.11</ele>
        <time>2014-04-11T10:00:20Z</time>
      </trkpt>
      <trkpt lat="44.07599" lon="2.02724">
        <ele>186.63</ele>
        <time>2014-04-11T10:00:32Z</time>
      </trkpt>
      <trkpt lat="44.07576" lon="2.02732">
        <ele>187.11</ele>
        <time>2014-04-11T10:00:47Z</time>
      </trkpt>
      <trkpt lat="44.0757" lon="2.02736">
        <ele>187.11</ele>
        <time>2014-04-11T10:00:53Z</time>
      </trkpt>
      <trkpt lat="44.07552" lon="2.02742">
        <ele>187.11</ele>
        <time>2014-04-11T10:01:09Z</time>
      </trkpt>
      <trkpt lat="44.0753" lon="2.02743">
        <ele>187.59</ele>
        <time>2014-04-11T10:01:27Z</time>
      </trkpt>
      <trkpt lat="44.07513" lon="2.02747">
        <ele>187.59</ele>
        <time>2014-04-11T10:01:42Z</time>
      </trkpt>
      <trkpt lat="44.07499" lon="2.02749">
        <ele>187.11</ele>
        <time>2014-04-11T10:01:53Z</time>
      </trkpt>
      <trkpt lat="44.07495" lon="2.02749">
        <ele>187.11</ele>
        <time>2014-04-11T10:01:56Z</time>
      </trkpt>
      <trkpt lat="44.07475" lon="2.0276">
        <ele>187.11</ele>
        <time>2014-04-11T10:02:14Z</time>
      </trkpt>
      <trkpt lat="44.07457" lon="2.02769">
        <ele>187.11</ele>
        <time>2014-04-11T10:02:33Z</time>
      </trkpt>
      <trkpt lat="44.07439" lon="2.0278">
        <ele>187.59</ele>
        <time>2014-04-11T10:02:48Z</time>
      </trkpt>
      <trkpt lat="44.07425" lon="2.02789">
        <ele>187.11</ele>
        <time>2014-04-11T10:03:05Z</time>
      </trkpt>
      <trkpt lat="44.07411" lon="2.02806">
        <ele>186.63</ele>
        <time>2014-04-11T10:03:20Z</time>
      </trkpt>
      <trkpt lat="44.07392" lon="2.02816">
        <ele>186.15</ele>
        <time>2014-04-11T10:03:35Z</time>
      </trkpt>
      <trkpt lat="44.07385" lon="2.02824">
        <ele>187.11</ele>
        <time>2014-04-11T10:03:46Z</time>
      </trkpt>
      <trkpt lat="44.07374" lon="2.02836">
        <ele>186.63</ele>
        <time>2014-04-11T10:03:58Z</time>
      </trkpt>
      <trkpt lat="44.07362" lon="2.02851">
        <ele>187.11</ele>
        <time>2014-04-11T10:04:11Z</time>
      </trkpt>
      <trkpt lat="44.07358" lon="2.02858">
        <ele>187.11</ele>
        <time>2014-04-11T10:04:20Z</time>
      </trkpt>
      <trkpt lat="44.07354" lon="2.02868">
        <ele>186.63</ele>
        <time>2014-04-11T10:04:36Z</time>
      </trkpt>
      <trkpt lat="44.07352" lon="2.02877">
        <ele>187.11</ele>
        <time>2014-04-11T10:04:46Z</time>
      </trkpt>
      <trkpt lat="44.0735" lon="2.02876">
        <ele>187.11</ele>
        <time>2014-04-11T10:05:04Z</time>
      </trkpt>
      <trkpt lat="44.07348" lon="2.02878">
        <ele>187.11</ele>
        <time>2014-04-11T10:05:27Z</time>
      </trkpt>
      <trkpt lat="44.07347" lon="2.02878">
        <ele>186.63</ele>
        <time>2014-04-11T10:05:49Z</time>
      </trkpt>
      <trkpt lat="44.07345" lon="2.02886">
        <ele>186.63</ele>
        <time>2014-04-11T10:06:00Z</time>
      </trkpt>
      <trkpt lat="44.07345" lon="2.0289">
        <ele>186.63</ele>
        <time>2014-04-11T10:06:05Z</time>
      </trkpt>
      <trkpt lat="44.07342" lon="2.02916">
        <ele>186.63</ele>
        <time>2014-04-11T10:06:18Z</time>
      </trkpt>
      <trkpt lat="44.07342" lon="2.02922">
        <ele>186.63</ele>
        <time>2014-04-11T10:06:22Z</time>
      </trkpt>
      <trkpt lat="44.07338" lon="2.02939">
        <ele>187.11</ele>
        <time>2014-04-11T10:06:34Z</time>
      </trkpt>
      <trkpt lat="44.07339" lon="2.02953">
        <ele>187.59</ele>
        <time>2014-04-11T10:06:47Z</time>
      </trkpt>
      <trkpt lat="44.0734" lon="2.02957">
        <ele>187.59</ele>
        <time>2014-04-11T10:06:50Z</time>
      </trkpt>
      <trkpt lat="44.07337" lon="2.02972">
        <ele>187.59</ele>
        <time>2014-04-11T10:07:04Z</time>
      </trkpt>
      <trkpt lat="44.07336" lon="2.02992">
        <ele>187.59</ele>
        <time>2014-04-11T10:07:18Z</time>
      </trkpt>
      <trkpt lat="44.07335" lon="2.03019">
        <ele>187.59</ele>
        <time>2014-04-11T10:07:35Z</time>
      </trkpt>
      <trkpt lat="44.07334" lon="2.03041">
        <ele>187.59</ele>
        <time>2014-04-11T10:07:48Z</time>
      </trkpt>
      <trkpt lat="44.07335" lon="2.03067">
        <ele>187.59</ele>
        <time>2014-04-11T10:08:05Z</time>
      </trkpt>
      <trkpt lat="44.07341" lon="2.03092">
        <ele>186.63</ele>
        <time>2014-04-11T10:08:21Z</time>
      </trkpt>
      <trkpt lat="44.07341" lon="2.03108">
        <ele>186.63</ele>
        <time>2014-04-11T10:08:29Z</time>
      </trkpt>
      <trkpt lat="44.07345" lon="2.03131">
        <ele>186.63</ele>
        <time>2014-04-11T10:08:45Z</time>
      </trkpt>
      <trkpt lat="44.07348" lon="2.0316">
        <ele>187.11</ele>
        <time>2014-04-11T10:09:02Z</time>
      </trkpt>
      <trkpt lat="44.07356" lon="2.03191">
        <ele>186.15</ele>
        <time>2014-04-11T10:09:19Z</time>
      </trkpt>
      <trkpt lat="44.07358" lon="2.03217">
        <ele>186.63</ele>
        <time>2014-04-11T10:09:35Z</time>
      </trkpt>
      <trkpt lat="44.07357" lon="2.03235">
        <ele>187.11</ele>
        <time>2014-04-11T10:09:44Z</time>
      </trkpt>
      <trkpt lat="44.07351" lon="2.03259">
        <ele>187.11</ele>
        <time>2014-04-11T10:09:59Z</time>
      </trkpt>
      <trkpt lat="44.0735" lon="2.03266">
        <ele>187.11</ele>
        <time>2014-04-11T10:10:04Z</time>
      </trkpt>
      <trkpt lat="44.07351" lon="2.0328">
        <ele>187.11</ele>
        <time>2014-04-11T10:10:12Z</time>
      </trkpt>
      <trkpt lat="44.07351" lon="2.03283">
        <ele>187.11</ele>
        <time>2014-04-11T10:10:14Z</time>
      </trkpt>
      <trkpt lat="44.07352" lon="2.03286">
        <ele>187.11</ele>
        <time>2014-04-11T10:10:16Z</time>
      </trkpt>
      <trkpt lat="44.07353" lon="2.0332">
        <ele>187.11</ele>
        <time>2014-04-11T10:10:35Z</time>
      </trkpt>
      <trkpt lat="44.07351" lon="2.03337">
        <ele>187.11</ele>
        <time>2014-04-11T10:10:44Z</time>
      </trkpt>
      <trkpt lat="44.0735" lon="2.03341">
        <ele>187.11</ele>
        <time>2014-04-11T10:10:47Z</time>
      </trkpt>
      <trkpt lat="44.07348" lon="2.03354">
        <ele>187.59</ele>
        <time>2014-04-11T10:10:57Z</time>
      </trkpt>
      <trkpt lat="44.07346" lon="2.03366">
        <ele>187.59</ele>
        <time>2014-04-11T10:11:12Z</time>
      </trkpt>
      <trkpt lat="44.07346" lon="2.03367">
        <ele>187.11</ele>
        <time>2014-04-11T10:11:29Z</time>
      </trkpt>
      <trkpt lat="44.07345" lon="2.03368">
        <ele>187.11</ele>
        <time>2014-04-11T10:11:53Z</time>
      </trkpt>
      <trkpt lat="44.07344" lon="2.03368">
        <ele>187.11</ele>
        <time>2014-04-11T10:12:13Z</time>
      </trkpt>
      <trkpt lat="44.07345" lon="2.03368">
        <ele>187.11</ele>
        <time>2014-04-11T10:12:41Z</time>
      </trkpt>
      <trkpt lat="44.07345" lon="2.03367">
        <ele>186.63</ele>
        <time>2014-04-11T10:12:59Z</time>
      </trkpt>
      <trkpt lat="44.07344" lon="2.03367">
        <ele>186.63</ele>
        <time>2014-04-11T10:13:32Z</time>
      </trkpt>
      <trkpt lat="44.07344" lon="2.03366">
        <ele>186.63</ele>
        <time>2014-04-11T10:14:00Z</time>
      </trkpt>
      <trkpt lat="44.07344" lon="2.03366">
        <ele>186.63</ele>
        <time>2014-04-11T10:14:29Z</time>
      </trkpt>
      <trkpt lat="44.07346" lon="2.03364">
        <ele>186.63</ele>
        <time>2014-04-11T10:15:03Z</time>
      </trkpt>
      <trkpt lat="44.07348" lon="2.03364">
        <ele>187.59</ele>
        <time>2014-04-11T10:15:31Z</time>
      </trkpt>
      <trkpt lat="44.07348" lon="2.03364">
        <ele>187.11</ele>
        <time>2014-04-11T10:16:02Z</time>
      </trkpt>
      <trkpt lat="44.07349" lon="2.03365">
        <ele>187.11</ele>
        <time>2014-04-11T10:16:29Z</time>
      </trkpt>
      <trkpt lat="44.07349" lon="2.03365">
        <ele>187.59</ele>
        <time>2014-04-11T10:16:55Z</time>
      </trkpt>
      <trkpt lat="44.0735" lon="2.03366">
        <ele>187.59</ele>
        <time>2014-04-11T10:17:20Z</time>
      </trkpt>
      <trkpt lat="44.07348" lon="2.03365">
        <ele>187.59</ele>
        <time>2014-04-11T10:17:48Z</time>
      </trkpt>
      <trkpt lat="44.07348" lon="2.03366">
        <ele>187.59</ele>
        <time>2014-04-11T10:18:22Z</time>
      </trkpt>
      <trkpt lat="44.07348" lon="2.03367">
        <ele>187.59</ele>
        <time>2014-04-11T10:18:53Z</time>
      </trkpt>
      <trkpt lat="44.07347" lon="2.03369">
        <ele>187.59</ele>
        <time>2014-04-11T10:19:25Z</time>
      </trkpt>
      <trkpt lat="44.07348" lon="2.03368">
        <ele>188.08</ele>
        <time>2014-04-11T10:19:52Z</time>
      </trkpt>
      <trkpt lat="44.07347" lon="2.03368">
        <ele>188.08</ele>
        <time>2014-04-11T10:20:12Z</time>
      </trkpt>
      <trkpt lat="44.07347" lon="2.0337">
        <ele>188.08</ele>
        <time>2014-04-11T10:20:48Z</time>
      </trkpt>
      <trkpt lat="44.07347" lon="2.03369">
        <ele>188.08</ele>
        <time>2014-04-11T10:21:16Z</time>
      </trkpt>
      <trkpt lat="44.07347" lon="2.03369">
        <ele>188.08</ele>
        <time>2014-04-11T10:21:41Z</time>
      </trkpt>
      <trkpt lat="44.07348" lon="2.03368">
        <ele>188.08</ele>
        <time>2014-04-11T10:22:05Z</time>
      </trkpt>
      <trkpt lat="44.07346" lon="2.03368">
        <ele>187.59</ele>
        <time>2014-04-11T10:22:31Z</time>
      </trkpt>
      <trkpt lat="44.07346" lon="2.03367">
        <ele>187.59</ele>
        <time>2014-04-11T10:23:00Z</time>
      </trkpt>
      <trkpt lat="44.07347" lon="2.03368">
        <ele>187.59</ele>
        <time>2014-04-11T10:23:27Z</time>
      </trkpt>
      <trkpt lat="44.07347" lon="2.03368">
        <ele>187.59</ele>
        <time>2014-04-11T10:23:55Z</time>
      </trkpt>
      <trkpt lat="44.07348" lon="2.03368">
        <ele>187.59</ele>
        <time>2014-04-11T10:24:21Z</time>
      </trkpt>
      <trkpt lat="44.07347" lon="2.03367">
        <ele>187.11</ele>
        <time>2014-04-11T10:24:54Z</time>
      </trkpt>
      <trkpt lat="44.07347" lon="2.03367">
        <ele>187.11</ele>
        <time>2014-04-11T10:25:27Z</time>
      </trkpt>
      <trkpt lat="44.07347" lon="2.03367">
        <ele>187.11</ele>
        <time>2014-04-11T10:25:58Z</time>
      </trkpt>
      <trkpt lat="44.07346" lon="2.03367">
        <ele>187.11</ele>
        <time>2014-04-11T10:26:30Z</time>
      </trkpt>
      <trkpt lat="44.07347" lon="2.03367">
        <ele>187.11</ele>
        <time>2014-04-11T10:26:56Z</time>
      </trkpt>
      <trkpt lat="44.07347" lon="2.03366">
        <ele>187.11</ele>
        <time>2014-04-11T10:27:20Z</time>
      </trkpt>
      <trkpt lat="44.07346" lon="2.03366">
        <ele>187.11</ele>
        <time>2014-04-11T10:27:45Z</time>
      </trkpt>
      <trkpt lat="44.07346" lon="2.03367">
        <ele>187.11</ele>
        <time>2014-04-11T10:28:09Z</time>
      </trkpt>
      <trkpt lat="44.07346" lon="2.03367">
        <ele>186.63</ele>
        <time>2014-04-11T10:28:27Z</time>
      </trkpt>
      <trkpt lat="44.07345" lon="2.03367">
        <ele>187.11</ele>
        <time>2014-04-11T10:28:44Z</time>
      </trkpt>
      <trkpt lat="44.07346" lon="2.03368">
        <ele>187.11</ele>
        <time>2014-04-11T10:29:05Z</time>
      </trkpt>
      <trkpt lat="44.07346" lon="2.03367">
        <ele>187.11</ele>
        <time>2014-04-11T10:29:35Z</time>
      </trkpt>
      <trkpt lat="44.07345" lon="2.03366">
        <ele>187.11</ele>
        <time>2014-04-11T10:30:00Z</time>
      </trkpt>
      <trkpt lat="44.07346" lon="2.03367">
        <ele>186.63</ele>
        <time>2014-04-11T10:30:33Z</time>
      </trkpt>
      <trkpt lat="44.07345" lon="2.03366">
        <ele>187.11</ele>
        <time>2014-04-11T10:30:55Z</time>
      </trkpt>
      <trkpt lat="44.07345" lon="2.03368">
        <ele>187.11</ele>
        <time>2014-04-11T10:31:17Z</time>
      </trkpt>
      <trkpt lat="44.07345" lon="2.03369">
        <ele>186.63</ele>
        <time>2014-04-11T10:31:43Z</time>
      </trkpt>
      <trkpt lat="44.07345" lon="2.03369">
        <ele>187.11</ele>
        <time>2014-04-11T10:32:11Z</time>
      </trkpt>
      <trkpt lat="44.07345" lon="2.03368">
        <ele>187.11</ele>
        <time>2014-04-11T10:32:37Z</time>
      </trkpt>
      <trkpt lat="44.07346" lon="2.03368">
        <ele>186.63</ele>
        <time>2014-04-11T10:33:11Z</time>
      </trkpt>
      <trkpt lat="44.07346" lon="2.03369">
        <ele>186.63</ele>
        <time>2014-04-11T10:33:41Z</time>
      </trkpt>
      <trkpt lat="44.07346" lon="2.03368">
        <ele>187.11</ele>
        <time>2014-04-11T10:34:16Z</time>
      </trkpt>
      <trkpt lat="44.07346" lon="2.03368">
        <ele>187.11</ele>
        <time>2014-04-11T10:34:39Z</time>
      </trkpt>
      <trkpt lat="44.07346" lon="2.03369">
        <ele>186.63</ele>
        <time>2014-04-11T10:35:17Z</time>
      </trkpt>
      <trkpt lat="44.07345" lon="2.03371">
        <ele>186.63</ele>
        <time>2014-04-11T10:35:55Z</time>
      </trkpt>
      <trkpt lat="44.07346" lon="2.03369">
        <ele>187.11</ele>
        <time>2014-04-11T10:36:32Z</time>
      </trkpt>
      <trkpt lat="44.07347" lon="2.03369">
        <ele>187.11</ele>
        <time>2014-04-11T10:37:12Z</time>
      </trkpt>
      <trkpt lat="44.07346" lon="2.03368">
        <ele>187.11</ele>
        <time>2014-04-11T10:37:50Z</time>
      </trkpt>
      <trkpt lat="44.07346" lon="2.03369">
        <ele>187.11</ele>
        <time>2014-04-11T10:38:26Z</time>
      </trkpt>
      <trkpt lat="44.07347" lon="2.0337">
        <ele>187.11</ele>
        <time>2014-04-11T10:38:55Z</time>
      </trkpt>
      <trkpt lat="44.07347" lon="2.0337">
        <ele>187.11</ele>
        <time>2014-04-11T10:39:28Z</time>
      </trkpt>
      <trkpt lat="44.07346" lon="2.03368">
        <ele>187.11</ele>
        <time>2014-04-11T10:39:54Z</time>
      </trkpt>
      <trkpt lat="44.07346" lon="2.03368">
        <ele>187.11</ele>
        <time>2014-04-11T10:40:20Z</time>
      </trkpt>
      <trkpt lat="44.07346" lon="2.03369">
        <ele>187.11</ele>
        <time>2014-04-11T10:40:44Z</time>
      </trkpt>
      <trkpt lat="44.07345" lon="2.0337">
        <ele>188.08</ele>
        <time>2014-04-11T10:40:58Z</time>
      </trkpt>
      <trkpt lat="44.07346" lon="2.03368">
        <ele>188.08</ele>
        <time>2014-04-11T10:41:30Z</time>
      </trkpt>
      <trkpt lat="44.07345" lon="2.03367">
        <ele>188.08</ele>
        <time>2014-04-11T10:41:57Z</time>
      </trkpt>
      <trkpt lat="44.07346" lon="2.03368">
        <ele>188.08</ele>
        <time>2014-04-11T10:42:20Z</time>
      </trkpt>
      <trkpt lat="44.07345" lon="2.03368">
        <ele>188.08</ele>
        <time>2014-04-11T10:42:46Z</time>
      </trkpt>
      <trkpt lat="44.07345" lon="2.03369">
        <ele>188.08</ele>
        <time>2014-04-11T10:43:11Z</time>
      </trkpt>
      <trkpt lat="44.07346" lon="2.03369">
        <ele>188.08</ele>
        <time>2014-04-11T10:43:41Z</time>
      </trkpt>
      <trkpt lat="44.07346" lon="2.03369">
        <ele>188.08</ele>
        <time>2014-04-11T10:44:08Z</time>
      </trkpt>
      <trkpt lat="44.07346" lon="2.03369">
        <ele>188.56</ele>
        <time>2014-04-11T10:44:36Z</time>
      </trkpt>
      <trkpt lat="44.07346" lon="2.03368">
        <ele>188.56</ele>
        <time>2014-04-11T10:45:00Z</time>
      </trkpt>
      <trkpt lat="44.07345" lon="2.03368">
        <ele>188.56</ele>
        <time>2014-04-11T10:45:29Z</time>
      </trkpt>
      <trkpt lat="44.07345" lon="2.03367">
        <ele>188.56</ele>
        <time>2014-04-11T10:45:56Z</time>
      </trkpt>
      <trkpt lat="44.07346" lon="2.03369">
        <ele>188.56</ele>
        <time>2014-04-11T10:46:22Z</time>
      </trkpt>
      <trkpt lat="44.07346" lon="2.03369">
        <ele>188.08</ele>
        <time>2014-04-11T10:46:47Z</time>
      </trkpt>
      <trkpt lat="44.07346" lon="2.03368">
        <ele>188.56</ele>
        <time>2014-04-11T10:47:13Z</time>
      </trkpt>
      <trkpt lat="44.07347" lon="2.03368">
        <ele>188.56</ele>
        <time>2014-04-11T10:47:38Z</time>
      </trkpt>
      <trkpt lat="44.07346" lon="2.03367">
        <ele>188.56</ele>
        <time>2014-04-11T10:48:06Z</time>
      </trkpt>
      <trkpt lat="44.07347" lon="2.03367">
        <ele>188.56</ele>
        <time>2014-04-11T10:48:33Z</time>
      </trkpt>
      <trkpt lat="44.07347" lon="2.03367">
        <ele>188.56</ele>
        <time>2014-04-11T10:48:57Z</time>
      </trkpt>
      <trkpt lat="44.07347" lon="2.03367">
        <ele>188.56</ele>
        <time>2014-04-11T10:49:27Z</time>
      </trkpt>
      <trkpt lat="44.07347" lon="2.03367">
        <ele>188.56</ele>
        <time>2014-04-11T10:49:53Z</time>
      </trkpt>
      <trkpt lat="44.07346" lon="2.03368">
        <ele>188.56</ele>
        <time>2014-04-11T10:50:23Z</time>
      </trkpt>
      <trkpt lat="44.07346" lon="2.0337">
        <ele>188.56</ele>
        <time>2014-04-11T10:50:54Z</time>
      </trkpt>
      <trkpt lat="44.07345" lon="2.03367">
        <ele>188.56</ele>
        <time>2014-04-11T10:51:29Z</time>
      </trkpt>
      <trkpt lat="44.07343" lon="2.03367">
        <ele>188.56</ele>
        <time>2014-04-11T10:52:04Z</time>
      </trkpt>
      <trkpt lat="44.07344" lon="2.03367">
        <ele>188.56</ele>
        <time>2014-04-11T10:52:37Z</time>
      </trkpt>
      <trkpt lat="44.07344" lon="2.03368">
        <ele>188.56</ele>
        <time>2014-04-11T10:53:10Z</time>
      </trkpt>
      <trkpt lat="44.07344" lon="2.03367">
        <ele>188.56</ele>
        <time>2014-04-11T10:53:39Z</time>
      </trkpt>
      <trkpt lat="44.07344" lon="2.03367">
        <ele>188.56</ele>
        <time>2014-04-11T10:54:08Z</time>
      </trkpt>
      <trkpt lat="44.07344" lon="2.03367">
        <ele>188.56</ele>
        <time>2014-04-11T10:54:31Z</time>
      </trkpt>
      <trkpt lat="44.07344" lon="2.03368">
        <ele>188.56</ele>
        <time>2014-04-11T10:54:50Z</time>
      </trkpt>
      <trkpt lat="44.07344" lon="2.03368">
        <ele>188.56</ele>
        <time>2014-04-11T10:55:21Z</time>
      </trkpt>
      <trkpt lat="44.07344" lon="2.03368">
        <ele>188.56</ele>
        <time>2014-04-11T10:55:40Z</time>
      </trkpt>
      <trkpt lat="44.07344" lon="2.03368">
        <ele>188.56</ele>
        <time>2014-04-11T10:56:01Z</time>
      </trkpt>
      <trkpt lat="44.07344" lon="2.03367">
        <ele>188.56</ele>
        <time>2014-04-11T10:56:28Z</time>
      </trkpt>
      <trkpt lat="44.07344" lon="2.03366">
        <ele>188.56</ele>
        <time>2014-04-11T10:56:48Z</time>
      </trkpt>
      <trkpt lat="44.07344" lon="2.03366">
        <ele>189.04</ele>
        <time>2014-04-11T10:57:14Z</time>
      </trkpt>
      <trkpt lat="44.07344" lon="2.03369">
        <ele>188.56</ele>
        <time>2014-04-11T10:57:36Z</time>
      </trkpt>
      <trkpt lat="44.07345" lon="2.03376">
        <ele>189.04</ele>
        <time>2014-04-11T10:57:50Z</time>
      </trkpt>
      <trkpt lat="44.07345" lon="2.03376">
        <ele>189.04</ele>
        <time>2014-04-11T10:58:19Z</time>
      </trkpt>
      <trkpt lat="44.07345" lon="2.03377">
        <ele>189.04</ele>
        <time>2014-04-11T10:58:46Z</time>
      </trkpt>
      <trkpt lat="44.07345" lon="2.03378">
        <ele>189.04</ele>
        <time>2014-04-11T10:59:07Z</time>
      </trkpt>
      <trkpt lat="44.07344" lon="2.03378">
        <ele>189.04</ele>
        <time>2014-04-11T10:59:38Z</time>
      </trkpt>
      <trkpt lat="44.07345" lon="2.03375">
        <ele>189.04</ele>
        <time>2014-04-11T10:59:55Z</time>
      </trkpt>
      <trkpt lat="44.07345" lon="2.03374">
        <ele>189.04</ele>
        <time>2014-04-11T10:59:58Z</time>
      </trkpt>
      <trkpt lat="44.07344" lon="2.03372">
        <ele>189.04</ele>
        <time>2014-04-11T11:00:13Z</time>
      </trkpt>
      <trkpt lat="44.07343" lon="2.03374">
        <ele>189.04</ele>
        <time>2014-04-11T11:00:26Z</time>
      </trkpt>
      <trkpt lat="44.07343" lon="2.03374">
        <ele>189.04</ele>
        <time>2014-04-11T11:00:27Z</time>
      </trkpt>
      <trkpt lat="44.07341" lon="2.03383">
        <ele>189.04</ele>
        <time>2014-04-11T11:00:35Z</time>
      </trkpt>
      <trkpt lat="44.07338" lon="2.03399">
        <ele>189.04</ele>
        <time>2014-04-11T11:00:50Z</time>
      </trkpt>
      <trkpt lat="44.07337" lon="2.03414">
        <ele>189.04</ele>
        <time>2014-04-11T11:01:04Z</time>
      </trkpt>
      <trkpt lat="44.07337" lon="2.03415">
        <ele>189.04</ele>
        <time>2014-04-11T11:01:05Z</time>
      </trkpt>
      <trkpt lat="44.07336" lon="2.03432">
        <ele>189.04</ele>
        <time>2014-04-11T11:01:17Z</time>
      </trkpt>
      <trkpt lat="44.0733" lon="2.03454">
        <ele>189.52</ele>
        <time>2014-04-11T11:01:31Z</time>
      </trkpt>
      <trkpt lat="44.07327" lon="2.03464">
        <ele>189.52</ele>
        <time>2014-04-11T11:01:46Z</time>
      </trkpt>
      <trkpt lat="44.07319" lon="2.03469">
        <ele>189.52</ele>
        <time>2014-04-11T11:02:00Z</time>
      </trkpt>
      <trkpt lat="44.07315" lon="2.03467">
        <ele>189.52</ele>
        <time>2014-04-11T11:02:15Z</time>
      </trkpt>
      <trkpt lat="44.07311" lon="2.03466">
        <ele>189.52</ele>
        <time>2014-04-11T11:02:35Z</time>
      </trkpt>
      <trkpt lat="44.07295" lon="2.03472">
        <ele>189.52</ele>
        <time>2014-04-11T11:02:53Z</time>
      </trkpt>
      <trkpt lat="44.07289" lon="2.03478">
        <ele>190</ele>
        <time>2014-04-11T11:03:09Z</time>
      </trkpt>
      <trkpt lat="44.07283" lon="2.03499">
        <ele>190</ele>
        <time>2014-04-11T11:03:25Z</time>
      </trkpt>
      <trkpt lat="44.07282" lon="2.03506">
        <ele>190</ele>
        <time>2014-04-11T11:03:29Z</time>
      </trkpt>
      <trkpt lat="44.07282" lon="2.03527">
        <ele>190.96</ele>
        <time>2014-04-11T11:03:45Z</time>
      </trkpt>
      <trkpt lat="44.07283" lon="2.03539">
        <ele>191.44</ele>
        <time>2014-04-11T11:03:57Z</time>
      </trkpt>
      <trkpt lat="44.07275" lon="2.03553">
        <ele>192.88</ele>
        <time>2014-04-11T11:04:15Z</time>
      </trkpt>
      <trkpt lat="44.07271" lon="2.03549">
        <ele>192.88</ele>
        <time>2014-04-11T11:04:23Z</time>
      </trkpt>
      <trkpt lat="44.07257" lon="2.03553">
        <ele>193.84</ele>
        <time>2014-04-11T11:04:39Z</time>
      </trkpt>
      <trkpt lat="44.07252" lon="2.0355">
        <ele>193.84</ele>
        <time>2014-04-11T11:04:55Z</time>
      </trkpt>
      <trkpt lat="44.07239" lon="2.03547">
        <ele>193.84</ele>
        <time>2014-04-11T11:05:07Z</time>
      </trkpt>
      <trkpt lat="44.07221" lon="2.03565">
        <ele>194.8</ele>
        <time>2014-04-11T11:05:25Z</time>
      </trkpt>
      <trkpt lat="44.07206" lon="2.03576">
        <ele>195.77</ele>
        <time>2014-04-11T11:05:42Z</time>
      </trkpt>
      <trkpt lat="44.07191" lon="2.03571">
        <ele>196.25</ele>
        <time>2014-04-11T11:05:57Z</time>
      </trkpt>
      <trkpt lat="44.07178" lon="2.03562">
        <ele>196.73</ele>
        <time>2014-04-11T11:06:11Z</time>
      </trkpt>
      <trkpt lat="44.07172" lon="2.03559">
        <ele>196.73</ele>
        <time>2014-04-11T11:06:18Z</time>
      </trkpt>
      <trkpt lat="44.07163" lon="2.03561">
        <ele>197.69</ele>
        <time>2014-04-11T11:06:28Z</time>
      </trkpt>
      <trkpt lat="44.07154" lon="2.03572">
        <ele>198.17</ele>
        <time>2014-04-11T11:06:41Z</time>
      </trkpt>
      <trkpt lat="44.07154" lon="2.03573">
        <ele>198.17</ele>
        <time>2014-04-11T11:06:42Z</time>
      </trkpt>
      <trkpt lat="44.0715" lon="2.03579">
        <ele>198.17</ele>
        <time>2014-04-11T11:06:48Z</time>
      </trkpt>
      <trkpt lat="44.07143" lon="2.03599">
        <ele>199.13</ele>
        <time>2014-04-11T11:07:02Z</time>
      </trkpt>
      <trkpt lat="44.07139" lon="2.03611">
        <ele>199.61</ele>
        <time>2014-04-11T11:07:16Z</time>
      </trkpt>
      <trkpt lat="44.07134" lon="2.03618">
        <ele>199.61</ele>
        <time>2014-04-11T11:07:29Z</time>
      </trkpt>
      <trkpt lat="44.07126" lon="2.03637">
        <ele>200.57</ele>
        <time>2014-04-11T11:07:43Z</time>
      </trkpt>
      <trkpt lat="44.07115" lon="2.03657">
        <ele>201.53</ele>
        <time>2014-04-11T11:07:58Z</time>
      </trkpt>
      <trkpt lat="44.07108" lon="2.03671">
        <ele>202.49</ele>
        <time>2014-04-11T11:08:11Z</time>
      </trkpt>
      <trkpt lat="44.07098" lon="2.03688">
        <ele>203.46</ele>
        <time>2014-04-11T11:08:25Z</time>
      </trkpt>
      <trkpt lat="44.07093" lon="2.03698">
        <ele>204.42</ele>
        <time>2014-04-11T11:08:34Z</time>
      </trkpt>
      <trkpt lat="44.07088" lon="2.03707">
        <ele>204.9</ele>
        <time>2014-04-11T11:08:42Z</time>
      </trkpt>
      <trkpt lat="44.07078" lon="2.03715">
        <ele>206.34</ele>
        <time>2014-04-11T11:08:53Z</time>
      </trkpt>
      <trkpt lat="44.07073" lon="2.03712">
        <ele>206.82</ele>
        <time>2014-04-11T11:08:59Z</time>
      </trkpt>
      <trkpt lat="44.07071" lon="2.0371">
        <ele>206.82</ele>
        <time>2014-04-11T11:09:01Z</time>
      </trkpt>
      <trkpt lat="44.07063" lon="2.03695">
        <ele>208.26</ele>
        <time>2014-04-11T11:09:15Z</time>
      </trkpt>
      <trkpt lat="44.07063" lon="2.03694">
        <ele>208.26</ele>
        <time>2014-04-11T11:09:16Z</time>
      </trkpt>
      <trkpt lat="44.07058" lon="2.03674">
        <ele>209.7</ele>
        <time>2014-04-11T11:09:32Z</time>
      </trkpt>
      <trkpt lat="44.07052" lon="2.03657">
        <ele>210.67</ele>
        <time>2014-04-11T11:09:46Z</time>
      </trkpt>
      <trkpt lat="44.07044" lon="2.03636">
        <ele>212.11</ele>
        <time>2014-04-11T11:10:02Z</time>
      </trkpt>
      <trkpt lat="44.07044" lon="2.03628">
        <ele>213.07</ele>
        <time>2014-04-11T11:10:15Z</time>
      </trkpt>
      <trkpt lat="44.07041" lon="2.03619">
        <ele>214.03</ele>
        <time>2014-04-11T11:10:28Z</time>
      </trkpt>
      <trkpt lat="44.07036" lon="2.03605">
        <ele>214.99</ele>
        <time>2014-04-11T11:10:39Z</time>
      </trkpt>
      <trkpt lat="44.07025" lon="2.03585">
        <ele>216.91</ele>
        <time>2014-04-11T11:10:54Z</time>
      </trkpt>
      <trkpt lat="44.07012" lon="2.03576">
        <ele>217.88</ele>
        <time>2014-04-11T11:11:07Z</time>
      </trkpt>
      <trkpt lat="44.07004" lon="2.03575">
        <ele>218.84</ele>
        <time>2014-04-11T11:11:15Z</time>
      </trkpt>
      <trkpt lat="44.06994" lon="2.03576">
        <ele>219.8</ele>
        <time>2014-04-11T11:11:23Z</time>
      </trkpt>
      <trkpt lat="44.06985" lon="2.03577">
        <ele>220.76</ele>
        <time>2014-04-11T11:11:31Z</time>
      </trkpt>
      <trkpt lat="44.06977" lon="2.03582">
        <ele>221.24</ele>
        <time>2014-04-11T11:11:38Z</time>
      </trkpt>
      <trkpt lat="44.06962" lon="2.03591">
        <ele>223.16</ele>
        <time>2014-04-11T11:11:53Z</time>
      </trkpt>
      <trkpt lat="44.0695" lon="2.03589">
        <ele>223.16</ele>
        <time>2014-04-11T11:12:05Z</time>
      </trkpt>
      <trkpt lat="44.06935" lon="2.03584">
        <ele>224.12</ele>
        <time>2014-04-11T11:12:19Z</time>
      </trkpt>
      <trkpt lat="44.06928" lon="2.03583">
        <ele>224.61</ele>
        <time>2014-04-11T11:12:27Z</time>
      </trkpt>
      <trkpt lat="44.06919" lon="2.03581">
        <ele>225.09</ele>
        <time>2014-04-11T11:12:36Z</time>
      </trkpt>
      <trkpt lat="44.06914" lon="2.0358">
        <ele>225.09</ele>
        <time>2014-04-11T11:12:41Z</time>
      </trkpt>
      <trkpt lat="44.06895" lon="2.03576">
        <ele>225.57</ele>
        <time>2014-04-11T11:12:53Z</time>
      </trkpt>
      <trkpt lat="44.0688" lon="2.03574">
        <ele>226.53</ele>
        <time>2014-04-11T11:13:06Z</time>
      </trkpt>
      <trkpt lat="44.06879" lon="2.03575">
        <ele>226.53</ele>
        <time>2014-04-11T11:13:07Z</time>
      </trkpt>
      <trkpt lat="44.06874" lon="2.03575">
        <ele>227.01</ele>
        <time>2014-04-11T11:13:14Z</time>
      </trkpt>
      <trkpt lat="44.0686" lon="2.03579">
        <ele>227.97</ele>
        <time>2014-04-11T11:13:26Z</time>
      </trkpt>
      <trkpt lat="44.06851" lon="2.03579">
        <ele>228.45</ele>
        <time>2014-04-11T11:13:33Z</time>
      </trkpt>
      <trkpt lat="44.06829" lon="2.03591">
        <ele>229.89</ele>
        <time>2014-04-11T11:13:51Z</time>
      </trkpt>
      <trkpt lat="44.06826" lon="2.03592">
        <ele>230.37</ele>
        <time>2014-04-11T11:13:54Z</time>
      </trkpt>
      <trkpt lat="44.06824" lon="2.03591">
        <ele>230.37</ele>
        <time>2014-04-11T11:13:56Z</time>
      </trkpt>
      <trkpt lat="44.06818" lon="2.03578">
        <ele>230.85</ele>
        <time>2014-04-11T11:14:08Z</time>
      </trkpt>
      <trkpt lat="44.06816" lon="2.03564">
        <ele>230.85</ele>
        <time>2014-04-11T11:14:19Z</time>
      </trkpt>
      <trkpt lat="44.06816" lon="2.03558">
        <ele>230.85</ele>
        <time>2014-04-11T11:14:24Z</time>
      </trkpt>
      <trkpt lat="44.06821" lon="2.0354">
        <ele>230.85</ele>
        <time>2014-04-11T11:14:36Z</time>
      </trkpt>
      <trkpt lat="44.06832" lon="2.03519">
        <ele>231.81</ele>
        <time>2014-04-11T11:14:51Z</time>
      </trkpt>
      <trkpt lat="44.06834" lon="2.03517">
        <ele>231.81</ele>
        <time>2014-04-11T11:15:08Z</time>
      </trkpt>
      <trkpt lat="44.06834" lon="2.03517">
        <ele>231.33</ele>
        <time>2014-04-11T11:15:22Z</time>
      </trkpt>
      <trkpt lat="44.06841" lon="2.03505">
        <ele>231.33</ele>
        <time>2014-04-11T11:15:32Z</time>
      </trkpt>
      <trkpt lat="44.06847" lon="2.03494">
        <ele>231.81</ele>
        <time>2014-04-11T11:15:49Z</time>
      </trkpt>
      <trkpt lat="44.06847" lon="2.03493">
        <ele>232.3</ele>
        <time>2014-04-11T11:16:07Z</time>
      </trkpt>
      <trkpt lat="44.06846" lon="2.03494">
        <ele>231.81</ele>
        <time>2014-04-11T11:16:34Z</time>
      </trkpt>
      <trkpt lat="44.06846" lon="2.03494">
        <ele>231.81</ele>
        <time>2014-04-11T11:16:56Z</time>
      </trkpt>
      <trkpt lat="44.06842" lon="2.03502">
        <ele>231.81</ele>
        <time>2014-04-11T11:17:07Z</time>
      </trkpt>
      <trkpt lat="44.06834" lon="2.03515">
        <ele>231.33</ele>
        <time>2014-04-11T11:17:19Z</time>
      </trkpt>
      <trkpt lat="44.06822" lon="2.03535">
        <ele>231.33</ele>
        <time>2014-04-11T11:17:35Z</time>
      </trkpt>
      <trkpt lat="44.06813" lon="2.03556">
        <ele>231.33</ele>
        <time>2014-04-11T11:17:51Z</time>
      </trkpt>
      <trkpt lat="44.06802" lon="2.03569">
        <ele>232.78</ele>
        <time>2014-04-11T11:18:04Z</time>
      </trkpt>
      <trkpt lat="44.06797" lon="2.03568">
        <ele>231.33</ele>
        <time>2014-04-11T11:18:14Z</time>
      </trkpt>
      <trkpt lat="44.06791" lon="2.03565">
        <ele>233.26</ele>
        <time>2014-04-11T11:18:24Z</time>
      </trkpt>
      <trkpt lat="44.06776" lon="2.0356">
        <ele>235.18</ele>
        <time>2014-04-11T11:18:39Z</time>
      </trkpt>
      <trkpt lat="44.06755" lon="2.03552">
        <ele>237.1</ele>
        <time>2014-04-11T11:18:57Z</time>
      </trkpt>
      <trkpt lat="44.06738" lon="2.0355">
        <ele>239.02</ele>
        <time>2014-04-11T11:19:13Z</time>
      </trkpt>
      <trkpt lat="44.06721" lon="2.03549">
        <ele>241.43</ele>
        <time>2014-04-11T11:19:30Z</time>
      </trkpt>
      <trkpt lat="44.06704" lon="2.03548">
        <ele>242.87</ele>
        <time>2014-04-11T11:19:47Z</time>
      </trkpt>
      <trkpt lat="44.0669" lon="2.03543">
        <ele>244.79</ele>
        <time>2014-04-11T11:20:02Z</time>
      </trkpt>
      <trkpt lat="44.0668" lon="2.03539">
        <ele>244.79</ele>
        <time>2014-04-11T11:20:11Z</time>
      </trkpt>
      <trkpt lat="44.06675" lon="2.03536">
        <ele>245.75</ele>
        <time>2014-04-11T11:20:16Z</time>
      </trkpt>
      <trkpt lat="44.0667" lon="2.03533">
        <ele>245.75</ele>
        <time>2014-04-11T11:20:21Z</time>
      </trkpt>
      <trkpt lat="44.06662" lon="2.03531">
        <ele>246.72</ele>
        <time>2014-04-11T11:20:29Z</time>
      </trkpt>
      <trkpt lat="44.06653" lon="2.03526">
        <ele>247.68</ele>
        <time>2014-04-11T11:20:38Z</time>
      </trkpt>
      <trkpt lat="44.06644" lon="2.03523">
        <ele>248.16</ele>
        <time>2014-04-11T11:20:47Z</time>
      </trkpt>
      <trkpt lat="44.06633" lon="2.03519">
        <ele>249.6</ele>
        <time>2014-04-11T11:20:59Z</time>
      </trkpt>
      <trkpt lat="44.06621" lon="2.03517">
        <ele>250.56</ele>
        <time>2014-04-11T11:21:13Z</time>
      </trkpt>
      <trkpt lat="44.0661" lon="2.03515">
        <ele>251.52</ele>
        <time>2014-04-11T11:21:24Z</time>
      </trkpt>
      <trkpt lat="44.06598" lon="2.03522">
        <ele>252.96</ele>
        <time>2014-04-11T11:21:38Z</time>
      </trkpt>
      <trkpt lat="44.06583" lon="2.03528">
        <ele>255.37</ele>
        <time>2014-04-11T11:21:55Z</time>
      </trkpt>
      <trkpt lat="44.06571" lon="2.0353">
        <ele>257.29</ele>
        <time>2014-04-11T11:22:11Z</time>
      </trkpt>
      <trkpt lat="44.06566" lon="2.03531">
        <ele>258.25</ele>
        <time>2014-04-11T11:22:16Z</time>
      </trkpt>
      <trkpt lat="44.06549" lon="2.03528">
        <ele>260.17</ele>
        <time>2014-04-11T11:22:33Z</time>
      </trkpt>
      <trkpt lat="44.06533" lon="2.03528">
        <ele>262.58</ele>
        <time>2014-04-11T11:22:51Z</time>
      </trkpt>
      <trkpt lat="44.06523" lon="2.03525">
        <ele>264.5</ele>
        <time>2014-04-11T11:23:03Z</time>
      </trkpt>
      <trkpt lat="44.06511" lon="2.03518">
        <ele>265.94</ele>
        <time>2014-04-11T11:23:15Z</time>
      </trkpt>
      <trkpt lat="44.06498" lon="2.03515">
        <ele>267.86</ele>
        <time>2014-04-11T11:23:29Z</time>
      </trkpt>
      <trkpt lat="44.06485" lon="2.0351">
        <ele>269.31</ele>
        <time>2014-04-11T11:23:42Z</time>
      </trkpt>
      <trkpt lat="44.06473" lon="2.03504">
        <ele>271.23</ele>
        <time>2014-04-11T11:23:55Z</time>
      </trkpt>
      <trkpt lat="44.06463" lon="2.03501">
        <ele>272.67</ele>
        <time>2014-04-11T11:24:09Z</time>
      </trkpt>
      <trkpt lat="44.06448" lon="2.03499">
        <ele>275.07</ele>
        <time>2014-04-11T11:24:25Z</time>
      </trkpt>
      <trkpt lat="44.06438" lon="2.03497">
        <ele>277</ele>
        <time>2014-04-11T11:24:37Z</time>
      </trkpt>
      <trkpt lat="44.06429" lon="2.03495">
        <ele>278.44</ele>
        <time>2014-04-11T11:24:48Z</time>
      </trkpt>
      <trkpt lat="44.06416" lon="2.0349">
        <ele>280.36</ele>
        <time>2014-04-11T11:25:02Z</time>
      </trkpt>
      <trkpt lat="44.06404" lon="2.03487">
        <ele>282.28</ele>
        <time>2014-04-11T11:25:14Z</time>
      </trkpt>
      <trkpt lat="44.06401" lon="2.03487">
        <ele>283.25</ele>
        <time>2014-04-11T11:25:17Z</time>
      </trkpt>
      <trkpt lat="44.06398" lon="2.03486">
        <ele>283.73</ele>
        <time>2014-04-11T11:25:20Z</time>
      </trkpt>
      <trkpt lat="44.06395" lon="2.03486">
        <ele>284.69</ele>
        <time>2014-04-11T11:25:23Z</time>
      </trkpt>
      <trkpt lat="44.06386" lon="2.03486">
        <ele>286.13</ele>
        <time>2014-04-11T11:25:32Z</time>
      </trkpt>
      <trkpt lat="44.06375" lon="2.03484">
        <ele>288.05</ele>
        <time>2014-04-11T11:25:44Z</time>
      </trkpt>
      <trkpt lat="44.06371" lon="2.03483">
        <ele>289.01</ele>
        <time>2014-04-11T11:25:49Z</time>
      </trkpt>
      <trkpt lat="44.06364" lon="2.03481">
        <ele>290.46</ele>
        <time>2014-04-11T11:26:01Z</time>
      </trkpt>
      <trkpt lat="44.0636" lon="2.03481">
        <ele>291.42</ele>
        <time>2014-04-11T11:26:07Z</time>
      </trkpt>
      <trkpt lat="44.06346" lon="2.0348">
        <ele>292.86</ele>
        <time>2014-04-11T11:26:21Z</time>
      </trkpt>
      <trkpt lat="44.06344" lon="2.0348">
        <ele>293.34</ele>
        <time>2014-04-11T11:26:23Z</time>
      </trkpt>
      <trkpt lat="44.06341" lon="2.03481">
        <ele>293.82</ele>
        <time>2014-04-11T11:26:30Z</time>
      </trkpt>
      <trkpt lat="44.06339" lon="2.0348">
        <ele>294.3</ele>
        <time>2014-04-11T11:26:32Z</time>
      </trkpt>
      <trkpt lat="44.06322" lon="2.03478">
        <ele>295.74</ele>
        <time>2014-04-11T11:26:50Z</time>
      </trkpt>
      <trkpt lat="44.06311" lon="2.03475">
        <ele>298.15</ele>
        <time>2014-04-11T11:27:04Z</time>
      </trkpt>
      <trkpt lat="44.06291" lon="2.03469">
        <ele>301.03</ele>
        <time>2014-04-11T11:27:24Z</time>
      </trkpt>
      <trkpt lat="44.06287" lon="2.03468">
        <ele>301.51</ele>
        <time>2014-04-11T11:27:29Z</time>
      </trkpt>
      <trkpt lat="44.0628" lon="2.03467">
        <ele>302.47</ele>
        <time>2014-04-11T11:27:36Z</time>
      </trkpt>
      <trkpt lat="44.06268" lon="2.03464">
        <ele>304.88</ele>
        <time>2014-04-11T11:27:51Z</time>
      </trkpt>
      <trkpt lat="44.06255" lon="2.03463">
        <ele>306.8</ele>
        <time>2014-04-11T11:28:05Z</time>
      </trkpt>
      <trkpt lat="44.06245" lon="2.03464">
        <ele>308.24</ele>
        <time>2014-04-11T11:28:17Z</time>
      </trkpt>
      <trkpt lat="44.06227" lon="2.03459">
        <ele>310.16</ele>
        <time>2014-04-11T11:28:34Z</time>
      </trkpt>
      <trkpt lat="44.06215" lon="2.03456">
        <ele>311.6</ele>
        <time>2014-04-11T11:28:47Z</time>
      </trkpt>
      <trkpt lat="44.06208" lon="2.03454">
        <ele>312.09</ele>
        <time>2014-04-11T11:29:01Z</time>
      </trkpt>
      <trkpt lat="44.06208" lon="2.03454">
        <ele>312.09</ele>
        <time>2014-04-11T11:29:19Z</time>
      </trkpt>
      <trkpt lat="44.06207" lon="2.03455">
        <ele>312.57</ele>
        <time>2014-04-11T11:29:30Z</time>
      </trkpt>
      <trkpt lat="44.06208" lon="2.03454">
        <ele>312.09</ele>
        <time>2014-04-11T11:29:48Z</time>
      </trkpt>
      <trkpt lat="44.06208" lon="2.03455">
        <ele>312.09</ele>
        <time>2014-04-11T11:30:06Z</time>
      </trkpt>
      <trkpt lat="44.06208" lon="2.03455">
        <ele>312.09</ele>
        <time>2014-04-11T11:30:25Z</time>
      </trkpt>
      <trkpt lat="44.06207" lon="2.03457">
        <ele>312.09</ele>
        <time>2014-04-11T11:30:54Z</time>
      </trkpt>
      <trkpt lat="44.06208" lon="2.03456">
        <ele>312.09</ele>
        <time>2014-04-11T11:31:08Z</time>
      </trkpt>
      <trkpt lat="44.06208" lon="2.03456">
        <ele>312.09</ele>
        <time>2014-04-11T11:31:35Z</time>
      </trkpt>
      <trkpt lat="44.06205" lon="2.03461">
        <ele>312.57</ele>
        <time>2014-04-11T11:31:46Z</time>
      </trkpt>
      <trkpt lat="44.06205" lon="2.03462">
        <ele>312.57</ele>
        <time>2014-04-11T11:31:56Z</time>
      </trkpt>
      <trkpt lat="44.06202" lon="2.03475">
        <ele>312.57</ele>
        <time>2014-04-11T11:32:08Z</time>
      </trkpt>
      <trkpt lat="44.06202" lon="2.03478">
        <ele>312.57</ele>
        <time>2014-04-11T11:32:10Z</time>
      </trkpt>
      <trkpt lat="44.06199" lon="2.03492">
        <ele>312.57</ele>
        <time>2014-04-11T11:32:21Z</time>
      </trkpt>
      <trkpt lat="44.06196" lon="2.03512">
        <ele>312.57</ele>
        <time>2014-04-11T11:32:35Z</time>
      </trkpt>
      <trkpt lat="44.06194" lon="2.0352">
        <ele>313.05</ele>
        <time>2014-04-11T11:32:41Z</time>
      </trkpt>
      <trkpt lat="44.06186" lon="2.03548">
        <ele>313.53</ele>
        <time>2014-04-11T11:32:59Z</time>
      </trkpt>
      <trkpt lat="44.06185" lon="2.03553">
        <ele>313.53</ele>
        <time>2014-04-11T11:33:02Z</time>
      </trkpt>
      <trkpt lat="44.06176" lon="2.03575">
        <ele>314.01</ele>
        <time>2014-04-11T11:33:18Z</time>
      </trkpt>
      <trkpt lat="44.06173" lon="2.03582">
        <ele>314.49</ele>
        <time>2014-04-11T11:33:24Z</time>
      </trkpt>
      <trkpt lat="44.06171" lon="2.03585">
        <ele>314.49</ele>
        <time>2014-04-11T11:33:27Z</time>
      </trkpt>
      <trkpt lat="44.06163" lon="2.03606">
        <ele>314.97</ele>
        <time>2014-04-11T11:33:42Z</time>
      </trkpt>
      <trkpt lat="44.06155" lon="2.03622">
        <ele>315.45</ele>
        <time>2014-04-11T11:33:55Z</time>
      </trkpt>
      <trkpt lat="44.06147" lon="2.03645">
        <ele>316.41</ele>
        <time>2014-04-11T11:34:10Z</time>
      </trkpt>
      <trkpt lat="44.06143" lon="2.03657">
        <ele>316.89</ele>
        <time>2014-04-11T11:34:18Z</time>
      </trkpt>
      <trkpt lat="44.06139" lon="2.03668">
        <ele>317.37</ele>
        <time>2014-04-11T11:34:28Z</time>
      </trkpt>
      <trkpt lat="44.06132" lon="2.03694">
        <ele>317.37</ele>
        <time>2014-04-11T11:34:46Z</time>
      </trkpt>
      <trkpt lat="44.06127" lon="2.03717">
        <ele>317.37</ele>
        <time>2014-04-11T11:35:00Z</time>
      </trkpt>
      <trkpt lat="44.06125" lon="2.03729">
        <ele>317.37</ele>
        <time>2014-04-11T11:35:09Z</time>
      </trkpt>
      <trkpt lat="44.0612" lon="2.03753">
        <ele>317.37</ele>
        <time>2014-04-11T11:35:24Z</time>
      </trkpt>
      <trkpt lat="44.06114" lon="2.03779">
        <ele>316.89</ele>
        <time>2014-04-11T11:35:41Z</time>
      </trkpt>
      <trkpt lat="44.0611" lon="2.038">
        <ele>316.41</ele>
        <time>2014-04-11T11:35:54Z</time>
      </trkpt>
      <trkpt lat="44.06108" lon="2.03811">
        <ele>316.41</ele>
        <time>2014-04-11T11:36:01Z</time>
      </trkpt>
      <trkpt lat="44.06101" lon="2.03838">
        <ele>316.41</ele>
        <time>2014-04-11T11:36:18Z</time>
      </trkpt>
      <trkpt lat="44.06099" lon="2.03847">
        <ele>316.41</ele>
        <time>2014-04-11T11:36:23Z</time>
      </trkpt>
      <trkpt lat="44.06095" lon="2.03871">
        <ele>316.41</ele>
        <time>2014-04-11T11:36:38Z</time>
      </trkpt>
      <trkpt lat="44.06092" lon="2.0389">
        <ele>316.41</ele>
        <time>2014-04-11T11:36:51Z</time>
      </trkpt>
      <trkpt lat="44.06091" lon="2.03896">
        <ele>315.93</ele>
        <time>2014-04-11T11:36:55Z</time>
      </trkpt>
      <trkpt lat="44.06089" lon="2.039">
        <ele>316.41</ele>
        <time>2014-04-11T11:36:58Z</time>
      </trkpt>
      <trkpt lat="44.06086" lon="2.03918">
        <ele>315.93</ele>
        <time>2014-04-11T11:37:10Z</time>
      </trkpt>
      <trkpt lat="44.06081" lon="2.0394">
        <ele>315.93</ele>
        <time>2014-04-11T11:37:26Z</time>
      </trkpt>
      <trkpt lat="44.06075" lon="2.03967">
        <ele>316.89</ele>
        <time>2014-04-11T11:37:41Z</time>
      </trkpt>
      <trkpt lat="44.06074" lon="2.03973">
        <ele>315.45</ele>
        <time>2014-04-11T11:37:44Z</time>
      </trkpt>
      <trkpt lat="44.06067" lon="2.03999">
        <ele>315.45</ele>
        <time>2014-04-11T11:38:00Z</time>
      </trkpt>
      <trkpt lat="44.06063" lon="2.04018">
        <ele>314.97</ele>
        <time>2014-04-11T11:38:12Z</time>
      </trkpt>
      <trkpt lat="44.06061" lon="2.04027">
        <ele>314.49</ele>
        <time>2014-04-11T11:38:18Z</time>
      </trkpt>
      <trkpt lat="44.06059" lon="2.04034">
        <ele>314.97</ele>
        <time>2014-04-11T11:38:23Z</time>
      </trkpt>
      <trkpt lat="44.06052" lon="2.04064">
        <ele>314.97</ele>
        <time>2014-04-11T11:38:42Z</time>
      </trkpt>
      <trkpt lat="44.06042" lon="2.04091">
        <ele>314.97</ele>
        <time>2014-04-11T11:38:59Z</time>
      </trkpt>
      <trkpt lat="44.06037" lon="2.04109">
        <ele>314.49</ele>
        <time>2014-04-11T11:39:11Z</time>
      </trkpt>
      <trkpt lat="44.06029" lon="2.0413">
        <ele>314.97</ele>
        <time>2014-04-11T11:39:25Z</time>
      </trkpt>
      <trkpt lat="44.06021" lon="2.04153">
        <ele>315.45</ele>
        <time>2014-04-11T11:39:41Z</time>
      </trkpt>
      <trkpt lat="44.06018" lon="2.04167">
        <ele>315.45</ele>
        <time>2014-04-11T11:39:50Z</time>
      </trkpt>
      <trkpt lat="44.06011" lon="2.04188">
        <ele>315.93</ele>
        <time>2014-04-11T11:40:05Z</time>
      </trkpt>
      <trkpt lat="44.06006" lon="2.04211">
        <ele>316.41</ele>
        <time>2014-04-11T11:40:19Z</time>
      </trkpt>
      <trkpt lat="44.06005" lon="2.04216">
        <ele>316.89</ele>
        <time>2014-04-11T11:40:22Z</time>
      </trkpt>
      <trkpt lat="44.06002" lon="2.04228">
        <ele>317.37</ele>
        <time>2014-04-11T11:40:31Z</time>
      </trkpt>
      <trkpt lat="44.05992" lon="2.04257">
        <ele>317.85</ele>
        <time>2014-04-11T11:40:49Z</time>
      </trkpt>
      <trkpt lat="44.05984" lon="2.04278">
        <ele>317.85</ele>
        <time>2014-04-11T11:41:02Z</time>
      </trkpt>
      <trkpt lat="44.05972" lon="2.04299">
        <ele>318.33</ele>
        <time>2014-04-11T11:41:17Z</time>
      </trkpt>
      <trkpt lat="44.05959" lon="2.04323">
        <ele>318.33</ele>
        <time>2014-04-11T11:41:35Z</time>
      </trkpt>
      <trkpt lat="44.05949" lon="2.0434">
        <ele>318.81</ele>
        <time>2014-04-11T11:41:49Z</time>
      </trkpt>
      <trkpt lat="44.05937" lon="2.04359">
        <ele>319.3</ele>
        <time>2014-04-11T11:42:04Z</time>
      </trkpt>
      <trkpt lat="44.05921" lon="2.04378">
        <ele>319.78</ele>
        <time>2014-04-11T11:42:23Z</time>
      </trkpt>
      <trkpt lat="44.05906" lon="2.04411">
        <ele>320.26</ele>
        <time>2014-04-11T11:42:43Z</time>
      </trkpt>
      <trkpt lat="44.05895" lon="2.04436">
        <ele>321.22</ele>
        <time>2014-04-11T11:43:00Z</time>
      </trkpt>
      <trkpt lat="44.05894" lon="2.04439">
        <ele>320.74</ele>
        <time>2014-04-11T11:43:02Z</time>
      </trkpt>
      <trkpt lat="44.05891" lon="2.04445">
        <ele>320.74</ele>
        <time>2014-04-11T11:43:06Z</time>
      </trkpt>
      <trkpt lat="44.05881" lon="2.04465">
        <ele>321.7</ele>
        <time>2014-04-11T11:43:20Z</time>
      </trkpt>
      <trkpt lat="44.05872" lon="2.04485">
        <ele>322.18</ele>
        <time>2014-04-11T11:43:34Z</time>
      </trkpt>
      <trkpt lat="44.05859" lon="2.04506">
        <ele>322.18</ele>
        <time>2014-04-11T11:43:49Z</time>
      </trkpt>
      <trkpt lat="44.05856" lon="2.04511">
        <ele>322.66</ele>
        <time>2014-04-11T11:43:53Z</time>
      </trkpt>
      <trkpt lat="44.05853" lon="2.04515">
        <ele>323.14</ele>
        <time>2014-04-11T11:43:57Z</time>
      </trkpt>
      <trkpt lat="44.0585" lon="2.0452">
        <ele>322.18</ele>
        <time>2014-04-11T11:44:01Z</time>
      </trkpt>
      <trkpt lat="44.05834" lon="2.04548">
        <ele>322.18</ele>
        <time>2014-04-11T11:44:21Z</time>
      </trkpt>
      <trkpt lat="44.05823" lon="2.04567">
        <ele>321.22</ele>
        <time>2014-04-11T11:44:36Z</time>
      </trkpt>
      <trkpt lat="44.05811" lon="2.0459">
        <ele>320.74</ele>
        <time>2014-04-11T11:44:52Z</time>
      </trkpt>
      <trkpt lat="44.0581" lon="2.04593">
        <ele>325.06</ele>
        <time>2014-04-11T11:44:54Z</time>
      </trkpt>
      <trkpt lat="44.05809" lon="2.04595">
        <ele>320.74</ele>
        <time>2014-04-11T11:44:55Z</time>
      </trkpt>
      <trkpt lat="44.05808" lon="2.04596">
        <ele>320.74</ele>
        <time>2014-04-11T11:44:56Z</time>
      </trkpt>
      <trkpt lat="44.05797" lon="2.04616">
        <ele>320.74</ele>
        <time>2014-04-11T11:45:12Z</time>
      </trkpt>
      <trkpt lat="44.05789" lon="2.04634">
        <ele>320.74</ele>
        <time>2014-04-11T11:45:25Z</time>
      </trkpt>
      <trkpt lat="44.05774" lon="2.04662">
        <ele>320.74</ele>
        <time>2014-04-11T11:45:44Z</time>
      </trkpt>
      <trkpt lat="44.05759" lon="2.0468">
        <ele>320.74</ele>
        <time>2014-04-11T11:45:59Z</time>
      </trkpt>
      <trkpt lat="44.0574" lon="2.04702">
        <ele>320.74</ele>
        <time>2014-04-11T11:46:18Z</time>
      </trkpt>
      <trkpt lat="44.05724" lon="2.04717">
        <ele>320.26</ele>
        <time>2014-04-11T11:46:33Z</time>
      </trkpt>
      <trkpt lat="44.05709" lon="2.04729">
        <ele>320.26</ele>
        <time>2014-04-11T11:46:48Z</time>
      </trkpt>
      <trkpt lat="44.05701" lon="2.04745">
        <ele>320.26</ele>
        <time>2014-04-11T11:47:01Z</time>
      </trkpt>
      <trkpt lat="44.05708" lon="2.0477">
        <ele>318.81</ele>
        <time>2014-04-11T11:47:16Z</time>
      </trkpt>
      <trkpt lat="44.05715" lon="2.04784">
        <ele>319.78</ele>
        <time>2014-04-11T11:47:27Z</time>
      </trkpt>
      <trkpt lat="44.05717" lon="2.04788">
        <ele>319.78</ele>
        <time>2014-04-11T11:47:31Z</time>
      </trkpt>
      <trkpt lat="44.05729" lon="2.04812">
        <ele>318.33</ele>
        <time>2014-04-11T11:47:48Z</time>
      </trkpt>
      <trkpt lat="44.05731" lon="2.04814">
        <ele>318.33</ele>
        <time>2014-04-11T11:47:52Z</time>
      </trkpt>
      <trkpt lat="44.05736" lon="2.04822">
        <ele>318.33</ele>
        <time>2014-04-11T11:47:59Z</time>
      </trkpt>
      <trkpt lat="44.05749" lon="2.04842">
        <ele>316.89</ele>
        <time>2014-04-11T11:48:16Z</time>
      </trkpt>
      <trkpt lat="44.05753" lon="2.04852">
        <ele>316.41</ele>
        <time>2014-04-11T11:48:24Z</time>
      </trkpt>
      <trkpt lat="44.05763" lon="2.04868">
        <ele>315.93</ele>
        <time>2014-04-11T11:48:36Z</time>
      </trkpt>
      <trkpt lat="44.05774" lon="2.04889">
        <ele>315.45</ele>
        <time>2014-04-11T11:48:51Z</time>
      </trkpt>
      <trkpt lat="44.05775" lon="2.0489">
        <ele>315.45</ele>
        <time>2014-04-11T11:48:52Z</time>
      </trkpt>
      <trkpt lat="44.05779" lon="2.04896">
        <ele>314.97</ele>
        <time>2014-04-11T11:48:57Z</time>
      </trkpt>
      <trkpt lat="44.05789" lon="2.04913">
        <ele>314.49</ele>
        <time>2014-04-11T11:49:11Z</time>
      </trkpt>
      <trkpt lat="44.05801" lon="2.04933">
        <ele>313.53</ele>
        <time>2014-04-11T11:49:27Z</time>
      </trkpt>
      <trkpt lat="44.05813" lon="2.04953">
        <ele>312.57</ele>
        <time>2014-04-11T11:49:42Z</time>
      </trkpt>
      <trkpt lat="44.05825" lon="2.04971">
        <ele>312.09</ele>
        <time>2014-04-11T11:49:57Z</time>
      </trkpt>
      <trkpt lat="44.05828" lon="2.04976">
        <ele>311.6</ele>
        <time>2014-04-11T11:50:01Z</time>
      </trkpt>
      <trkpt lat="44.05836" lon="2.04991">
        <ele>311.12</ele>
        <time>2014-04-11T11:50:12Z</time>
      </trkpt>
      <trkpt lat="44.05842" lon="2.05014">
        <ele>310.16</ele>
        <time>2014-04-11T11:50:27Z</time>
      </trkpt>
      <trkpt lat="44.05845" lon="2.05034">
        <ele>308.72</ele>
        <time>2014-04-11T11:50:40Z</time>
      </trkpt>
      <trkpt lat="44.05845" lon="2.05042">
        <ele>308.24</ele>
        <time>2014-04-11T11:50:46Z</time>
      </trkpt>
      <trkpt lat="44.05852" lon="2.05066">
        <ele>306.32</ele>
        <time>2014-04-11T11:51:03Z</time>
      </trkpt>
      <trkpt lat="44.05852" lon="2.0509">
        <ele>304.88</ele>
        <time>2014-04-11T11:51:20Z</time>
      </trkpt>
      <trkpt lat="44.05859" lon="2.05103">
        <ele>302.95</ele>
        <time>2014-04-11T11:51:36Z</time>
      </trkpt>
      <trkpt lat="44.05868" lon="2.051">
        <ele>302.47</ele>
        <time>2014-04-11T11:51:47Z</time>
      </trkpt>
      <trkpt lat="44.05893" lon="2.05092">
        <ele>301.03</ele>
        <time>2014-04-11T11:52:07Z</time>
      </trkpt>
      <trkpt lat="44.05906" lon="2.0509">
        <ele>301.03</ele>
        <time>2014-04-11T11:52:18Z</time>
      </trkpt>
      <trkpt lat="44.05921" lon="2.05104">
        <ele>298.15</ele>
        <time>2014-04-11T11:52:34Z</time>
      </trkpt>
      <trkpt lat="44.05927" lon="2.05114">
        <ele>296.22</ele>
        <time>2014-04-11T11:52:48Z</time>
      </trkpt>
      <trkpt lat="44.05925" lon="2.05123">
        <ele>295.26</ele>
        <time>2014-04-11T11:52:56Z</time>
      </trkpt>
      <trkpt lat="44.05917" lon="2.05149">
        <ele>293.34</ele>
        <time>2014-04-11T11:53:12Z</time>
      </trkpt>
      <trkpt lat="44.05911" lon="2.05168">
        <ele>292.86</ele>
        <time>2014-04-11T11:53:25Z</time>
      </trkpt>
      <trkpt lat="44.05905" lon="2.05195">
        <ele>291.42</ele>
        <time>2014-04-11T11:53:43Z</time>
      </trkpt>
      <trkpt lat="44.05905" lon="2.05197">
        <ele>290.46</ele>
        <time>2014-04-11T11:53:44Z</time>
      </trkpt>
      <trkpt lat="44.05903" lon="2.05219">
        <ele>290.94</ele>
        <time>2014-04-11T11:53:59Z</time>
      </trkpt>
      <trkpt lat="44.05895" lon="2.05239">
        <ele>289.01</ele>
        <time>2014-04-11T11:54:14Z</time>
      </trkpt>
      <trkpt lat="44.05882" lon="2.05245">
        <ele>288.05</ele>
        <time>2014-04-11T11:54:27Z</time>
      </trkpt>
      <trkpt lat="44.05874" lon="2.05246">
        <ele>288.53</ele>
        <time>2014-04-11T11:54:34Z</time>
      </trkpt>
      <trkpt lat="44.05872" lon="2.05245">
        <ele>288.53</ele>
        <time>2014-04-11T11:54:36Z</time>
      </trkpt>
      <trkpt lat="44.05865" lon="2.05239">
        <ele>288.05</ele>
        <time>2014-04-11T11:54:45Z</time>
      </trkpt>
      <trkpt lat="44.05859" lon="2.05236">
        <ele>287.57</ele>
        <time>2014-04-11T11:54:50Z</time>
      </trkpt>
      <trkpt lat="44.05853" lon="2.05235">
        <ele>287.57</ele>
        <time>2014-04-11T11:54:54Z</time>
      </trkpt>
      <trkpt lat="44.05842" lon="2.05222">
        <ele>286.61</ele>
        <time>2014-04-11T11:55:09Z</time>
      </trkpt>
      <trkpt lat="44.05835" lon="2.05213">
        <ele>286.13</ele>
        <time>2014-04-11T11:55:18Z</time>
      </trkpt>
      <trkpt lat="44.05831" lon="2.05211">
        <ele>285.65</ele>
        <time>2014-04-11T11:55:20Z</time>
      </trkpt>
      <trkpt lat="44.05816" lon="2.05204">
        <ele>285.17</ele>
        <time>2014-04-11T11:55:32Z</time>
      </trkpt>
      <trkpt lat="44.05805" lon="2.05196">
        <ele>284.21</ele>
        <time>2014-04-11T11:55:42Z</time>
      </trkpt>
      <trkpt lat="44.05802" lon="2.05195">
        <ele>284.21</ele>
        <time>2014-04-11T11:55:44Z</time>
      </trkpt>
      <trkpt lat="44.05793" lon="2.05183">
        <ele>284.21</ele>
        <time>2014-04-11T11:55:54Z</time>
      </trkpt>
      <trkpt lat="44.0579" lon="2.05182">
        <ele>284.21</ele>
        <time>2014-04-11T11:55:57Z</time>
      </trkpt>
      <trkpt lat="44.05788" lon="2.05181">
        <ele>284.21</ele>
        <time>2014-04-11T11:55:59Z</time>
      </trkpt>
      <trkpt lat="44.05781" lon="2.05171">
        <ele>283.73</ele>
        <time>2014-04-11T11:56:08Z</time>
      </trkpt>
      <trkpt lat="44.05776" lon="2.05166">
        <ele>284.21</ele>
        <time>2014-04-11T11:56:14Z</time>
      </trkpt>
      <trkpt lat="44.05771" lon="2.05163">
        <ele>283.73</ele>
        <time>2014-04-11T11:56:18Z</time>
      </trkpt>
      <trkpt lat="44.05768" lon="2.05162">
        <ele>283.73</ele>
        <time>2014-04-11T11:56:21Z</time>
      </trkpt>
      <trkpt lat="44.05752" lon="2.05161">
        <ele>284.21</ele>
        <time>2014-04-11T11:56:31Z</time>
      </trkpt>
      <trkpt lat="44.05739" lon="2.05161">
        <ele>283.73</ele>
        <time>2014-04-11T11:56:44Z</time>
      </trkpt>
      <trkpt lat="44.05725" lon="2.05172">
        <ele>282.77</ele>
        <time>2014-04-11T11:57:02Z</time>
      </trkpt>
      <trkpt lat="44.05715" lon="2.05181">
        <ele>281.32</ele>
        <time>2014-04-11T11:57:17Z</time>
      </trkpt>
      <trkpt lat="44.05696" lon="2.05196">
        <ele>279.4</ele>
        <time>2014-04-11T11:57:33Z</time>
      </trkpt>
      <trkpt lat="44.05685" lon="2.05208">
        <ele>277.96</ele>
        <time>2014-04-11T11:57:45Z</time>
      </trkpt>
      <trkpt lat="44.05677" lon="2.05233">
        <ele>277</ele>
        <time>2014-04-11T11:57:59Z</time>
      </trkpt>
      <trkpt lat="44.05676" lon="2.05239">
        <ele>276.52</ele>
        <time>2014-04-11T11:58:02Z</time>
      </trkpt>
      <trkpt lat="44.05684" lon="2.05263">
        <ele>273.15</ele>
        <time>2014-04-11T11:58:19Z</time>
      </trkpt>
      <trkpt lat="44.05685" lon="2.05264">
        <ele>273.15</ele>
        <time>2014-04-11T11:58:20Z</time>
      </trkpt>
      <trkpt lat="44.0569" lon="2.05272">
        <ele>271.71</ele>
        <time>2014-04-11T11:58:28Z</time>
      </trkpt>
      <trkpt lat="44.05706" lon="2.05288">
        <ele>268.35</ele>
        <time>2014-04-11T11:58:45Z</time>
      </trkpt>
      <trkpt lat="44.0572" lon="2.05304">
        <ele>265.94</ele>
        <time>2014-04-11T11:59:01Z</time>
      </trkpt>
      <trkpt lat="44.05733" lon="2.05323">
        <ele>263.06</ele>
        <time>2014-04-11T11:59:17Z</time>
      </trkpt>
      <trkpt lat="44.05744" lon="2.05342">
        <ele>260.65</ele>
        <time>2014-04-11T11:59:34Z</time>
      </trkpt>
      <trkpt lat="44.05752" lon="2.05359">
        <ele>258.73</ele>
        <time>2014-04-11T11:59:49Z</time>
      </trkpt>
      <trkpt lat="44.05757" lon="2.05368">
        <ele>257.77</ele>
        <time>2014-04-11T11:59:57Z</time>
      </trkpt>
      <trkpt lat="44.05763" lon="2.05384">
        <ele>256.81</ele>
        <time>2014-04-11T12:00:08Z</time>
      </trkpt>
      <trkpt lat="44.05771" lon="2.054">
        <ele>255.37</ele>
        <time>2014-04-11T12:00:18Z</time>
      </trkpt>
      <trkpt lat="44.0578" lon="2.05422">
        <ele>253.44</ele>
        <time>2014-04-11T12:00:33Z</time>
      </trkpt>
      <trkpt lat="44.0579" lon="2.05438">
        <ele>251.04</ele>
        <time>2014-04-11T12:00:46Z</time>
      </trkpt>
      <trkpt lat="44.05794" lon="2.05448">
        <ele>250.08</ele>
        <time>2014-04-11T12:00:54Z</time>
      </trkpt>
      <trkpt lat="44.05798" lon="2.05459">
        <ele>249.12</ele>
        <time>2014-04-11T12:01:05Z</time>
      </trkpt>
      <trkpt lat="44.05813" lon="2.05474">
        <ele>247.2</ele>
        <time>2014-04-11T12:01:21Z</time>
      </trkpt>
      <trkpt lat="44.05819" lon="2.05481">
        <ele>246.23</ele>
        <time>2014-04-11T12:01:28Z</time>
      </trkpt>
      <trkpt lat="44.05833" lon="2.05499">
        <ele>244.31</ele>
        <time>2014-04-11T12:01:42Z</time>
      </trkpt>
      <trkpt lat="44.0584" lon="2.05504">
        <ele>243.35</ele>
        <time>2014-04-11T12:01:48Z</time>
      </trkpt>
      <trkpt lat="44.05844" lon="2.05507">
        <ele>242.87</ele>
        <time>2014-04-11T12:01:51Z</time>
      </trkpt>
      <trkpt lat="44.05849" lon="2.05521">
        <ele>240.95</ele>
        <time>2014-04-11T12:02:03Z</time>
      </trkpt>
      <trkpt lat="44.0585" lon="2.05525">
        <ele>240.47</ele>
        <time>2014-04-11T12:02:07Z</time>
      </trkpt>
      <trkpt lat="44.05853" lon="2.05528">
        <ele>240.47</ele>
        <time>2014-04-11T12:02:10Z</time>
      </trkpt>
      <trkpt lat="44.05858" lon="2.05532">
        <ele>239.99</ele>
        <time>2014-04-11T12:02:14Z</time>
      </trkpt>
      <trkpt lat="44.05862" lon="2.05539">
        <ele>239.02</ele>
        <time>2014-04-11T12:02:19Z</time>
      </trkpt>
      <trkpt lat="44.05869" lon="2.05547">
        <ele>238.06</ele>
        <time>2014-04-11T12:02:27Z</time>
      </trkpt>
      <trkpt lat="44.05872" lon="2.05551">
        <ele>238.06</ele>
        <time>2014-04-11T12:02:31Z</time>
      </trkpt>
      <trkpt lat="44.05882" lon="2.05564">
        <ele>237.1</ele>
        <time>2014-04-11T12:02:40Z</time>
      </trkpt>
      <trkpt lat="44.05891" lon="2.05576">
        <ele>236.14</ele>
        <time>2014-04-11T12:02:54Z</time>
      </trkpt>
      <trkpt lat="44.05892" lon="2.05577">
        <ele>235.66</ele>
        <time>2014-04-11T12:02:56Z</time>
      </trkpt>
      <trkpt lat="44.05899" lon="2.05586">
        <ele>235.18</ele>
        <time>2014-04-11T12:03:04Z</time>
      </trkpt>
      <trkpt lat="44.0591" lon="2.05601">
        <ele>233.74</ele>
        <time>2014-04-11T12:03:16Z</time>
      </trkpt>
      <trkpt lat="44.05913" lon="2.05606">
        <ele>233.26</ele>
        <time>2014-04-11T12:03:21Z</time>
      </trkpt>
      <trkpt lat="44.05921" lon="2.05617">
        <ele>231.81</ele>
        <time>2014-04-11T12:03:30Z</time>
      </trkpt>
      <trkpt lat="44.05931" lon="2.05632">
        <ele>231.33</ele>
        <time>2014-04-11T12:03:42Z</time>
      </trkpt>
      <trkpt lat="44.05939" lon="2.05645">
        <ele>230.37</ele>
        <time>2014-04-11T12:03:54Z</time>
      </trkpt>
      <trkpt lat="44.05949" lon="2.05657">
        <ele>228.93</ele>
        <time>2014-04-11T12:04:08Z</time>
      </trkpt>
      <trkpt lat="44.05951" lon="2.05659">
        <ele>227.97</ele>
        <time>2014-04-11T12:04:20Z</time>
      </trkpt>
      <trkpt lat="44.05952" lon="2.0566">
        <ele>227.49</ele>
        <time>2014-04-11T12:04:24Z</time>
      </trkpt>
      <trkpt lat="44.05954" lon="2.05662">
        <ele>227.01</ele>
        <time>2014-04-11T12:04:26Z</time>
      </trkpt>
      <trkpt lat="44.05958" lon="2.05667">
        <ele>226.05</ele>
        <time>2014-04-11T12:04:32Z</time>
      </trkpt>
      <trkpt lat="44.05961" lon="2.05673">
        <ele>225.57</ele>
        <time>2014-04-11T12:04:37Z</time>
      </trkpt>
      <trkpt lat="44.05963" lon="2.05681">
        <ele>225.09</ele>
        <time>2014-04-11T12:04:43Z</time>
      </trkpt>
      <trkpt lat="44.05965" lon="2.05684">
        <ele>224.61</ele>
        <time>2014-04-11T12:04:45Z</time>
      </trkpt>
      <trkpt lat="44.0597" lon="2.05697">
        <ele>223.16</ele>
        <time>2014-04-11T12:04:56Z</time>
      </trkpt>
      <trkpt lat="44.05969" lon="2.05701">
        <ele>222.68</ele>
        <time>2014-04-11T12:04:59Z</time>
      </trkpt>
      <trkpt lat="44.05968" lon="2.05714">
        <ele>221.24</ele>
        <time>2014-04-11T12:05:09Z</time>
      </trkpt>
      <trkpt lat="44.05964" lon="2.05729">
        <ele>220.28</ele>
        <time>2014-04-11T12:05:21Z</time>
      </trkpt>
      <trkpt lat="44.05963" lon="2.05734">
        <ele>219.8</ele>
        <time>2014-04-11T12:05:25Z</time>
      </trkpt>
      <trkpt lat="44.05961" lon="2.05736">
        <ele>219.32</ele>
        <time>2014-04-11T12:05:28Z</time>
      </trkpt>
      <trkpt lat="44.0595" lon="2.05753">
        <ele>217.4</ele>
        <time>2014-04-11T12:05:41Z</time>
      </trkpt>
      <trkpt lat="44.05946" lon="2.05757">
        <ele>216.43</ele>
        <time>2014-04-11T12:05:45Z</time>
      </trkpt>
      <trkpt lat="44.05945" lon="2.0576">
        <ele>215.95</ele>
        <time>2014-04-11T12:05:48Z</time>
      </trkpt>
      <trkpt lat="44.05945" lon="2.05765">
        <ele>215.47</ele>
        <time>2014-04-11T12:05:52Z</time>
      </trkpt>
      <trkpt lat="44.05938" lon="2.05786">
        <ele>214.03</ele>
        <time>2014-04-11T12:06:05Z</time>
      </trkpt>
      <trkpt lat="44.05936" lon="2.05796">
        <ele>213.55</ele>
        <time>2014-04-11T12:06:11Z</time>
      </trkpt>
      <trkpt lat="44.05935" lon="2.05799">
        <ele>213.07</ele>
        <time>2014-04-11T12:06:14Z</time>
      </trkpt>
      <trkpt lat="44.05931" lon="2.05809">
        <ele>213.07</ele>
        <time>2014-04-11T12:06:24Z</time>
      </trkpt>
      <trkpt lat="44.05931" lon="2.0581">
        <ele>213.07</ele>
        <time>2014-04-11T12:06:25Z</time>
      </trkpt>
      <trkpt lat="44.05929" lon="2.05814">
        <ele>213.07</ele>
        <time>2014-04-11T12:06:28Z</time>
      </trkpt>
      <trkpt lat="44.05925" lon="2.05819">
        <ele>213.07</ele>
        <time>2014-04-11T12:06:32Z</time>
      </trkpt>
      <trkpt lat="44.05921" lon="2.05833">
        <ele>213.07</ele>
        <time>2014-04-11T12:06:43Z</time>
      </trkpt>
      <trkpt lat="44.05918" lon="2.05837">
        <ele>213.07</ele>
        <time>2014-04-11T12:06:48Z</time>
      </trkpt>
      <trkpt lat="44.05911" lon="2.05843">
        <ele>213.07</ele>
        <time>2014-04-11T12:06:54Z</time>
      </trkpt>
      <trkpt lat="44.05899" lon="2.05854">
        <ele>212.59</ele>
        <time>2014-04-11T12:07:05Z</time>
      </trkpt>
      <trkpt lat="44.05896" lon="2.05857">
        <ele>212.59</ele>
        <time>2014-04-11T12:07:08Z</time>
      </trkpt>
      <trkpt lat="44.05888" lon="2.05868">
        <ele>212.59</ele>
        <time>2014-04-11T12:07:19Z</time>
      </trkpt>
      <trkpt lat="44.05883" lon="2.05872">
        <ele>212.59</ele>
        <time>2014-04-11T12:07:24Z</time>
      </trkpt>
      <trkpt lat="44.0588" lon="2.05876">
        <ele>212.59</ele>
        <time>2014-04-11T12:07:27Z</time>
      </trkpt>
      <trkpt lat="44.05871" lon="2.05887">
        <ele>213.07</ele>
        <time>2014-04-11T12:07:39Z</time>
      </trkpt>
      <trkpt lat="44.0587" lon="2.05889">
        <ele>213.07</ele>
        <time>2014-04-11T12:07:41Z</time>
      </trkpt>
      <trkpt lat="44.05865" lon="2.05899">
        <ele>213.55</ele>
        <time>2014-04-11T12:07:51Z</time>
      </trkpt>
      <trkpt lat="44.05863" lon="2.05904">
        <ele>213.55</ele>
        <time>2014-04-11T12:07:54Z</time>
      </trkpt>
      <trkpt lat="44.05864" lon="2.05908">
        <ele>213.07</ele>
        <time>2014-04-11T12:07:57Z</time>
      </trkpt>
      <trkpt lat="44.05865" lon="2.05932">
        <ele>211.15</ele>
        <time>2014-04-11T12:08:12Z</time>
      </trkpt>
      <trkpt lat="44.05864" lon="2.05939">
        <ele>210.67</ele>
        <time>2014-04-11T12:08:16Z</time>
      </trkpt>
      <trkpt lat="44.05864" lon="2.05948">
        <ele>210.67</ele>
        <time>2014-04-11T12:08:21Z</time>
      </trkpt>
      <trkpt lat="44.05863" lon="2.05971">
        <ele>209.7</ele>
        <time>2014-04-11T12:08:36Z</time>
      </trkpt>
      <trkpt lat="44.05859" lon="2.05985">
        <ele>209.22</ele>
        <time>2014-04-11T12:08:45Z</time>
      </trkpt>
      <trkpt lat="44.05854" lon="2.05993">
        <ele>209.22</ele>
        <time>2014-04-11T12:08:49Z</time>
      </trkpt>
      <trkpt lat="44.0585" lon="2.06004">
        <ele>209.22</ele>
        <time>2014-04-11T12:08:56Z</time>
      </trkpt>
      <trkpt lat="44.05847" lon="2.0601">
        <ele>208.74</ele>
        <time>2014-04-11T12:09:01Z</time>
      </trkpt>
      <trkpt lat="44.05846" lon="2.06014">
        <ele>208.74</ele>
        <time>2014-04-11T12:09:05Z</time>
      </trkpt>
      <trkpt lat="44.05839" lon="2.06029">
        <ele>208.74</ele>
        <time>2014-04-11T12:09:17Z</time>
      </trkpt>
      <trkpt lat="44.05831" lon="2.06044">
        <ele>209.22</ele>
        <time>2014-04-11T12:09:26Z</time>
      </trkpt>
      <trkpt lat="44.05824" lon="2.06063">
        <ele>209.22</ele>
        <time>2014-04-11T12:09:39Z</time>
      </trkpt>
      <trkpt lat="44.05816" lon="2.06084">
        <ele>209.7</ele>
        <time>2014-04-11T12:09:55Z</time>
      </trkpt>
      <trkpt lat="44.05802" lon="2.061">
        <ele>210.19</ele>
        <time>2014-04-11T12:10:09Z</time>
      </trkpt>
      <trkpt lat="44.05801" lon="2.06101">
        <ele>210.19</ele>
        <time>2014-04-11T12:10:10Z</time>
      </trkpt>
      <trkpt lat="44.05799" lon="2.06102">
        <ele>210.67</ele>
        <time>2014-04-11T12:10:12Z</time>
      </trkpt>
      <trkpt lat="44.05794" lon="2.06109">
        <ele>210.67</ele>
        <time>2014-04-11T12:10:17Z</time>
      </trkpt>
      <trkpt lat="44.0579" lon="2.06121">
        <ele>210.67</ele>
        <time>2014-04-11T12:10:28Z</time>
      </trkpt>
      <trkpt lat="44.05778" lon="2.06133">
        <ele>210.67</ele>
        <time>2014-04-11T12:10:39Z</time>
      </trkpt>
      <trkpt lat="44.05776" lon="2.06133">
        <ele>210.67</ele>
        <time>2014-04-11T12:10:41Z</time>
      </trkpt>
      <trkpt lat="44.05767" lon="2.06143">
        <ele>211.63</ele>
        <time>2014-04-11T12:10:52Z</time>
      </trkpt>
      <trkpt lat="44.05761" lon="2.0615">
        <ele>211.63</ele>
        <time>2014-04-11T12:10:58Z</time>
      </trkpt>
      <trkpt lat="44.05751" lon="2.06165">
        <ele>212.11</ele>
        <time>2014-04-11T12:11:11Z</time>
      </trkpt>
      <trkpt lat="44.0574" lon="2.06176">
        <ele>212.11</ele>
        <time>2014-04-11T12:11:21Z</time>
      </trkpt>
      <trkpt lat="44.05738" lon="2.06183">
        <ele>212.59</ele>
        <time>2014-04-11T12:11:26Z</time>
      </trkpt>
      <trkpt lat="44.0573" lon="2.06192">
        <ele>212.59</ele>
        <time>2014-04-11T12:11:33Z</time>
      </trkpt>
      <trkpt lat="44.05721" lon="2.06205">
        <ele>213.07</ele>
        <time>2014-04-11T12:11:46Z</time>
      </trkpt>
      <trkpt lat="44.05706" lon="2.06223">
        <ele>213.55</ele>
        <time>2014-04-11T12:12:01Z</time>
      </trkpt>
      <trkpt lat="44.05705" lon="2.06224">
        <ele>213.55</ele>
        <time>2014-04-11T12:12:02Z</time>
      </trkpt>
      <trkpt lat="44.05696" lon="2.06241">
        <ele>213.55</ele>
        <time>2014-04-11T12:12:15Z</time>
      </trkpt>
      <trkpt lat="44.05689" lon="2.06256">
        <ele>214.03</ele>
        <time>2014-04-11T12:12:26Z</time>
      </trkpt>
      <trkpt lat="44.05684" lon="2.06269">
        <ele>214.03</ele>
        <time>2014-04-11T12:12:36Z</time>
      </trkpt>
      <trkpt lat="44.05682" lon="2.06272">
        <ele>214.51</ele>
        <time>2014-04-11T12:12:38Z</time>
      </trkpt>
      <trkpt lat="44.05675" lon="2.06285">
        <ele>215.47</ele>
        <time>2014-04-11T12:12:53Z</time>
      </trkpt>
      <trkpt lat="44.05674" lon="2.06291">
        <ele>214.99</ele>
        <time>2014-04-11T12:13:13Z</time>
      </trkpt>
      <trkpt lat="44.05669" lon="2.06311">
        <ele>215.95</ele>
        <time>2014-04-11T12:13:27Z</time>
      </trkpt>
      <trkpt lat="44.05657" lon="2.06335">
        <ele>215.47</ele>
        <time>2014-04-11T12:13:46Z</time>
      </trkpt>
      <trkpt lat="44.05655" lon="2.06338">
        <ele>215.47</ele>
        <time>2014-04-11T12:13:49Z</time>
      </trkpt>
      <trkpt lat="44.05648" lon="2.06359">
        <ele>214.99</ele>
        <time>2014-04-11T12:14:05Z</time>
      </trkpt>
      <trkpt lat="44.05648" lon="2.0636">
        <ele>214.99</ele>
        <time>2014-04-11T12:14:06Z</time>
      </trkpt>
      <trkpt lat="44.05639" lon="2.0638">
        <ele>214.99</ele>
        <time>2014-04-11T12:14:19Z</time>
      </trkpt>
      <trkpt lat="44.05636" lon="2.06392">
        <ele>215.47</ele>
        <time>2014-04-11T12:14:27Z</time>
      </trkpt>
      <trkpt lat="44.05635" lon="2.06397">
        <ele>215.47</ele>
        <time>2014-04-11T12:14:31Z</time>
      </trkpt>
      <trkpt lat="44.05633" lon="2.06403">
        <ele>216.43</ele>
        <time>2014-04-11T12:14:35Z</time>
      </trkpt>
      <trkpt lat="44.05625" lon="2.06419">
        <ele>215.47</ele>
        <time>2014-04-11T12:14:48Z</time>
      </trkpt>
      <trkpt lat="44.05614" lon="2.06431">
        <ele>215.95</ele>
        <time>2014-04-11T12:15:00Z</time>
      </trkpt>
      <trkpt lat="44.05607" lon="2.06438">
        <ele>216.43</ele>
        <time>2014-04-11T12:15:06Z</time>
      </trkpt>
      <trkpt lat="44.05599" lon="2.06453">
        <ele>216.43</ele>
        <time>2014-04-11T12:15:18Z</time>
      </trkpt>
      <trkpt lat="44.05598" lon="2.06454">
        <ele>216.43</ele>
        <time>2014-04-11T12:15:19Z</time>
      </trkpt>
      <trkpt lat="44.05591" lon="2.06468">
        <ele>215.95</ele>
        <time>2014-04-11T12:15:29Z</time>
      </trkpt>
      <trkpt lat="44.05585" lon="2.06479">
        <ele>216.43</ele>
        <time>2014-04-11T12:15:37Z</time>
      </trkpt>
      <trkpt lat="44.0558" lon="2.06483">
        <ele>215.95</ele>
        <time>2014-04-11T12:15:42Z</time>
      </trkpt>
      <trkpt lat="44.05574" lon="2.06495">
        <ele>215.95</ele>
        <time>2014-04-11T12:15:51Z</time>
      </trkpt>
      <trkpt lat="44.0557" lon="2.06498">
        <ele>215.95</ele>
        <time>2014-04-11T12:15:55Z</time>
      </trkpt>
      <trkpt lat="44.05564" lon="2.06505">
        <ele>215.95</ele>
        <time>2014-04-11T12:16:00Z</time>
      </trkpt>
      <trkpt lat="44.05552" lon="2.06524">
        <ele>215.95</ele>
        <time>2014-04-11T12:16:16Z</time>
      </trkpt>
      <trkpt lat="44.05542" lon="2.0654">
        <ele>216.43</ele>
        <time>2014-04-11T12:16:28Z</time>
      </trkpt>
      <trkpt lat="44.05541" lon="2.06543">
        <ele>216.91</ele>
        <time>2014-04-11T12:16:31Z</time>
      </trkpt>
      <trkpt lat="44.05536" lon="2.06549">
        <ele>216.91</ele>
        <time>2014-04-11T12:16:36Z</time>
      </trkpt>
      <trkpt lat="44.05524" lon="2.06563">
        <ele>216.91</ele>
        <time>2014-04-11T12:16:51Z</time>
      </trkpt>
      <trkpt lat="44.05522" lon="2.06565">
        <ele>217.4</ele>
        <time>2014-04-11T12:16:53Z</time>
      </trkpt>
      <trkpt lat="44.0552" lon="2.06566">
        <ele>217.4</ele>
        <time>2014-04-11T12:16:55Z</time>
      </trkpt>
      <trkpt lat="44.0551" lon="2.06576">
        <ele>217.88</ele>
        <time>2014-04-11T12:17:07Z</time>
      </trkpt>
      <trkpt lat="44.05501" lon="2.06588">
        <ele>218.36</ele>
        <time>2014-04-11T12:17:17Z</time>
      </trkpt>
      <trkpt lat="44.05491" lon="2.06597">
        <ele>218.36</ele>
        <time>2014-04-11T12:17:27Z</time>
      </trkpt>
      <trkpt lat="44.05489" lon="2.066">
        <ele>218.84</ele>
        <time>2014-04-11T12:17:31Z</time>
      </trkpt>
      <trkpt lat="44.05474" lon="2.06614">
        <ele>219.32</ele>
        <time>2014-04-11T12:17:44Z</time>
      </trkpt>
      <trkpt lat="44.05466" lon="2.06618">
        <ele>220.28</ele>
        <time>2014-04-11T12:17:52Z</time>
      </trkpt>
      <trkpt lat="44.05463" lon="2.06621">
        <ele>220.76</ele>
        <time>2014-04-11T12:17:55Z</time>
      </trkpt>
      <trkpt lat="44.0545" lon="2.0662">
        <ele>222.2</ele>
        <time>2014-04-11T12:18:10Z</time>
      </trkpt>
      <trkpt lat="44.05449" lon="2.0662">
        <ele>222.68</ele>
        <time>2014-04-11T12:18:11Z</time>
      </trkpt>
      <trkpt lat="44.05447" lon="2.0662">
        <ele>222.68</ele>
        <time>2014-04-11T12:18:13Z</time>
      </trkpt>
      <trkpt lat="44.05442" lon="2.06622">
        <ele>223.64</ele>
        <time>2014-04-11T12:18:18Z</time>
      </trkpt>
      <trkpt lat="44.05439" lon="2.06624">
        <ele>224.12</ele>
        <time>2014-04-11T12:18:21Z</time>
      </trkpt>
      <trkpt lat="44.05423" lon="2.06643">
        <ele>226.05</ele>
        <time>2014-04-11T12:18:43Z</time>
      </trkpt>
      <trkpt lat="44.05413" lon="2.06651">
        <ele>227.01</ele>
        <time>2014-04-11T12:18:54Z</time>
      </trkpt>
      <trkpt lat="44.05403" lon="2.06657">
        <ele>228.93</ele>
        <time>2014-04-11T12:19:05Z</time>
      </trkpt>
      <trkpt lat="44.05399" lon="2.06661">
        <ele>229.41</ele>
        <time>2014-04-11T12:19:09Z</time>
      </trkpt>
      <trkpt lat="44.05383" lon="2.06671">
        <ele>232.3</ele>
        <time>2014-04-11T12:19:25Z</time>
      </trkpt>
      <trkpt lat="44.05383" lon="2.06672">
        <ele>233.26</ele>
        <time>2014-04-11T12:19:26Z</time>
      </trkpt>
      <trkpt lat="44.05367" lon="2.06677">
        <ele>233.74</ele>
        <time>2014-04-11T12:19:41Z</time>
      </trkpt>
      <trkpt lat="44.05366" lon="2.06678">
        <ele>234.22</ele>
        <time>2014-04-11T12:19:43Z</time>
      </trkpt>
      <trkpt lat="44.05362" lon="2.06679">
        <ele>234.22</ele>
        <time>2014-04-11T12:19:46Z</time>
      </trkpt>
      <trkpt lat="44.05358" lon="2.06679">
        <ele>234.7</ele>
        <time>2014-04-11T12:19:50Z</time>
      </trkpt>
      <trkpt lat="44.05351" lon="2.06682">
        <ele>236.14</ele>
        <time>2014-04-11T12:19:57Z</time>
      </trkpt>
      <trkpt lat="44.05339" lon="2.06684">
        <ele>238.06</ele>
        <time>2014-04-11T12:20:10Z</time>
      </trkpt>
      <trkpt lat="44.0533" lon="2.06683">
        <ele>239.51</ele>
        <time>2014-04-11T12:20:18Z</time>
      </trkpt>
      <trkpt lat="44.05328" lon="2.06682">
        <ele>239.51</ele>
        <time>2014-04-11T12:20:20Z</time>
      </trkpt>
      <trkpt lat="44.05325" lon="2.06682">
        <ele>239.99</ele>
        <time>2014-04-11T12:20:23Z</time>
      </trkpt>
      <trkpt lat="44.05321" lon="2.06674">
        <ele>242.39</ele>
        <time>2014-04-11T12:20:31Z</time>
      </trkpt>
      <trkpt lat="44.05318" lon="2.06657">
        <ele>242.87</ele>
        <time>2014-04-11T12:20:44Z</time>
      </trkpt>
      <trkpt lat="44.05317" lon="2.06654">
        <ele>243.83</ele>
        <time>2014-04-11T12:20:46Z</time>
      </trkpt>
      <trkpt lat="44.05316" lon="2.0664">
        <ele>244.79</ele>
        <time>2014-04-11T12:20:56Z</time>
      </trkpt>
      <trkpt lat="44.05318" lon="2.06625">
        <ele>246.23</ele>
        <time>2014-04-11T12:21:08Z</time>
      </trkpt>
      <trkpt lat="44.05317" lon="2.06622">
        <ele>246.23</ele>
        <time>2014-04-11T12:21:10Z</time>
      </trkpt>
      <trkpt lat="44.05316" lon="2.06612">
        <ele>247.68</ele>
        <time>2014-04-11T12:21:18Z</time>
      </trkpt>
      <trkpt lat="44.05313" lon="2.06601">
        <ele>249.12</ele>
        <time>2014-04-11T12:21:28Z</time>
      </trkpt>
      <trkpt lat="44.05309" lon="2.06591">
        <ele>251.04</ele>
        <time>2014-04-11T12:21:38Z</time>
      </trkpt>
      <trkpt lat="44.05309" lon="2.06587">
        <ele>251.04</ele>
        <time>2014-04-11T12:21:41Z</time>
      </trkpt>
      <trkpt lat="44.05304" lon="2.06571">
        <ele>252.96</ele>
        <time>2014-04-11T12:21:53Z</time>
      </trkpt>
      <trkpt lat="44.05306" lon="2.06568">
        <ele>252.96</ele>
        <time>2014-04-11T12:21:56Z</time>
      </trkpt>
      <trkpt lat="44.05305" lon="2.06564">
        <ele>252.96</ele>
        <time>2014-04-11T12:22:00Z</time>
      </trkpt>
      <trkpt lat="44.05302" lon="2.06548">
        <ele>257.29</ele>
        <time>2014-04-11T12:22:15Z</time>
      </trkpt>
      <trkpt lat="44.05302" lon="2.06548">
        <ele>254.41</ele>
        <time>2014-04-11T12:22:17Z</time>
      </trkpt>
      <trkpt lat="44.053" lon="2.06544">
        <ele>255.37</ele>
        <time>2014-04-11T12:22:28Z</time>
      </trkpt>
      <trkpt lat="44.05296" lon="2.06528">
        <ele>256.81</ele>
        <time>2014-04-11T12:22:42Z</time>
      </trkpt>
      <trkpt lat="44.05292" lon="2.06511">
        <ele>258.73</ele>
        <time>2014-04-11T12:22:57Z</time>
      </trkpt>
      <trkpt lat="44.05286" lon="2.06493">
        <ele>261.62</ele>
        <time>2014-04-11T12:23:13Z</time>
      </trkpt>
      <trkpt lat="44.05284" lon="2.0649">
        <ele>262.58</ele>
        <time>2014-04-11T12:23:25Z</time>
      </trkpt>
      <trkpt lat="44.05282" lon="2.06484">
        <ele>263.06</ele>
        <time>2014-04-11T12:23:29Z</time>
      </trkpt>
      <trkpt lat="44.05279" lon="2.0648">
        <ele>263.54</ele>
        <time>2014-04-11T12:23:33Z</time>
      </trkpt>
      <trkpt lat="44.05275" lon="2.06468">
        <ele>265.46</ele>
        <time>2014-04-11T12:23:42Z</time>
      </trkpt>
      <trkpt lat="44.05273" lon="2.06465">
        <ele>265.94</ele>
        <time>2014-04-11T12:23:45Z</time>
      </trkpt>
      <trkpt lat="44.05262" lon="2.06444">
        <ele>268.83</ele>
        <time>2014-04-11T12:24:06Z</time>
      </trkpt>
      <trkpt lat="44.05251" lon="2.06426">
        <ele>272.19</ele>
        <time>2014-04-11T12:24:24Z</time>
      </trkpt>
      <trkpt lat="44.05246" lon="2.06419">
        <ele>273.63</ele>
        <time>2014-04-11T12:24:33Z</time>
      </trkpt>
      <trkpt lat="44.05237" lon="2.06405">
        <ele>276.52</ele>
        <time>2014-04-11T12:24:48Z</time>
      </trkpt>
      <trkpt lat="44.05233" lon="2.06391">
        <ele>278.92</ele>
        <time>2014-04-11T12:25:01Z</time>
      </trkpt>
      <trkpt lat="44.05234" lon="2.06375">
        <ele>281.32</ele>
        <time>2014-04-11T12:25:14Z</time>
      </trkpt>
      <trkpt lat="44.05237" lon="2.0636">
        <ele>283.25</ele>
        <time>2014-04-11T12:25:26Z</time>
      </trkpt>
      <trkpt lat="44.05239" lon="2.06354">
        <ele>284.21</ele>
        <time>2014-04-11T12:25:31Z</time>
      </trkpt>
      <trkpt lat="44.05233" lon="2.06344">
        <ele>286.13</ele>
        <time>2014-04-11T12:25:46Z</time>
      </trkpt>
      <trkpt lat="44.05227" lon="2.06354">
        <ele>287.57</ele>
        <time>2014-04-11T12:25:56Z</time>
      </trkpt>
      <trkpt lat="44.05219" lon="2.06363">
        <ele>289.49</ele>
        <time>2014-04-11T12:26:10Z</time>
      </trkpt>
      <trkpt lat="44.05212" lon="2.06363">
        <ele>291.42</ele>
        <time>2014-04-11T12:26:23Z</time>
      </trkpt>
      <trkpt lat="44.05208" lon="2.06362">
        <ele>291.9</ele>
        <time>2014-04-11T12:26:27Z</time>
      </trkpt>
      <trkpt lat="44.05197" lon="2.0635">
        <ele>293.82</ele>
        <time>2014-04-11T12:26:42Z</time>
      </trkpt>
      <trkpt lat="44.05188" lon="2.06334">
        <ele>296.7</ele>
        <time>2014-04-11T12:26:58Z</time>
      </trkpt>
      <trkpt lat="44.05176" lon="2.06318">
        <ele>298.15</ele>
        <time>2014-04-11T12:27:18Z</time>
      </trkpt>
      <trkpt lat="44.05164" lon="2.06303">
        <ele>299.59</ele>
        <time>2014-04-11T12:27:36Z</time>
      </trkpt>
      <trkpt lat="44.0516" lon="2.06294">
        <ele>299.59</ele>
        <time>2014-04-11T12:27:50Z</time>
      </trkpt>
      <trkpt lat="44.05148" lon="2.06275">
        <ele>300.55</ele>
        <time>2014-04-11T12:28:07Z</time>
      </trkpt>
      <trkpt lat="44.05139" lon="2.06263">
        <ele>300.55</ele>
        <time>2014-04-11T12:28:24Z</time>
      </trkpt>
      <trkpt lat="44.05138" lon="2.06263">
        <ele>300.55</ele>
        <time>2014-04-11T12:28:26Z</time>
      </trkpt>
      <trkpt lat="44.05133" lon="2.06257">
        <ele>300.55</ele>
        <time>2014-04-11T12:28:35Z</time>
      </trkpt>
      <trkpt lat="44.05121" lon="2.06245">
        <ele>301.03</ele>
        <time>2014-04-11T12:28:51Z</time>
      </trkpt>
      <trkpt lat="44.05118" lon="2.0624">
        <ele>301.03</ele>
        <time>2014-04-11T12:29:05Z</time>
      </trkpt>
      <trkpt lat="44.05113" lon="2.06232">
        <ele>301.03</ele>
        <time>2014-04-11T12:29:21Z</time>
      </trkpt>
      <trkpt lat="44.05108" lon="2.06226">
        <ele>301.03</ele>
        <time>2014-04-11T12:29:30Z</time>
      </trkpt>
      <trkpt lat="44.05101" lon="2.06212">
        <ele>301.03</ele>
        <time>2014-04-11T12:29:48Z</time>
      </trkpt>
      <trkpt lat="44.051" lon="2.06207">
        <ele>301.51</ele>
        <time>2014-04-11T12:30:02Z</time>
      </trkpt>
      <trkpt lat="44.05101" lon="2.06204">
        <ele>301.03</ele>
        <time>2014-04-11T12:30:15Z</time>
      </trkpt>
      <trkpt lat="44.05101" lon="2.06203">
        <ele>301.03</ele>
        <time>2014-04-11T12:30:19Z</time>
      </trkpt>
      <trkpt lat="44.05099" lon="2.06196">
        <ele>301.03</ele>
        <time>2014-04-11T12:30:28Z</time>
      </trkpt>
      <trkpt lat="44.05098" lon="2.0619">
        <ele>301.51</ele>
        <time>2014-04-11T12:30:32Z</time>
      </trkpt>
      <trkpt lat="44.05094" lon="2.06185">
        <ele>301.03</ele>
        <time>2014-04-11T12:30:37Z</time>
      </trkpt>
      <trkpt lat="44.05089" lon="2.06176">
        <ele>301.51</ele>
        <time>2014-04-11T12:30:45Z</time>
      </trkpt>
      <trkpt lat="44.0508" lon="2.06157">
        <ele>302.47</ele>
        <time>2014-04-11T12:30:59Z</time>
      </trkpt>
      <trkpt lat="44.05078" lon="2.06153">
        <ele>302.47</ele>
        <time>2014-04-11T12:31:02Z</time>
      </trkpt>
      <trkpt lat="44.05076" lon="2.06148">
        <ele>302.47</ele>
        <time>2014-04-11T12:31:06Z</time>
      </trkpt>
      <trkpt lat="44.05069" lon="2.0613">
        <ele>303.91</ele>
        <time>2014-04-11T12:31:19Z</time>
      </trkpt>
      <trkpt lat="44.05064" lon="2.0612">
        <ele>304.39</ele>
        <time>2014-04-11T12:31:31Z</time>
      </trkpt>
      <trkpt lat="44.05063" lon="2.06113">
        <ele>304.39</ele>
        <time>2014-04-11T12:31:42Z</time>
      </trkpt>
      <trkpt lat="44.05061" lon="2.06107">
        <ele>304.88</ele>
        <time>2014-04-11T12:31:49Z</time>
      </trkpt>
      <trkpt lat="44.05059" lon="2.06101">
        <ele>304.39</ele>
        <time>2014-04-11T12:31:58Z</time>
      </trkpt>
      <trkpt lat="44.05056" lon="2.06097">
        <ele>304.88</ele>
        <time>2014-04-11T12:32:02Z</time>
      </trkpt>
      <trkpt lat="44.0505" lon="2.06081">
        <ele>306.32</ele>
        <time>2014-04-11T12:32:16Z</time>
      </trkpt>
      <trkpt lat="44.05047" lon="2.06074">
        <ele>305.36</ele>
        <time>2014-04-11T12:32:21Z</time>
      </trkpt>
      <trkpt lat="44.05044" lon="2.06067">
        <ele>305.84</ele>
        <time>2014-04-11T12:32:28Z</time>
      </trkpt>
      <trkpt lat="44.05039" lon="2.06051">
        <ele>305.84</ele>
        <time>2014-04-11T12:32:40Z</time>
      </trkpt>
      <trkpt lat="44.0503" lon="2.06025">
        <ele>305.84</ele>
        <time>2014-04-11T12:32:58Z</time>
      </trkpt>
      <trkpt lat="44.05024" lon="2.06006">
        <ele>306.32</ele>
        <time>2014-04-11T12:33:11Z</time>
      </trkpt>
      <trkpt lat="44.05016" lon="2.05985">
        <ele>306.32</ele>
        <time>2014-04-11T12:33:27Z</time>
      </trkpt>
      <trkpt lat="44.05011" lon="2.05968">
        <ele>306.32</ele>
        <time>2014-04-11T12:33:40Z</time>
      </trkpt>
      <trkpt lat="44.05006" lon="2.05957">
        <ele>306.32</ele>
        <time>2014-04-11T12:33:48Z</time>
      </trkpt>
      <trkpt lat="44.05005" lon="2.05953">
        <ele>306.32</ele>
        <time>2014-04-11T12:33:51Z</time>
      </trkpt>
      <trkpt lat="44.05001" lon="2.05941">
        <ele>306.32</ele>
        <time>2014-04-11T12:33:59Z</time>
      </trkpt>
      <trkpt lat="44.04991" lon="2.05919">
        <ele>306.8</ele>
        <time>2014-04-11T12:34:16Z</time>
      </trkpt>
      <trkpt lat="44.0499" lon="2.05915">
        <ele>306.8</ele>
        <time>2014-04-11T12:34:27Z</time>
      </trkpt>
      <trkpt lat="44.04986" lon="2.05906">
        <ele>306.32</ele>
        <time>2014-04-11T12:34:34Z</time>
      </trkpt>
      <trkpt lat="44.04971" lon="2.05879">
        <ele>306.32</ele>
        <time>2014-04-11T12:34:53Z</time>
      </trkpt>
      <trkpt lat="44.04971" lon="2.05878">
        <ele>306.32</ele>
        <time>2014-04-11T12:34:54Z</time>
      </trkpt>
      <trkpt lat="44.04956" lon="2.05852">
        <ele>307.28</ele>
        <time>2014-04-11T12:35:16Z</time>
      </trkpt>
      <trkpt lat="44.04953" lon="2.05842">
        <ele>307.76</ele>
        <time>2014-04-11T12:35:23Z</time>
      </trkpt>
      <trkpt lat="44.04949" lon="2.0583">
        <ele>307.76</ele>
        <time>2014-04-11T12:35:31Z</time>
      </trkpt>
      <trkpt lat="44.04942" lon="2.0581">
        <ele>308.24</ele>
        <time>2014-04-11T12:35:44Z</time>
      </trkpt>
      <trkpt lat="44.04942" lon="2.05808">
        <ele>308.72</ele>
        <time>2014-04-11T12:35:46Z</time>
      </trkpt>
      <trkpt lat="44.04932" lon="2.0579">
        <ele>308.72</ele>
        <time>2014-04-11T12:36:00Z</time>
      </trkpt>
      <trkpt lat="44.04927" lon="2.05778">
        <ele>307.76</ele>
        <time>2014-04-11T12:36:11Z</time>
      </trkpt>
      <trkpt lat="44.04924" lon="2.05773">
        <ele>307.76</ele>
        <time>2014-04-11T12:36:16Z</time>
      </trkpt>
      <trkpt lat="44.0492" lon="2.05768">
        <ele>307.28</ele>
        <time>2014-04-11T12:36:20Z</time>
      </trkpt>
      <trkpt lat="44.04909" lon="2.05756">
        <ele>306.8</ele>
        <time>2014-04-11T12:36:33Z</time>
      </trkpt>
      <trkpt lat="44.04901" lon="2.05748">
        <ele>305.84</ele>
        <time>2014-04-11T12:36:42Z</time>
      </trkpt>
      <trkpt lat="44.04899" lon="2.05746">
        <ele>305.84</ele>
        <time>2014-04-11T12:36:44Z</time>
      </trkpt>
      <trkpt lat="44.04889" lon="2.05733">
        <ele>305.36</ele>
        <time>2014-04-11T12:36:57Z</time>
      </trkpt>
      <trkpt lat="44.0488" lon="2.0572">
        <ele>304.88</ele>
        <time>2014-04-11T12:37:09Z</time>
      </trkpt>
      <trkpt lat="44.04873" lon="2.05712">
        <ele>305.36</ele>
        <time>2014-04-11T12:37:17Z</time>
      </trkpt>
      <trkpt lat="44.0487" lon="2.05707">
        <ele>305.36</ele>
        <time>2014-04-11T12:37:21Z</time>
      </trkpt>
      <trkpt lat="44.04867" lon="2.05704">
        <ele>305.36</ele>
        <time>2014-04-11T12:37:25Z</time>
      </trkpt>
      <trkpt lat="44.04862" lon="2.05695">
        <ele>305.84</ele>
        <time>2014-04-11T12:37:32Z</time>
      </trkpt>
      <trkpt lat="44.04856" lon="2.05681">
        <ele>306.8</ele>
        <time>2014-04-11T12:37:42Z</time>
      </trkpt>
      <trkpt lat="44.04856" lon="2.05676">
        <ele>307.28</ele>
        <time>2014-04-11T12:37:46Z</time>
      </trkpt>
      <trkpt lat="44.04854" lon="2.05673">
        <ele>307.28</ele>
        <time>2014-04-11T12:37:48Z</time>
      </trkpt>
      <trkpt lat="44.04853" lon="2.0567">
        <ele>307.76</ele>
        <time>2014-04-11T12:37:51Z</time>
      </trkpt>
      <trkpt lat="44.04847" lon="2.05658">
        <ele>308.72</ele>
        <time>2014-04-11T12:38:04Z</time>
      </trkpt>
      <trkpt lat="44.04847" lon="2.05658">
        <ele>308.72</ele>
        <time>2014-04-11T12:38:08Z</time>
      </trkpt>
      <trkpt lat="44.04844" lon="2.05657">
        <ele>308.72</ele>
        <time>2014-04-11T12:38:10Z</time>
      </trkpt>
      <trkpt lat="44.04841" lon="2.05655">
        <ele>309.2</ele>
        <time>2014-04-11T12:38:15Z</time>
      </trkpt>
      <trkpt lat="44.0484" lon="2.0565">
        <ele>309.68</ele>
        <time>2014-04-11T12:38:18Z</time>
      </trkpt>
      <trkpt lat="44.04833" lon="2.05635">
        <ele>309.68</ele>
        <time>2014-04-11T12:38:31Z</time>
      </trkpt>
      <trkpt lat="44.04834" lon="2.05614">
        <ele>310.16</ele>
        <time>2014-04-11T12:38:45Z</time>
      </trkpt>
      <trkpt lat="44.04834" lon="2.05611">
        <ele>310.16</ele>
        <time>2014-04-11T12:38:47Z</time>
      </trkpt>
      <trkpt lat="44.04836" lon="2.0559">
        <ele>310.16</ele>
        <time>2014-04-11T12:39:00Z</time>
      </trkpt>
      <trkpt lat="44.04838" lon="2.05568">
        <ele>310.64</ele>
        <time>2014-04-11T12:39:15Z</time>
      </trkpt>
      <trkpt lat="44.04842" lon="2.05543">
        <ele>311.12</ele>
        <time>2014-04-11T12:39:31Z</time>
      </trkpt>
      <trkpt lat="44.04846" lon="2.05518">
        <ele>312.09</ele>
        <time>2014-04-11T12:39:47Z</time>
      </trkpt>
      <trkpt lat="44.04847" lon="2.05516">
        <ele>312.57</ele>
        <time>2014-04-11T12:39:48Z</time>
      </trkpt>
      <trkpt lat="44.04849" lon="2.05497">
        <ele>313.05</ele>
        <time>2014-04-11T12:39:59Z</time>
      </trkpt>
      <trkpt lat="44.04852" lon="2.0549">
        <ele>313.53</ele>
        <time>2014-04-11T12:40:04Z</time>
      </trkpt>
      <trkpt lat="44.04856" lon="2.05471">
        <ele>314.49</ele>
        <time>2014-04-11T12:40:16Z</time>
      </trkpt>
      <trkpt lat="44.04856" lon="2.0547">
        <ele>314.49</ele>
        <time>2014-04-11T12:40:17Z</time>
      </trkpt>
      <trkpt lat="44.04857" lon="2.0546">
        <ele>315.45</ele>
        <time>2014-04-11T12:40:24Z</time>
      </trkpt>
      <trkpt lat="44.04859" lon="2.05449">
        <ele>316.41</ele>
        <time>2014-04-11T12:40:32Z</time>
      </trkpt>
      <trkpt lat="44.04862" lon="2.05428">
        <ele>318.33</ele>
        <time>2014-04-11T12:40:47Z</time>
      </trkpt>
      <trkpt lat="44.04862" lon="2.05425">
        <ele>318.33</ele>
        <time>2014-04-11T12:40:49Z</time>
      </trkpt>
      <trkpt lat="44.04863" lon="2.05414">
        <ele>322.18</ele>
        <time>2014-04-11T12:41:02Z</time>
      </trkpt>
      <trkpt lat="44.04863" lon="2.05414">
        <ele>320.74</ele>
        <time>2014-04-11T12:41:25Z</time>
      </trkpt>
      <trkpt lat="44.04863" lon="2.05412">
        <ele>320.74</ele>
        <time>2014-04-11T12:41:29Z</time>
      </trkpt>
      <trkpt lat="44.04862" lon="2.05408">
        <ele>320.74</ele>
        <time>2014-04-11T12:41:32Z</time>
      </trkpt>
      <trkpt lat="44.04863" lon="2.05402">
        <ele>321.22</ele>
        <time>2014-04-11T12:41:48Z</time>
      </trkpt>
      <trkpt lat="44.04862" lon="2.05401">
        <ele>321.22</ele>
        <time>2014-04-11T12:41:51Z</time>
      </trkpt>
      <trkpt lat="44.04864" lon="2.05394">
        <ele>320.74</ele>
        <time>2014-04-11T12:42:06Z</time>
      </trkpt>
      <trkpt lat="44.04863" lon="2.05394">
        <ele>322.18</ele>
        <time>2014-04-11T12:42:34Z</time>
      </trkpt>
      <trkpt lat="44.04863" lon="2.05388">
        <ele>321.7</ele>
        <time>2014-04-11T12:42:39Z</time>
      </trkpt>
      <trkpt lat="44.04862" lon="2.0538">
        <ele>321.7</ele>
        <time>2014-04-11T12:42:44Z</time>
      </trkpt>
      <trkpt lat="44.0486" lon="2.05363">
        <ele>321.7</ele>
        <time>2014-04-11T12:42:57Z</time>
      </trkpt>
      <trkpt lat="44.04861" lon="2.05359">
        <ele>321.7</ele>
        <time>2014-04-11T12:43:00Z</time>
      </trkpt>
      <trkpt lat="44.0486" lon="2.05354">
        <ele>321.7</ele>
        <time>2014-04-11T12:43:03Z</time>
      </trkpt>
      <trkpt lat="44.0486" lon="2.05343">
        <ele>321.7</ele>
        <time>2014-04-11T12:43:16Z</time>
      </trkpt>
      <trkpt lat="44.0486" lon="2.0534">
        <ele>321.7</ele>
        <time>2014-04-11T12:43:18Z</time>
      </trkpt>
      <trkpt lat="44.0486" lon="2.05337">
        <ele>321.7</ele>
        <time>2014-04-11T12:43:20Z</time>
      </trkpt>
      <trkpt lat="44.04861" lon="2.0532">
        <ele>322.18</ele>
        <time>2014-04-11T12:43:32Z</time>
      </trkpt>
      <trkpt lat="44.04863" lon="2.05308">
        <ele>322.18</ele>
        <time>2014-04-11T12:43:40Z</time>
      </trkpt>
      <trkpt lat="44.04865" lon="2.05299">
        <ele>322.18</ele>
        <time>2014-04-11T12:43:46Z</time>
      </trkpt>
      <trkpt lat="44.04865" lon="2.05295">
        <ele>322.18</ele>
        <time>2014-04-11T12:43:48Z</time>
      </trkpt>
      <trkpt lat="44.04866" lon="2.05282">
        <ele>322.66</ele>
        <time>2014-04-11T12:43:57Z</time>
      </trkpt>
      <trkpt lat="44.04869" lon="2.05273">
        <ele>322.66</ele>
        <time>2014-04-11T12:44:03Z</time>
      </trkpt>
      <trkpt lat="44.04874" lon="2.05248">
        <ele>323.14</ele>
        <time>2014-04-11T12:44:19Z</time>
      </trkpt>
      <trkpt lat="44.04875" lon="2.05245">
        <ele>323.14</ele>
        <time>2014-04-11T12:44:21Z</time>
      </trkpt>
      <trkpt lat="44.04875" lon="2.05238">
        <ele>323.14</ele>
        <time>2014-04-11T12:44:26Z</time>
      </trkpt>
      <trkpt lat="44.04878" lon="2.05215">
        <ele>323.62</ele>
        <time>2014-04-11T12:44:39Z</time>
      </trkpt>
      <trkpt lat="44.04882" lon="2.05198">
        <ele>324.1</ele>
        <time>2014-04-11T12:44:52Z</time>
      </trkpt>
      <trkpt lat="44.04885" lon="2.05181">
        <ele>324.58</ele>
        <time>2014-04-11T12:45:04Z</time>
      </trkpt>
      <trkpt lat="44.04885" lon="2.05177">
        <ele>324.58</ele>
        <time>2014-04-11T12:45:06Z</time>
      </trkpt>
      <trkpt lat="44.04888" lon="2.0516">
        <ele>325.54</ele>
        <time>2014-04-11T12:45:18Z</time>
      </trkpt>
      <trkpt lat="44.0489" lon="2.05142">
        <ele>326.99</ele>
        <time>2014-04-11T12:45:32Z</time>
      </trkpt>
      <trkpt lat="44.04893" lon="2.05122">
        <ele>327.95</ele>
        <time>2014-04-11T12:45:45Z</time>
      </trkpt>
      <trkpt lat="44.04896" lon="2.05102">
        <ele>329.39</ele>
        <time>2014-04-11T12:45:59Z</time>
      </trkpt>
      <trkpt lat="44.04899" lon="2.05079">
        <ele>330.83</ele>
        <time>2014-04-11T12:46:15Z</time>
      </trkpt>
      <trkpt lat="44.04899" lon="2.05076">
        <ele>331.31</ele>
        <time>2014-04-11T12:46:18Z</time>
      </trkpt>
      <trkpt lat="44.04901" lon="2.05064">
        <ele>332.27</ele>
        <time>2014-04-11T12:46:27Z</time>
      </trkpt>
      <trkpt lat="44.04901" lon="2.05058">
        <ele>332.75</ele>
        <time>2014-04-11T12:46:30Z</time>
      </trkpt>
      <trkpt lat="44.04902" lon="2.05045">
        <ele>333.71</ele>
        <time>2014-04-11T12:46:40Z</time>
      </trkpt>
      <trkpt lat="44.04901" lon="2.05045">
        <ele>333.71</ele>
        <time>2014-04-11T12:46:42Z</time>
      </trkpt>
      <trkpt lat="44.04892" lon="2.05049">
        <ele>333.71</ele>
        <time>2014-04-11T12:46:56Z</time>
      </trkpt>
      <trkpt lat="44.04889" lon="2.05052">
        <ele>333.71</ele>
        <time>2014-04-11T12:47:00Z</time>
      </trkpt>
      <trkpt lat="44.04876" lon="2.05057">
        <ele>333.23</ele>
        <time>2014-04-11T12:47:14Z</time>
      </trkpt>
      <trkpt lat="44.04866" lon="2.05047">
        <ele>333.71</ele>
        <time>2014-04-11T12:47:28Z</time>
      </trkpt>
      <trkpt lat="44.04852" lon="2.05027">
        <ele>332.75</ele>
        <time>2014-04-11T12:47:47Z</time>
      </trkpt>
      <trkpt lat="44.04846" lon="2.0502">
        <ele>332.27</ele>
        <time>2014-04-11T12:47:54Z</time>
      </trkpt>
      <trkpt lat="44.04839" lon="2.05007">
        <ele>331.31</ele>
        <time>2014-04-11T12:48:05Z</time>
      </trkpt>
      <trkpt lat="44.0483" lon="2.04991">
        <ele>331.31</ele>
        <time>2014-04-11T12:48:17Z</time>
      </trkpt>
      <trkpt lat="44.04824" lon="2.04979">
        <ele>330.35</ele>
        <time>2014-04-11T12:48:27Z</time>
      </trkpt>
      <trkpt lat="44.04822" lon="2.04974">
        <ele>330.35</ele>
        <time>2014-04-11T12:48:31Z</time>
      </trkpt>
      <trkpt lat="44.04818" lon="2.04968">
        <ele>329.87</ele>
        <time>2014-04-11T12:48:36Z</time>
      </trkpt>
      <trkpt lat="44.04812" lon="2.04956">
        <ele>329.87</ele>
        <time>2014-04-11T12:48:50Z</time>
      </trkpt>
      <trkpt lat="44.04809" lon="2.04949">
        <ele>329.87</ele>
        <time>2014-04-11T12:49:01Z</time>
      </trkpt>
      <trkpt lat="44.04806" lon="2.04942">
        <ele>329.39</ele>
        <time>2014-04-11T12:49:07Z</time>
      </trkpt>
      <trkpt lat="44.04804" lon="2.04939">
        <ele>329.39</ele>
        <time>2014-04-11T12:49:10Z</time>
      </trkpt>
      <trkpt lat="44.04803" lon="2.04934">
        <ele>329.39</ele>
        <time>2014-04-11T12:49:13Z</time>
      </trkpt>
      <trkpt lat="44.04791" lon="2.04911">
        <ele>327.95</ele>
        <time>2014-04-11T12:49:30Z</time>
      </trkpt>
      <trkpt lat="44.04783" lon="2.04894">
        <ele>327.95</ele>
        <time>2014-04-11T12:49:42Z</time>
      </trkpt>
      <trkpt lat="44.04775" lon="2.04878">
        <ele>327.47</ele>
        <time>2014-04-11T12:49:53Z</time>
      </trkpt>
      <trkpt lat="44.04762" lon="2.0485">
        <ele>326.02</ele>
        <time>2014-04-11T12:50:12Z</time>
      </trkpt>
      <trkpt lat="44.04751" lon="2.04832">
        <ele>325.06</ele>
        <time>2014-04-11T12:50:26Z</time>
      </trkpt>
      <trkpt lat="44.04735" lon="2.04804">
        <ele>324.1</ele>
        <time>2014-04-11T12:50:47Z</time>
      </trkpt>
      <trkpt lat="44.04725" lon="2.04785">
        <ele>323.62</ele>
        <time>2014-04-11T12:51:01Z</time>
      </trkpt>
      <trkpt lat="44.04717" lon="2.04763">
        <ele>323.14</ele>
        <time>2014-04-11T12:51:15Z</time>
      </trkpt>
      <trkpt lat="44.04706" lon="2.04746">
        <ele>322.66</ele>
        <time>2014-04-11T12:51:29Z</time>
      </trkpt>
      <trkpt lat="44.04704" lon="2.0474">
        <ele>322.66</ele>
        <time>2014-04-11T12:51:33Z</time>
      </trkpt>
      <trkpt lat="44.04698" lon="2.04718">
        <ele>322.18</ele>
        <time>2014-04-11T12:51:45Z</time>
      </trkpt>
      <trkpt lat="44.04696" lon="2.04712">
        <ele>321.7</ele>
        <time>2014-04-11T12:51:50Z</time>
      </trkpt>
      <trkpt lat="44.04687" lon="2.04695">
        <ele>321.7</ele>
        <time>2014-04-11T12:52:02Z</time>
      </trkpt>
      <trkpt lat="44.04683" lon="2.0468">
        <ele>321.7</ele>
        <time>2014-04-11T12:52:12Z</time>
      </trkpt>
      <trkpt lat="44.04674" lon="2.04654">
        <ele>321.22</ele>
        <time>2014-04-11T12:52:28Z</time>
      </trkpt>
      <trkpt lat="44.04667" lon="2.0463">
        <ele>321.7</ele>
        <time>2014-04-11T12:52:43Z</time>
      </trkpt>
      <trkpt lat="44.04662" lon="2.04611">
        <ele>321.22</ele>
        <time>2014-04-11T12:52:55Z</time>
      </trkpt>
      <trkpt lat="44.04654" lon="2.04584">
        <ele>322.18</ele>
        <time>2014-04-11T12:53:11Z</time>
      </trkpt>
      <trkpt lat="44.04647" lon="2.0456">
        <ele>322.18</ele>
        <time>2014-04-11T12:53:26Z</time>
      </trkpt>
      <trkpt lat="44.04642" lon="2.04537">
        <ele>322.66</ele>
        <time>2014-04-11T12:53:42Z</time>
      </trkpt>
      <trkpt lat="44.04641" lon="2.04521">
        <ele>322.66</ele>
        <time>2014-04-11T12:53:52Z</time>
      </trkpt>
      <trkpt lat="44.04656" lon="2.04511">
        <ele>323.14</ele>
        <time>2014-04-11T12:54:07Z</time>
      </trkpt>
      <trkpt lat="44.04663" lon="2.04509">
        <ele>323.62</ele>
        <time>2014-04-11T12:54:18Z</time>
      </trkpt>
      <trkpt lat="44.04664" lon="2.04508">
        <ele>323.62</ele>
        <time>2014-04-11T12:54:29Z</time>
      </trkpt>
      <trkpt lat="44.04662" lon="2.04507">
        <ele>323.62</ele>
        <time>2014-04-11T12:54:32Z</time>
      </trkpt>
      <trkpt lat="44.04652" lon="2.04498">
        <ele>323.62</ele>
        <time>2014-04-11T12:54:41Z</time>
      </trkpt>
      <trkpt lat="44.04636" lon="2.04483">
        <ele>322.18</ele>
        <time>2014-04-11T12:54:58Z</time>
      </trkpt>
    </trkseg>
  </trk>
</gpx>